     2              OBSERVATION DATA    GPS                 RINEX VERSION / TYPE
teqc 2000Feb29 Duncan Agnew 20000517 23:39:07UTC            PGM / RUN BY / DATE
                                                            COMMENT
L2: 1 -> 1; 5 -> 5; 60 -> 9                                 COMMENT
L2: 1 -> 1; 5 -> 5; 60 -> 9                                 COMMENT
L2: 1 -> 1; 5 -> 5; 60 -> 9                                 COMMENT
L2: 1 -> 1; 5 -> 5; 60 -> 9                                 COMMENT
L2: 1 -> 1; 5 -> 5; 60 -> 9                                 COMMENT
Original Marker Name: 1110                                  COMMENT
Campaign Name: Post Hector                                  COMMENT
4-Character Station Name: 1110                              COMMENT
6-Character Antenna Code: TRMCMP                            COMMENT
Vertical Measurement Point: BPA                             COMMENT
Vertical Offset to Rinex Ref. Point: 0.0000                 COMMENT
Radial Measurement Point: RRP                               COMMENT
Radial Offset to Rinex Ref. Point: 0.0000                   COMMENT
Antenna Height from Field Measurement: 1.8900 m             COMMENT
Additional Antenna Identification Info.:                    COMMENT
Model 22020.00+GP                                           COMMENT
Original XYZ: -2333142.4935 -4807510.2220 3470384.9462      COMMENT
New XYZ position is based on association with SCEC monument COMMENT
E1D0I0K3+0011. Position of that monument is believed to be  COMMENT
valid to within 1 m horizontally; vertical accuracy         COMMENT
should be no worse than 3-times this value.                 COMMENT
                                                            COMMENT
Revised Rinex header created by UCSD GPS archive for        COMMENT
GSAC on 16-Jun-2000 (2000:168) 00:06:09 GMT                 COMMENT
For assistance contact dagnew@ucsd.edu                      COMMENT
or anderson@python.ucsd.edu                                 COMMENT
                                                            COMMENT
STA 11-10 1990                                              MARKER NAME
1110                                                        MARKER NUMBER
-Unknown- CALIF DEPT TRANSPORTATION                         OBSERVER / AGENCY
1537 TRIMBLE 4000 SSI NP 7.29; SP 3.07                      REC # / TYPE / VERS
79239 TR GEOD L1/L2 GP                                      ANT # / TYPE
 -2333139.1003 -4807500.7595  3470370.6818                  APPROX POSITION XYZ
        1.8900        0.0000        0.0000                  ANTENNA: DELTA H/E/N
     1     1     0                                          WAVELENGTH FACT L1/2
     7    C1    L1    L2    P1    P2    S1    S2            # / TYPES OF OBSERV
     0                                                      INTERVAL
  2000     5     1    18    58   15.000000                  TIME OF FIRST OBS
  2000     5     2     0    30   45.000000                  TIME OF LAST OBS
                                                            END OF HEADER
 00  5  1 18 58 15.0000000  0  7G 4G 5G 6G 9G10G24G30
  23196744.5554      39785.17656     31001.50556                  23196753.7114
        16.2504         15.2504
  20512599.6884      -7023.47058     -5472.98457                  20512607.3914
        29.7504         28.0004
  24168775.0554     -30798.38255     -7382.73555                  24168787.8444
        11.2504         10.5004
  24054355.7114      37512.76156     29230.55756                  24054373.2234
        13.0004         12.0004
  22135735.6644     -33993.03457    -26488.47056                  22135746.8364
        23.0004         22.2504
  20834658.3834      17785.65958     13858.70457                  20834666.2854
        29.0004         27.7504
  22176745.9144     -35359.20157    -27552.71656                  22176754.4024
        25.0004         22.5004
 00  5  1 18 58 30.0000000  0  7G 4G 5G 6G 9G10G24G30
  23205493.2584      85757.35146     66823.93846                  23205502.6954
        16.2504         15.2504
  20511087.7664     -14968.41348    -11663.86447                  20511095.5744
        29.7504         28.0004
  24162018.9304     -66301.97445    -35047.81445                  24162031.6954
        11.2504         10.7504
  24062603.8524      80853.44346     63002.31646                  24062621.5044
        13.0004         12.5004
  22128294.6174     -73095.10247    -56957.54046                  22128305.8364
        23.0004         22.5004
  20838586.5084      38428.01448     29943.63947                  20838594.5164
        29.0004         27.5004
  22169001.9064     -76054.09047    -59263.00146                  22169010.3594
        24.7504         22.2504
 00  5  1 18 58 45.0000000  0  7G 4G 5G 6G 9G10G24G30
  23214256.5634     131809.48946    102708.67046                  23214265.8714
        16.2504         14.7504
  20509610.7034     -22730.17748    -17712.01247                  20509618.4304
        29.7504         28.0004
  24155273.5084    -101750.23045    -62669.74945                  24155286.1804
        11.2504         11.0004
  24070863.5084     124260.02246     96825.41446                  24070881.3954
        12.7504         12.0004
  22120883.1484    -112043.72947    -87307.05246                  22120894.1804
        23.0004         22.2504
  20842541.5234      59210.51848     46137.78447                  20842549.4844
        28.7504         27.5004
  22161284.0704    -116611.67247    -90866.28446                  22161292.5704
        24.2504         22.2504
 00  5  1 18 59  0.0000000  0  7G 4G 5G 6G 9G10G24G30
  23223035.4224     177943.77546    138657.43446                  23223044.5314
        15.7504         14.5004
  20508168.0634     -30311.54148    -23619.58147                  20508175.7544
        29.7504         27.7504
  24148538.0554    -137143.14345    -90248.57845                  24148550.5634
        11.0004         10.7504
  24079136.5784     167733.62146    130700.75246                  24079153.7154
        12.5004         12.2504
  22113501.1414    -150836.04047   -117534.75646                  22113512.2194
        23.0004         22.0004
  20846524.0004      80138.82348     62445.53347                  20846531.9264
        28.7504         27.5004
  22153592.7274    -157030.37547   -122361.35346                  22153601.1334
        24.2504         22.2504
 00  5  1 18 59 15.0000000  0  7G 4G 5G 6G 9G10G24G30
  23231828.6254     224149.74046    174662.02546                  23231838.2274
        16.0004         15.0004
  20506758.5164     -37719.76248    -29392.23647                  20506766.4064
        29.7504         28.0004
  24141812.2344    -172489.55845   -117791.17845                  24141824.6254
        11.2504         11.0004
  24087420.7274     211264.37846    164620.58445                  24087438.2734
        12.7504         11.7504
  22106147.2974    -189479.67347   -147646.61446                  22106158.2584
        23.0004         22.0004
  20850532.8914     101205.93948     78861.44747                  20850540.8874
        29.0004         27.5004
  22145925.3834    -197321.02047   -153756.65246                  22145934.0234
        24.2504         22.2504
 00  5  1 18 59 30.0000000  0  7G 4G 5G 6G 9G10G24G30
  23240632.3054     270413.98146    210712.04346                  23240641.4024
        16.0004         14.5004
  20505379.7974     -44963.52448    -35036.73447                  20505387.7464
        29.7504         27.7504
  24135092.3444    -207798.97145   -145304.93845                  24135104.9454
        11.2504         11.0004
  24095713.5944     254841.87246    198576.89646                  24095732.2664
        13.0004         12.2504
  22098820.1724    -227985.10447   -177650.78046                  22098831.0164
        23.0004         22.0004
  20854565.9064     122400.05048     95376.31947                  20854574.0204
        29.0004         27.5004
  22138280.9454    -237493.79847   -185060.09146                  22138289.5634
        24.7504         22.2504
 00  5  1 18 59 45.0000000  0  7G 4G 5G 6G 9G10G24G30
  23249445.1484     316727.00346    246800.07546                  23249454.4344
        15.5004         14.2504
  20504031.0314     -52052.05648    -40560.28547                  20504038.8284
        29.7504         28.0004
  24128378.8524    -243077.48945   -172794.61245                  24128391.5354
        11.5004         10.7504
  24104013.6884     298460.06946    232564.89046                  24104031.6914
        12.7504         12.2504
  22091517.5234    -266359.46247   -207552.80946                  22091528.5434
        23.0004         22.2504
  20858621.5554     143712.42548    111983.34747                  20858629.7384
        28.7504         27.7504
  22130657.0234    -277557.77847   -216278.75546                  22130665.6764
        24.7504         22.7504
 00  5  1 19  0  0.0000000  0  7G 4G 5G 6G 9G10G24G30
  23258266.0634     363080.07046    282919.29746                  23258275.3244
        15.5004         14.2504
  20502710.4224     -58991.91248    -45967.97547                  20502718.2304
        29.7504         27.7504
  24121670.6724    -278329.68745   -200263.78745                  24121683.2384
        11.2504         11.0004
  24112320.7424     342115.27146    266581.73746                  24112339.0164
        12.2504         12.5004
  22084239.3054    -304607.36847   -237356.30946                  22084250.3954
        23.2504         22.5004
  20862698.6644     165137.65248    128678.31447                  20862706.6374
        29.0004         27.7504
  22123052.9844    -317517.57047   -247416.23246                  22123061.6954
        24.7504         22.5004
 00  5  1 19  0 15.0000000  0  7G 4G 5G 6G 9G10G24G30
  23267093.1414     409465.78846    319063.97446                  23267101.9104
        15.2504         13.7504
  20501416.8594     -65789.49948    -51264.80647                  20501424.6454
        29.7504         28.0004
  24114966.8284    -313559.80145   -227715.73945                  24114979.0664
        11.2504         10.7504
  24120634.1334     385801.84246    300623.03345                  24120651.7034
        12.2504         11.7504
  22076984.4224    -342730.44747   -267062.53346                  22076995.6414
        23.2504         22.2504
  20866796.1804     186669.76448    145456.56547                  20866804.2584
        29.0004         27.7504
  22115467.7114    -357377.60547   -278475.97646                  22115476.3754
        24.7504         22.7504
 00  5  1 19  0 30.0000000  0  7G 4G 5G 6G 9G10G24G30
  23275924.7034     455875.36946    355227.23246                  23275933.4384
        15.0004         14.0004
  20500148.7114     -72453.55248    -56457.59047                  20500156.5554
        30.0004         28.0004
  24108264.6484    -348777.84045   -255158.30445                  24108277.1564
        11.0004         11.0004
  24128951.3204     429506.13646    334678.12046                  24128969.8754
        12.2504         12.0004
  22069751.6884    -380738.18747   -296678.88746                  22069762.6134
        23.0004         22.2504
  20870912.0474     208299.45048    162310.85347                  20870919.9734
        29.0004         27.7504
  22107899.7894    -397148.41547   -309466.19246                  22107908.4184
        24.7504         22.5004
 00  5  1 19  0 45.0000000  0  7G 4G 5G 6G 9G10G24G30
  23284760.8054     502311.38446    391411.10746                  23284770.2664
        15.0004         14.0004
  20498906.2274     -78983.96948    -61546.23947                  20498913.8954
        30.0004         28.0004
  24101565.7664    -383983.27545   -282591.03345                  24101578.7074
        11.2504         10.5004
  24137270.6804     473223.54145    368743.43045                  24137288.7424
        11.5004         11.5004
  22062540.6564    -418632.67547   -326206.99846                  22062551.5354
        23.0004         22.5004
  20875046.4774     230024.63148    179239.55247                  20875054.5664
        29.0004         27.7504
  22100348.5554    -436830.70247   -340387.43346                  22100356.9144
        25.2504         22.7504
 00  5  1 19  1  0.0000000  0  7G 4G 5G 6G 9G10G24G30
  23293601.8134     548772.29746    427614.37046                  23293610.2894
        15.0004         13.5004
  20497688.8284     -85381.55448    -66531.38247                  20497696.4384
        30.0004         28.0004
  24094868.4534    -419175.67745   -310013.59345                  24094881.1024
        11.2504         11.2504
  24145591.8134     516952.07645    402817.40045                  24145609.7814
        11.5004         11.7504
  22055350.4144    -456417.45147   -355649.60846                  22055361.6914
        23.0004         22.5004
  20879198.8834     251845.71748    196242.97547                  20879206.8324
        29.0004         27.5004
  22092813.5704    -476426.18047   -371241.03046                  22092822.0944
        25.2504         22.7504
 00  5  1 19  1 15.0000000  0  7G 4G 5G 6G 9G10G24G30
  23302446.9144     595251.92546    463832.22746                  23302455.9654
        15.0004         13.5004
  20496496.7034     -91645.78148    -71412.61147                  20496504.4064
        30.0004         28.0004
  24088173.7504    -454357.47145   -337427.93445                  24088187.3714
        11.5004         10.7504
  24153915.1174     560688.42946    436897.45346                  24153933.3914
        12.2504         12.0004
  22048179.8834    -494097.15147   -385010.35546                  22048191.0664
        23.0004         22.2504
  20883368.9774     273759.68148    213318.77647                  20883377.0314
        28.7504         27.5004
  22085294.1884    -515940.10647   -402031.08246                  22085302.6294
        25.0004         22.7504
 00  5  1 19  1 30.0000000  0  7G 4G 5G 6G 9G10G24G30
  23311293.9774     641743.08446    500059.04946                  23311303.0394
        15.0004         13.7504
  20495329.5164     -97778.90848    -76191.68647                  20495337.3014
        30.2504         28.0004
  24081479.6254    -489535.20945   -364839.06345                  24081491.9804
        11.0004         11.0004
  24162238.0944     604425.84146    470978.36846                  24162255.5474
        12.5004         12.0004
  22041028.3204    -531679.78547   -414295.45446                  22041039.4804
        23.0004         22.5004
  20887555.1724     295758.03648    230460.34147                  20887563.3324
        28.7504         27.5004
  22077789.7894    -555377.70347   -432761.65946                  22077798.3594
        25.5004         23.0004
 00  5  1 19  1 45.0000000  0  7G 4G 5G 6G 9G10G24G30
  23320142.7894     688244.44946    536293.84446                  23320152.2854
        15.0004         13.5004
  20494186.9384    -103784.03748    -80871.02347                  20494194.5594
        30.0004         28.0004
  24074786.3834    -524709.52145   -392247.52245                  24074799.2074
        11.0004         11.2504
  24170561.4224     648164.01845    505059.87245                  24170580.2704
        11.7504         11.7504
  22033894.5234    -569167.05547   -443506.24746                  22033905.7074
        23.0004         22.7504
  20891756.8754     317839.21048    247666.43247                  20891765.0234
        28.7504         27.5004
  22070299.6174    -594737.90647   -463431.91746                  22070308.1884
        25.5004         23.0004
 00  5  1 19  2  0.0000000  0  7G 4G 5G 6G 9G10G24G30
  23328994.1484     734756.65946    572537.08446                  23329003.4924
        15.0004         13.5004
  20493068.6804    -109660.77448    -85450.30647                  20493076.5124
        30.0004         27.7504
  24068092.3834    -559884.72745   -419656.70145                  24068106.0984
        10.7504         10.7504
  24178884.0944     691900.51145    539140.03445                  24178902.6254
        11.0004         11.5004
  22026778.9144    -606560.50247   -472643.93546                  22026790.1214
        23.2504         22.5004
  20895974.5704     340003.39548    264937.21347                  20895982.7544
        28.7504         27.7504
  22062824.6094    -634019.67847   -494041.06946                  22062833.0634
        26.2504         23.2504
 00  5  1 19  2 15.0000000  0  7G 4G 5G 6G 9G10G24G30
  23337847.7814     781282.02346    608790.57546                  23337856.7274
        15.2504         13.5004
  20491975.3134    -115405.36948    -89926.63147                  20491983.2624
        29.7504         28.0004
  24061397.8984    -595062.64245   -447067.99945                  24061410.4304
        10.7504         11.5004
  24187206.2734     735632.98745    573217.08345                  24187224.6644
        11.2504         11.7504
  22019680.9144    -643859.86647   -501708.31346                  22019691.9224
        23.2504         22.5004
  20900208.0704     362250.02848    282272.23947                  20900216.2304
        28.7504         27.5004
  22055364.7344    -673220.92847   -524587.47446                  22055373.0594
        26.2504         23.5004
 00  5  1 19  2 30.0000000  0  7G 4G 5G 6G 9G10G24G30
  23346703.5394     827820.68346    645054.43446                  23346712.0744
        15.7504         13.5004
  20490907.8594    -121015.89148    -94298.47747                  20490915.7974
        29.7504         28.0004
  24054702.7504    -630246.76345   -474484.10345                  24054713.8634
        10.7504         11.0004
  24195527.3594     779359.40745    607289.41445                  24195545.1764
        11.2504         11.5004
  22012600.3984    -681067.71647   -530701.38046                  22012611.4414
        23.2504         22.5004
  20904456.7584     384576.17248    299669.22047                  20904464.7664
        28.5004         27.2504
  22047920.8204    -712340.20847   -555070.00946                  22047929.2154
        26.5004         23.2504
 00  5  1 19  2 45.0000000  0  7G 4G 5G 6G 9G10G24G30
  23355560.9304     874365.35846    681322.98046                  23355570.0394
        15.5004         13.5004
  20489864.4224    -126498.50548    -98570.65847                  20489872.4534
        29.7504         28.0004
  24048005.1884    -665443.87445   -501910.33045                  24048018.9964
        10.5004         11.0004
  24203846.1484     823075.61545    641353.78945                  24203864.1884
        10.5004         10.7504
  22005536.6094    -718189.38247   -559627.29146                  22005547.2544
        23.2504         22.7504
  20908718.4694     406972.75848    317121.09247                  20908726.4654
        28.7504         27.2504
  22040491.2734    -751381.34347   -585491.64446                  22040499.7154
        26.7504         23.2504
 00  5  1 19  3  0.0000000  0  7G 4G 5G 6G 9G10G24G30
  23364419.6724     920918.13046    717597.83246                  23364428.9224
        15.2504         13.2504
  20488846.7194    -131847.13148   -102738.43247                  20488854.5744
        30.0004         27.7504
  24041306.0634    -700647.30045   -529341.52345                  24041319.9654
        10.5004         11.0004
  24212164.8524     866789.57245    675416.39145                  24212182.6214
        10.2504         10.2504
  21998489.9384    -755218.71547   -588481.26146                  21998500.7584
        23.2504         22.7504
  20912994.8834     429444.92648    334631.85447                  20913002.9024
        28.7504         27.2504
  22033077.9384    -790337.31947   -615846.92946                  22033086.3444
        26.5004         23.5004
 00  5  1 19  3 15.0000000  0  7G 4G 5G 6G 9G10G24G30
  23373278.5164     967471.51146    753873.13846                  23373287.4144
        15.5004         13.5004
  20487853.0634    -137068.35148   -106806.92847                  20487860.8834
        30.0004         27.7504
  24034604.1564    -735863.36245   -556782.51145                  24034617.4964
        10.5004         11.0004
  24220482.4224     910497.95645    709474.68045                  24220500.5204
        10.7504         10.7504
  21991460.3754    -792159.03947   -617265.86846                  21991471.1134
        23.5004         22.7504
  20917283.9384     451984.50448    352195.14847                  20917291.9924
        28.5004         27.2504
  22025680.0164    -829214.23447   -646140.60846                  22025688.5514
        26.5004         23.5004
 00  5  1 19  3 30.0000000  0  7G 4G 5G 6G 9G10G24G30
  23382138.3674    1014031.56546    790153.66346                  23382147.1374
        15.2504         13.5004
  20486884.4534    -142157.91548   -110772.83347                  20486892.1214
        30.0004         28.0004
  24027901.5864    -771087.85745   -584230.09045                  24027914.2344
        10.7504         11.0004
  24228800.3834     954205.09645    743532.00045                  24228819.1374
        11.0004         11.5004
  21984449.1174    -829004.35447   -645976.43746                  21984459.9844
        23.2504         22.7504
  20921586.2734     474592.62848    369811.85347                  20921594.3524
        28.7504         27.0004
  22018298.7114    -868004.02647   -676366.39346                  22018307.2704
        26.5004         23.5004
 00  5  1 19  3 45.0000000  0  7G 4G 5G 6G 9G10G24G30
  23390999.5004    1060597.15046    826438.50546                  23391008.9384
        15.2504         13.7504
  20485939.8524    -147122.75748   -114641.55447                  20485947.4384
        30.2504         27.7504
  24021196.9304    -806322.93245   -611685.93645                  24021209.9184
        10.5004         11.0004
  24237116.9064     997910.43345    777587.90645                  24237135.4264
        10.7504         11.0004
  21977455.0084    -865757.51247   -674615.20346                  21977465.7344
        23.2504         22.7504
  20925900.8284     497265.03048    387478.64647                  20925908.6724
        28.7504         27.2504
  22010933.6414    -906707.28347   -706524.75746                  22010942.1174
        26.2504         23.5004
 00  5  1 19  4  0.0000000  0  7G 4G 5G 6G 9G10G24G30
  23399863.0474    1107173.83046    862731.97246                  23399871.9804
        15.2504         13.2504
  20485019.3594    -151960.64648   -118411.35347                  20485027.0634
        30.2504         28.0004
  24014490.1644    -841563.30945   -639145.88645                  24014503.4574
        10.0004         11.0004
  24245434.8204    1041618.83845    811646.19745                  24245453.2464
        10.2504         10.7504
  21970479.5164    -902413.82847   -703178.50846                  21970490.3134
        23.2504         22.7504
  20930228.2114     520006.50648    405199.25747                  20930236.2544
        28.7504         27.2504
  22003585.3284    -945321.75547   -736613.93246                  22003593.6994
        26.2504         23.5004
 00  5  1 19  4 15.0000000  0  7G 4G 5G 6G 9G10G24G30
  23408727.6884    1153759.04046    899032.09746                  23408737.1724
        15.2504         13.2504
  20484122.2424    -156674.25748   -122084.31247                  20484129.8054
        30.2504         27.7504
  24007783.4694    -876809.98045   -666610.73545                  24007796.5274
        10.0004         11.0004
  24253751.4844    1085326.33045    845703.77145                  24253770.5664
        10.5004         10.2504
  21963522.5314    -938973.48947   -731666.49746                  21963533.2704
        23.5004         23.0004
  20934568.3204     542813.47648    422970.90747                  20934576.3164
        28.7504         27.2504
  21996254.0314    -983850.36347   -766636.19846                  21996262.6954
        26.5004         23.5004
 00  5  1 19  4 30.0000000  0  7G 4G 5G 6G 9G10G24G30
  23417594.5004    1200351.88346    935338.17246                  23417603.7624
        15.7504         13.5004
  20483248.2584    -161267.45948   -125663.44047                  20483256.0314
        30.2504         28.0004
  24001074.9774    -912059.00345   -694077.44245                  24001088.7854
        10.0004         11.5004
  24262069.5314    1129035.05845    879762.30945                  24262088.5554
        10.5004         10.7504
  21956583.9614    -975435.07647   -760078.06546                  21956594.8164
        23.7504         23.0004
  20938920.7504     565685.35848    440793.13447                  20938928.7114
        28.7504         27.2504
  21988937.9774   -1022295.50947   -796593.44046                  21988946.4654
        26.7504         23.5004
 00  5  1 19  4 45.0000000  0  7G 4G 5G 6G 9G10G24G30
  23426461.0554    1246949.13146    971647.68746                  23426470.9144
        15.2504         13.5004
  20482396.1024    -165746.36748   -129153.51347                  20482403.7814
        30.2504         27.7504
  23994366.5084    -947311.00545   -721546.46545                  23994379.0744
         9.7504         11.0004
  24270387.4224    1172744.79845    913821.65245                  24270406.3164
        10.2504         11.0004
  21949663.8054   -1011800.46547   -788414.67146                  21949674.7544
        23.7504         23.0004
  20943285.7504     588623.60148    458667.07247                  20943293.7934
        28.5004         27.0004
  21981637.4144   -1060660.57647   -826488.27246                  21981645.6684
        26.5004         23.7504
 00  5  1 19  5  0.0000000  0  7G 4G 5G 6G 9G10G24G30
  23435329.5234    1293551.71046   1007961.34746                  23435339.1254
        15.2504         13.5004
  20481565.0004    -170113.53948   -132556.51547                  20481572.7274
        30.2504         27.7504
  23987657.6884    -982564.47345   -749016.60845                  23987671.4384
         9.7504         11.0004
  24278705.1414    1216453.59945    947880.23445                  24278724.2934
        10.2504         10.2504
  21942761.4924   -1048072.10547   -816678.22946                  21942772.3244
        24.0004         23.2504
  20947663.0634     611627.97248    476592.53847                  20947671.1994
        28.5004         27.0004
  21974351.0944   -1098950.46947   -856324.53346                  21974359.4774
        26.5004         23.5004
 00  5  1 19  5 15.0000000  0  7G 4G 5G 6G 9G10G24G30
  23444199.3284    1340162.51446   1044281.41746                  23444208.4024
        15.5004         13.2504
  20480754.9224    -174370.45848   -135873.60647                  20480762.5084
        30.5004         28.0004
  23980948.0234   -1017822.20945   -776490.09945                  23980960.9414
        10.0004         11.0004
  24287022.1484    1260157.89745    981935.32945                  24287041.5594
        10.5004         10.5004
  21935876.8984   -1084251.73647   -844870.09846                  21935887.7304
        24.0004         23.2504
  20952053.2344     634697.36848    494568.67247                  20952061.2664
        28.5004         27.0004
  21967078.2814   -1137168.11647   -886104.49346                  21967086.6764
        26.5004         23.7504
 00  5  1 19  5 30.0000000  0  7G 4G 5G 6G 9G10G24G30
  23453071.6644    1386786.18446   1080611.50146                  23453080.6684
        14.7504         13.0004
  20479966.6094    -178513.13148   -139101.67847                  20479974.2424
        30.5004         28.0004
  23974238.1094   -1053085.09545   -803967.59645                  23974251.0984
        10.0004         11.0004
  24295338.6094    1303862.12345   1015990.37045                  24295357.3634
        10.7504         10.7504
  21929009.8284   -1120336.62747   -872988.14046                  21929020.5314
        24.0004         23.2504
  20956455.9844     657833.41648    512596.74447                  20956464.0984
        28.5004         27.0004
  21959820.0004   -1175310.67247   -915825.94346                  21959828.5004
        26.2504         23.7504
 00  5  1 19  5 45.0000000  0  7G 4G 5G 6G 9G10G24G30
  23461945.3364    1433418.45246   1116948.30446                  23461954.3404
        14.7504         13.0004
  20479199.9924    -182541.90148   -142240.99647                  20479207.7774
        30.5004         27.7504
  23967526.3914   -1088357.98245   -831452.88245                  23967540.2114
        10.0004         10.7504
  24303654.9534    1347564.27945   1050043.78145                  24303673.5434
        11.2504         10.7504
  21922160.8594   -1156329.81047   -901034.71946                  21922171.3404
        24.2504         23.5004
  20960871.2894     681035.61948    530676.36147                  20960879.4024
        28.2504         27.0004
  21952575.4614   -1213380.91547   -945491.04446                  21952583.9964
        26.5004         23.7504
 00  5  1 19  6  0.0000000  0  7G 4G 5G 6G 9G10G24G30
  23470819.5004    1480051.38046   1153285.61446                  23470828.7854
        14.5004         13.0004
  20478454.3204    -186460.72148   -145294.63847                  20478462.0474
        30.7504         28.0004
  23960811.1174   -1123648.17645   -858951.65445                  23960824.0474
        10.2504         11.2504
  24311969.5394    1391257.79945   1084090.50045                  24311988.9024
        11.2504         10.5004
  21915328.0864   -1192234.72047   -929012.51946                  21915338.8134
        24.2504         23.2504
  20965297.9144     704298.99348    548803.64647                  20965305.9344
        28.5004         27.0004
  21945343.1644   -1251388.33047   -975107.19146                  21945351.5594
        26.7504         23.7504
 00  5  1 19  6 15.0000000  0  7G 4G 5G 6G 9G10G24G30
  23479694.2734    1526689.15346   1189626.68546                  23479703.9104
        14.5004         13.0004
  20477731.1174    -190260.29848   -148255.35847                  20477738.7154
        30.7504         28.0004
  23954092.3594   -1158952.67345   -886461.58945                  23954104.1884
        10.0004         11.5004
  24320282.9534    1434942.61845   1118130.41845                  24320302.2934
        11.0004         11.0004
  21908513.9454   -1228043.99247   -956915.78846                  21908524.7194
        24.2504         23.2504
  20969737.2194     727626.64048    566981.01747                  20969745.2854
        28.5004         27.0004
  21938123.2424   -1289328.19447  -1004670.69546                  21938131.3674
        26.5004         23.7504
 00  5  1 19  6 30.0000000  0  7G 4G 5G 6G 9G10G24G30
  23488569.7734    1573329.77546   1225969.99546                  23488579.4454
        14.0004         12.5004
  20477031.0944    -193939.39448   -151122.20347                  20477038.6094
        30.7504         27.7504
  23947370.5234   -1194274.89645   -913985.32245                  23947383.6174
        10.2504         11.5004
  24328594.2114    1478616.13045   1152161.53445                  24328613.6684
        11.0004         10.2504
  21901717.3054   -1263759.96847   -984746.36546                  21901728.0904
        24.2504         23.5004
  20974187.9384     751015.00548    585205.69947                  20974195.9574
        28.5004         26.7504
  21930916.1484   -1327201.23447  -1034182.13446                  21930924.2504
        26.5004         23.7504
 00  5  1 19  6 45.0000000  0  7G 4G 5G 6G 9G10G24G30
  23497447.2424    1619978.74046   1262319.78646                  23497456.9844
        14.0004         12.7504
  20476355.4534    -197490.27748   -153889.14147                  20476363.1334
        30.7504         27.7504
  23940645.9064   -1229611.67445   -941520.38445                  23940657.8284
        10.7504         11.0004
  24336904.4694    1522284.50245   1186188.62945                  24336923.8094
        10.7504         10.7504
  21894938.9454   -1299380.39747  -1012502.49146                  21894949.6134
        24.5004         23.5004
  20978651.4614     774471.26448    603483.27947                  20978659.5164
        28.5004         27.0004
  21923723.1954   -1365000.68647  -1063636.22746                  21923731.5314
        26.5004         23.7504
 00  5  1 19  7  0.0000000  0  7G 4G 5G 6G 9G10G24G30
  23506324.5474    1666630.91646   1298672.10746                  23506334.0314
        14.0004         12.7504
  20475703.8914    -200914.69148   -156557.53147                  20475711.7584
        30.7504         28.0004
  23933918.3914   -1264968.68045   -969071.22145                  23933930.8404
        11.0004         11.7504
  24345211.0394    1565937.87645   1220204.03245                  24345230.3914
        10.7504         10.7504
  21888177.6094   -1334910.84247  -1040188.49546                  21888188.1604
        24.5004         23.7504
  20983126.5784     797988.53548    621808.41047                  20983134.7504
        28.5004         27.0004
  21916543.7734   -1402728.42547  -1093034.43846                  21916552.2034
        26.7504         24.0004
 00  5  1 19  7 15.0000000  0  7G 4G 5G 6G 9G10G24G30
  23515203.1954    1713289.17746   1335029.15146                  23515211.9304
        13.5004         12.5004
  20475076.8984    -204208.34748   -159124.03347                  20475084.6484
        30.5004         28.0004
  23927186.1174   -1300344.95745
        11.0004
  24353516.0164    1609578.08345   1254209.19045                  24353535.5204
        11.0004         11.2504
  21881434.6884   -1370345.39247  -1067799.77046                  21881445.1454
        24.5004         23.7504
  20987613.7504     821566.98748    640181.21347                  20987621.7464
        28.7504         26.7504
  21909378.9694   -1440379.43647  -1122372.86546                  21909387.2114
        26.7504         23.5004
 00  5  1 19  7 30.0000000  0  7G 4G 5G 6G 9G10G24G30
  23524082.6254    1759948.80946   1371387.25646                  23524091.1724
        13.2504         12.0004
  20474475.1564    -207371.53548   -161588.86847                  20474482.9184
        30.7504         27.7504
  23920449.8444   -1335743.32445
        11.2504
  24361817.6174    1653205.48645   1288204.34145                  24361835.2814
        11.5004         11.2504
  21874709.9144   -1405684.49147  -1095336.68546                  21874720.2774
        24.5004         24.0004
  20992112.2274     845207.22748    658602.15847                  20992120.3404
        28.5004         27.0004
  21902229.4454   -1477952.12147  -1151650.26346                  21902237.8164
        26.7504         24.0004
 00  5  1 19  7 45.0000000  0  7G 4G 5G 6G 9G10G24G30
  23532961.0004    1806606.16146   1407743.58546                  23532969.3364
        13.2504         12.0004
  20473897.8754    -210404.17248   -163951.98147                  20473905.5204
        30.7504         27.7504
  23913710.4924   -1371159.47645
        11.5004
  24370117.2034    1696818.21845   1322188.07945                  24370136.1914
        11.5004         10.5004
  21868003.1884   -1440927.69847  -1122798.86446                  21868013.9384
        24.7504         24.0004
  20996622.6484     868910.42348    677072.16547                  20996630.7624
        28.2504         26.7504
  21895094.4614   -1515445.09747  -1180865.54646                  21895102.8324
        26.7504         23.7504
 00  5  1 19  8  0.0000000  0  7G 4G 5G 6G 9G10G24G30
  23541839.1884    1853261.54846   1444098.40546                  23541848.8594
        13.2504         12.2504
  20473345.3594    -213308.76648   -166215.31647                  20473353.0864
        30.7504         27.7504
  23906968.9224   -1406588.38645    -14723.94055                  23906981.3484
        11.7504         11.7504
  24378413.2274    1740412.00845   1356157.08345                  24378431.7584
        11.5004         10.7504
  21861314.7194   -1476075.24747  -1150186.51046                  21861325.3164
        24.7504         24.0004
  21001145.3054     892678.00248    695592.33747                  21001153.5594
        28.2504         27.0004
  21887974.9774   -1552857.88447  -1210018.34646                  21887983.3714
        26.7504         24.0004
 00  5  1 19  8 15.0000000  0  7G 4G 5G 6G 9G10G24G30
  23550718.0084    1899920.22646   1480455.76446                  23550727.2114
        13.2504         12.7504
  20472816.9694    -216084.95948   -168378.59547                  20472824.7194
        30.7504         27.7504
  23900225.2194   -1442025.35146    -42337.07346                  23900238.5594
        12.0004         12.2504
  24386705.0084    1783986.64645   1390111.14945                  24386724.5474
        11.0004         10.5004
  21854644.4844   -1511126.85847  -1177499.39046                  21854655.0124
        24.7504         24.0004
  21005681.0474     916512.41548    714164.59247                  21005689.0204
        28.2504         26.7504
  21880871.8834   -1590184.72047  -1239104.16846                  21880880.2424
        27.2504         24.0004
 00  5  1 19  8 30.0000000  0  7G 4G 5G 6G 9G10G24G30
  23559597.1644    1946578.89546   1516813.12346                  23559606.7074
        13.5004         12.2504
  20472311.8444    -218739.76048   -170447.28747                  20472319.4884
        31.0004         28.0004
  23893480.0704   -1477472.13646    -69957.87446                  23893491.6054
        12.0004         12.2504
  24394993.3204    1827539.99845   1424048.63645                  24395013.6334
        10.5004         10.7504
  21847991.3204   -1546089.39947  -1204742.87646                  21848001.8014
        24.7504         24.0004
  21010228.8204     940410.46248    732786.42447                  21010236.9224
        28.5004         26.7504
  21873784.6334   -1627427.12647  -1268124.21146                  21873793.1094
        27.5004         24.0004
 00  5  1 19  8 45.0000000  0  7G 4G 5G 6G 9G10G24G30
  23568475.5704    1993236.14246   1553169.37645                  23568485.1954
        13.5004         11.7504
  20471829.2424    -221276.78448   -172424.20847                  20471837.1094
        30.7504         27.7504
  23886733.1644   -1512927.69646    -97585.50446                  23886745.6254
        12.5004         12.2504
  24403277.7734    1871074.29145   1457971.24345                  24403297.2424
        10.0004         10.5004
  21841355.2274   -1580963.67447  -1231917.58146                  21841365.7894
        24.7504         24.0004
  21014789.0704     964375.92548    751460.79447                  21014797.1724
        28.5004         26.7504
  21866714.2584   -1664583.98747  -1297077.58746                  21866722.5594
        27.7504         24.2504
 00  5  1 19  9  0.0000000  0  7G 4G 5G 6G 9G10G24G30
  23577353.0704    2039886.61446   1589520.35846                  23577361.5004
        13.7504         12.2504
  20471367.5704    -223701.62748   -174313.71147                  20471375.2734
        31.2504         28.0004
  23879983.8134   -1548394.16946   -125221.65446                  23879995.8984
        12.5004         12.0004
  24411557.9064    1914585.63645   1491875.97745                  24411578.0204
         9.7504         10.5004
  21834735.6254   -1615747.26247  -1259021.62146                  21834746.1994
        24.7504         24.0004
  21019361.9694     988405.26948    770184.94247                  21019369.9654
        28.5004         27.0004
  21859659.4304   -1701657.13347  -1325965.73646                  21859668.0004
        27.7504         24.2504
 00  5  1 19  9 15.0000000  0  7G 4G 5G 6G 9G10G24G30
  23586228.9844    2086533.16446   1625868.27445                  23586238.4804
        13.5004         11.7504
  20470927.7504    -226013.46848   -176115.16547                  20470935.3594
        31.2504         27.7504
  23873233.5634   -1583869.02246   -152864.32246                  23873245.8364
        13.0004         12.5004
  24419834.0704    1958075.67345   1525764.10545                  24419854.4534
        10.0004         10.2504
  21828134.7504   -1650435.33647  -1286051.23846                  21828145.3364
        24.7504         24.2504
  21023946.9224    1012499.94748    788960.00047                  21023955.0944
        28.7504         26.7504
  21852620.8984   -1738645.32848  -1354787.68646                  21852629.2814
        28.0004         24.2504
 00  5  1 19  9 30.0000000  0  7G 4G 5G 6G 9G10G24G30
  23595104.0944    2133168.38446   1662207.35946                  23595114.0004
        13.7504         12.0004
  20470507.8284    -228219.88048   -177834.46447                  20470515.4264
        31.2504         28.0004
  23866479.7734   -1619357.53646   -180517.62946                  23866492.0944
        13.2504         12.5004
  24428105.1884    2001542.61345   1559634.25945                  24428124.9384
        10.0004         11.0004
  21821551.1414   -1685032.75747  -1313010.20946                  21821561.6214
        25.0004         24.2504
  21028543.4844    1036655.03548    807782.12947                  21028551.5984
        28.5004         26.5004
  21845597.1024   -1775556.01548  -1383549.24346                  21845605.4144
        28.0004         24.5004
 00  5  1 19  9 45.0000000  0  7G 4G 5G 6G 9G10G24G30
  23603977.3914    2179798.02846   1698542.13046                  23603986.8524
        14.2504         12.0004
  20470108.9304    -230317.18348   -179468.73547                  20470116.5864
        31.5004         27.7504
  23859725.3524   -1654853.40146   -208176.67046                  23859737.4264
        13.0004         12.2504
  24436373.6254    2044989.89545   1593489.06145                  24436394.0434
        10.0004         11.0004
  21814985.3754   -1719536.80447  -1339896.42446                  21814995.8794
        25.2504         24.2504
  21033152.2274    1060873.61948    826653.74447                  21033160.3634
        28.5004         26.7504
  21838588.4614   -1812385.23648  -1412247.31446                  21838596.5984
        28.0004         24.5004
 00  5  1 19 10  0.0000000  0  7G 4G 5G 6G 9G10G24G30
  23612849.5234    2226423.87046   1734873.89546                  23612858.9494
        14.0004         12.0004
  20469730.0634    -232307.32048   -181019.51547                  20469737.6254
        31.5004         27.7504
  23852969.3984   -1690357.26146   -235841.94746                  23852981.1684
        13.0004         12.5004
  24444636.8284    2088414.55245   1627326.26145                  24444655.3244
        10.2504         10.7504
  21808437.3834   -1753945.67247  -1366708.47446                  21808447.8874
        24.7504         24.2504
  21037772.3444    1085152.83948    845572.59647                  21037780.5394
        28.7504         26.7504
  21831595.2664   -1849134.95748  -1440883.43946                  21831603.4384
        28.2504         24.7504
 00  5  1 19 10 15.0000000  0  7G 4G 5G 6G 9G10G24G30
  23621722.0554    2273045.05946   1771202.06546                  23621731.8794
        14.2504         12.0004
  20469371.7504    -234190.94048   -182487.28547                  20469379.4184
        31.2504         28.0004
  23846210.3914   -1725874.27846   -263517.48246                  23846221.9844
        13.2504         12.5004
  24452896.3914    2131817.02245   1661146.13145                  24452915.5434
        10.0004         10.2504
  21801907.5704   -1788260.03247  -1393446.88646                  21801917.8404
        25.0004         24.2504
  21042404.1024    1109492.14948    864538.27847                  21042412.2734
        28.7504         26.7504
  21824616.7664   -1885807.08348  -1469459.10446                  21824624.9844
        28.5004         24.7504
 00  5  1 19 10 30.0000000  0  7G 4G 5G 6G 9G10G24G30
  23630592.0634    2319659.20546   1807524.72546                  23630600.5984
        14.5004         12.0004
  20469033.3984    -235968.54648   -183872.45047                  20469041.1254
        31.2504         27.5004
  23839448.6644   -1761407.68246   -291205.76846                  23839460.6564
        13.5004         12.5004
  24461151.8754    2175199.98945   1694950.84245                  24461171.6134
        10.0004         10.7504
  21795396.0554   -1822476.88447  -1420109.30846                  21795406.6054
        25.0004         24.5004
  21047046.7344    1133890.51148    883549.97447                  21047054.9184
        28.7504         26.7504
  21817652.7974   -1922403.61048  -1497975.85746                  21817661.2034
        28.5004         24.7504
 00  5  1 19 10 45.0000000  0  7G 4G 5G 6G 9G10G24G30
  23639460.8594    2366263.84946   1843839.99845                  23639469.4184
        14.5004         11.7504
  20468715.8834    -237637.83048   -185173.20847                  20468723.5634
        31.5004         27.7504
  23832683.3674   -1796958.22946   -318907.42646                  23832695.1954
        13.5004         12.2504
  24469404.3134    2218564.65445   1728741.27745                  24469424.8984
         9.5004         10.5004
  21788904.8674   -1856590.20247  -1446691.05946                  21788915.2664
        25.2504         24.2504
  21051701.1334    1158348.08648    902607.81247                  21051709.0944
        29.0004         26.7504
  21810702.5784   -1958927.23548  -1526435.80346                  21810710.8554
        29.0004         25.2504
 00  5  1 19 11  0.0000000  0  7G 4G 5G 6G 9G10G24G30
  23648327.1644    2412856.51346   1880145.93446                  23648336.3914
        14.5004         12.2504
  20468418.9144    -239198.22348   -186389.11647                  20468426.5944
        31.5004         27.7504
  23825914.3284   -1832528.23246   -346624.24346                  23825926.5904
        13.2504         12.0004
  24477652.1804    2261905.98745   1762513.53945                  24477672.1524
         9.5004         10.2504
  21782432.9454   -1890599.35947  -1473191.64446                  21782443.3444
        25.2504         24.5004
  21056365.5234    1182860.38848    921708.29647                  21056373.4494
        29.2504         27.0004
  21803765.5554   -1995380.92748  -1554841.25246                  21803773.9144
        29.0004         25.2504
 00  5  1 19 11 15.0000000  0  7G 4G 5G 6G 9G10G24G30
  23657191.6804    2459439.52346   1916444.33746                  23657200.5204
        15.0004         12.5004
  20468143.6174    -240644.94048   -187516.44347                  20468151.2384
        31.2504         28.0004
  23819142.3674   -1868115.15946   -374354.24146                  23819154.4884
        13.2504         12.2504
  24485895.0554    2305224.55945   1796268.07945                  24485914.6414
         9.2504          9.5004
  21775981.1724   -1924503.87747  -1499610.69246                  21775991.5124
        25.2504         24.5004
  21061040.1094    1207425.27348    940849.75047                  21061048.1294
        29.5004         27.0004
  21796842.0634   -2031764.24248  -1583191.86746                  21796850.3404
        29.2504         25.2504
 00  5  1 19 11 30.0000000  0  7G 4G 5G 6G 9G10G24G30
  23666055.0784    2506016.61946   1952738.12946                  23666063.7664
        14.7504         12.0004
  20467890.0784    -241975.74748   -188553.45847                  20467897.6294
        31.5004         28.0004
  23812367.6334   -1903716.47046   -402095.46446                  23812379.8834
        13.0004         12.0004
  24494134.7814    2348522.89645   1830006.84845                  24494154.9654
         9.2504          9.5004
  21769548.6804   -1958305.98047  -1525949.94046                  21769559.1134
        25.2504         24.7504
  21065725.1644    1232045.32648    960034.19547                  21065733.3014
        29.2504         26.7504
  21789932.3054   -2068076.15448  -1611486.84546                  21789940.7344
        29.2504         25.2504
 00  5  1 19 11 45.0000000  0  7G 4G 5G 6G 9G10G24G30
  23674916.2814    2552584.91346   1989025.06746                  23674924.6294
        14.7504         12.5004
  20467659.1174    -243191.44248   -189500.76747                  20467666.8554
        31.5004         27.7504
  23805589.3134   -1939334.46346   -429849.67646                  23805601.4694
        13.2504         12.0004
  24502370.4144    2391797.88345   1863727.39645                  24502390.9494
        10.5004         10.5004
  21763135.0864   -1992009.43147  -1552212.31146                  21763145.3094
        25.5004         24.5004
  21070419.9614    1256717.23148    979259.04247                  21070428.2624
        29.2504         27.0004
  21783035.5864   -2104317.89148  -1639727.14246                  21783043.7464
        29.5004         25.5004
 00  5  1 19 12  0.0000000  0  7G 4G 5G 6G 9G10G24G30
  23683776.5704    2599142.57446   2025303.73146                  23683785.7974
        14.5004         12.0004
  20467450.0784    -244289.87948   -190356.71047                  20467457.9104
        31.2504         28.0004
  23798808.0474   -1974971.13646   -457618.45246                  23798819.6884
        13.0004         12.5004
  24510599.4774    2435043.89145   1897425.37245                  24510619.6254
        10.7504         10.7504
  21756740.0554   -2025615.67447  -1578398.93846                  21756750.1374
        25.5004         24.7504
  21075124.5164    1281439.57748    998523.19847                  21075132.5704
        29.5004         27.0004
  21776152.2664   -2140489.58048  -1667912.85446                  21776160.4384
        29.7504         25.5004
 00  5  1 19 12 15.0000000  0  7G 4G 5G 6G 9G10G24G30
  23692633.6174    2645687.61946   2061572.54146                  23692642.8444
        14.2504         12.2504
  20467263.7894    -245268.74748   -191119.48347                  20467271.6804
        31.5004         27.7504
  23792023.4844   -2010624.44646   -485400.19246                  23792035.3484
        13.2504         12.2504
  24518823.7814    2478262.11945   1931101.73545                  24518843.7544
        10.7504         10.2504
  21750363.9144   -2059122.37147  -1604508.00046                  21750374.1134
        25.7504         25.0004
  21079839.4924    1306216.19348   1017829.63947                  21079847.7114
        29.5004         27.0004
  21769283.1024   -2176588.17548  -1696041.60847                  21769291.3674
        29.7504         25.7504
 00  5  1 19 12 30.0000000  0  7G 4G 5G 6G 9G10G24G30
  23701487.5164    2692215.16246   2097827.73446                  23701497.4694
        14.0004         12.0004
  20467099.4144    -246131.99148   -191792.16047                  20467107.0944
        31.5004         28.0004
  23785235.4774   -2046296.65446   -513196.65446                  23785246.4734
        13.0004         12.5004
  24527043.0084    2521450.05645   1964754.44145                  24527063.3794
        11.0004         10.5004
  21744006.0394   -2092533.86447  -1630542.87646                  21744016.3204
        25.7504         25.0004
  21084563.8594    1331042.77148   1037175.01147                  21084572.0084
        29.7504         27.0004
  21762427.3594   -2212614.84748  -1724114.32647                  21762435.6604
        29.7504         25.7504
 00  5  1 19 12 45.0000000  0  7G 4G 5G 6G 9G10G24G30
  23710338.8914    2738728.72646   2134072.02546                  23710348.8094
        14.2504         12.0004
  20466957.6564    -246877.04448   -192372.73947                  20466965.3134
        31.5004         27.7504
  23778444.5394   -2081982.37546   -541003.63446                  23778456.0864
        12.7504         12.0004
  24535255.5394    2564607.43045   1998383.37745                  24535275.1134
        10.5004         10.2504
  21737665.9224   -2125849.85547  -1656503.33046                  21737676.1214
        25.7504         24.7504
  21089297.4224    1355918.09348   1056558.37347                  21089305.5234
        29.7504         27.2504
  21755585.9384   -2248566.26148  -1752128.40047                  21755593.8874
        30.0004         25.7504
 00  5  1 19 13  0.0000000  0  7G 4G 5G 6G 9G10G24G30
  23719186.9304    2785226.60746   2170304.09345                  23719196.5204
        14.0004         11.7504
  20466838.0634    -247505.73448   -192862.64247                  20466845.8834
        31.7504         27.7504
  23771650.8364   -2117681.30646   -568820.93546                  23771663.4734
        13.0004         12.5004
  24543461.0004    2607727.87145   2031983.52245                  24543481.3484
        10.5004         11.2504
  21731342.9774   -2159077.37747  -1682394.84546                  21731353.3284
        25.7504         25.0004
  21094039.9224    1380839.54948   1075977.68147                  21094048.0004
        30.0004         27.0004
  21748759.2584   -2284441.32648  -1780082.98047                  21748767.2894
        30.0004         26.0004
 00  5  1 19 13 15.0000000  0  7G 4G 5G 6G 9G10G24G30
  23728032.8204    2831711.55946   2206526.08146                  23728041.4144
        13.5004         12.0004
  20466740.3444    -248018.70548   -193262.37347                  20466748.1174
        31.7504         28.0004
  23764855.7894   -2153390.36846   -596646.10246                  23764870.0084
        13.0004         12.0004
  24551659.8984    2650813.48845   2065556.53045                  24551680.1174
        10.7504         10.5004
  21725036.3594   -2192218.16947  -1708218.78146                  21725046.5944
        26.0004         25.2504
  21098791.3054    1405808.22248   1095433.77947                  21098799.4304
        30.0004         27.5004
  21741947.8674   -2320235.96648  -1807974.89146                  21741956.0394
        30.0004         25.5004
 00  5  1 19 13 30.0000000  0  7G 4G 5G 6G 9G10G24G30
  23736875.6724    2878179.32546   2242734.69945                  23736883.6804
        13.5004         11.5004
  20466663.8054    -248422.20048   -193576.80247                  20466671.3324
        32.0004         28.0004
  23758057.3134   -2189115.34846
        12.7504
  24559851.9614    2693861.31145   2099100.10145                  24559873.1454
        10.2504         10.5004
  21718745.2584   -2225277.75047  -1733979.43546                  21718755.7154
        26.0004         25.0004
  21103551.4534    1430823.62848   1114926.29447                  21103559.6374
        30.0004         27.0004
  21735150.7114   -2355953.37948  -1835806.62447                  21735158.5554
        30.0004         26.0004
 00  5  1 19 13 45.0000000  0  7G 4G 5G 6G 9G10G24G30
  23745714.6334    2924631.15846   2278930.88245                  23745724.4694
        13.2504         11.5004
  20466607.6254    -248716.49848   -193806.14147                  20466615.2114
        32.0004         28.0004
  23751256.5234   -2224855.55646
        13.0004
  24568036.9534    2736872.69845   2132615.23145                  24568057.7154
         9.7504         10.5004
  21712470.6334   -2258251.08047  -1759672.88046                  21712480.8674
        26.0004         25.0004
  21108321.2734    1455888.18048   1134457.10547                  21108329.3284
        30.2504         27.2504
  21728369.3834   -2391590.96848  -1863576.15647                  21728377.4734
        30.0004         25.7504
 00  5  1 19 14  0.0000000  0  7G 4G 5G 6G 9G10G24G30
  23754551.8134    2971067.99946   2315115.37645                  23754561.2624
        13.2504         11.2504
  20466573.4304    -248897.30448   -193947.04247                  20466581.1334
        32.0004         28.2504
  23744453.0314   -2260607.37946     -9285.65355                  23744466.0434
        12.7504         11.7504
  24576215.3984    2779851.14045   2166104.72545                  24576236.2894
         9.5004         10.2504
  21706213.7504   -2291132.18347  -1785294.46346                  21706223.9024
        26.0004         25.0004
  21113100.5784    1481003.81748   1154027.72647                  21113108.8794
        30.0004         27.2504
  21721603.2114   -2427146.08648  -1891281.42647                  21721611.2304
        30.0004         25.7504
 00  5  1 19 14 15.0000000  0  7G 4G 5G 6G 9G10G24G30
  23763384.8054    3017486.57846   2351285.66745                  23763395.3674
        12.7504         11.0004
  20466559.4144    -248970.11248   -194003.79247                  20466567.1994
        32.0004         28.0004
  23737647.0704   -2296373.55346    -37155.32946                  23737658.5234
        12.7504         12.5004
  24584387.8834    2822794.39645   2199566.79645                  24584408.0204
        10.0004          9.7504
  21699973.9534   -2323921.21147  -1810844.29846                  21699984.0124
        26.2504         25.0004
  21117889.4694    1506169.68248   1173637.47647                  21117897.6524
        30.0004         27.2504
  21714852.5944   -2462621.38148  -1918924.49247                  21714860.7664
        29.7504         25.7504
 00  5  1 19 14 30.0000000  0  7G 4G 5G 6G 9G10G24G30
  23772215.6804    3063893.04946   2387446.48145                  23772224.7894
        12.5004         11.5004
  20466566.6564    -248932.81848   -193974.74947                  20466574.3484
        32.2504         28.2504
  23730838.7034   -2332150.95046    -65033.76546                  23730850.6254
        12.5004         12.0004
  24592553.9774    2865708.42545   2233006.09745                  24592574.1134
        10.7504         10.2504
  21693752.6724   -2356614.57647  -1836319.59046                  21693762.6954
        26.5004         25.2504
  21122688.6334    1531389.13348   1193288.98847                  21122696.7464
        30.2504         27.5004
  21708118.0084   -2498012.03148  -1946501.61147                  21708126.1094
        29.7504         26.0004
 00  5  1 19 14 45.0000000  0  7G 4G 5G 6G 9G10G24G30
  23781044.6724    3110291.87446   2423601.37845                  23781054.7194
        12.2504         11.5004
  20466595.5314    -248780.52448   -193856.09447                  20466603.2344
        32.2504         28.2504
  23724029.1564   -2367936.74546    -92918.74546                  23724041.2774
        12.5004         12.0004
  24600716.0634    2908597.04845   2266425.62945                  24600736.5984
        10.7504         10.2504
  21687550.6174   -2389207.00847  -1861716.23046                  21687560.8054
        26.2504         25.0004
  21127498.3444    1556664.16248   1212983.80747                  21127506.4804
        30.2504         27.2504
  21701399.8204   -2533316.14948  -1974011.29447                  21701408.0164
        29.7504         26.0004
 00  5  1 19 15  0.0000000  0  7G 4G 5G 6G 9G10G24G30
  23789872.4534    3156681.20246   2459748.86745                  23789882.0204
        12.0004         11.2504
  20466646.4064    -248512.69648   -193647.41147                  20466654.0634
        32.2504         28.0004
  23717216.7194   -2403735.24646   -120813.60945                  23717227.6804
        12.5004         11.7504
  24608871.5554    2951459.13645   2299824.44545                  24608891.7384
        10.0004          9.7504
  21681367.8054   -2421697.93547  -1887033.77946                  21681377.9344
        26.5004         25.2504
  21132318.6174    1581995.65248   1232722.62547                  21132326.8594
        30.2504         27.5004
  21694697.9304   -2568534.27448  -2001453.96747                  21694705.9844
        29.7504         26.0004
 00  5  1 19 15 15.0000000  0  7G 4G 5G 6G 9G10G24G30
  23798699.1804    3203064.02246   2495891.26845                  23798708.8164
        12.2504         11.5004
  20466720.8984    -248123.06248   -193343.82147                  20466728.7074
        32.2504         28.0004
  23710402.3284   -2439544.20646   -148716.64546                  23710413.9804
        12.5004         12.2504
  24617025.4144    2994303.17545   2333209.19045                  24617046.5274
         9.5004         10.2504
  21675205.5004   -2454078.85547  -1912265.60846                  21675215.4654
        26.5004         25.0004
  21137150.5784    1607388.50748   1252509.25247                  21137158.7734
        30.5004         27.2504
  21688013.4614   -2603662.53148  -2028826.62147                  21688021.6334
        29.7504         25.7504
 00  5  1 19 15 30.0000000  0  7G 4G 5G 6G 9G10G24G30
  23807524.7734    3249444.71546   2532032.00145                  23807533.8134
        12.0004         10.7504
  20466819.2814    -247605.64848   -192940.66047                  20466827.2304
        32.2504         28.2504
  23703586.2664   -2475361.27646   -176626.00146                  23703598.4104
        12.5004         12.0004
  24625176.3364    3037137.94745   2366586.72745                  24625196.8134
         9.5004         10.2504
  21669066.5234   -2486340.69847  -1937404.65146                  21669076.8054
        26.7504         25.2504
  21141995.6254    1632847.97548   1272347.78947                  21142003.8554
        30.2504         27.2504
  21681346.4774   -2638697.40148  -2056126.49647                  21681354.7774
        29.7504         25.7504
 00  5  1 19 15 45.0000000  0  7G 4G 5G 6G 9G10G24G30
  23816350.7274    3295822.33645   2568170.36145                  23816359.4024
        11.7504         10.7504
  20466942.2814    -246959.18348   -192436.93847                  20466950.2194
        32.2504         28.2504
  23696768.9224   -2511187.96546   -204542.84546                  23696780.7734
        12.5004         12.2504
  24633325.5634    3079959.61845   2399954.06645                  24633346.3244
        10.0004         10.5004
  21662950.2664   -2518481.34347  -1962449.25146                  21662960.4654
        26.5004         25.2504
  21146852.6254    1658370.98548   1292235.83747                  21146860.8094
        30.2504         27.2504
  21674696.3444   -2673642.48548  -2083356.41147                  21674704.3754
        29.7504         26.0004
 00  5  1 19 16  0.0000000  0  7G 4G 5G 6G 9G10G24G30
  23825175.5784    3342197.14046   2604306.53045                  23825185.2384
        12.2504         11.2504
  20467090.3284    -246181.22148   -191830.75447                  20467098.0204
        32.2504         28.5004
  23689949.2734   -2547023.92346   -232466.89946                  23689960.8674
        12.5004         12.2504
  24641472.3284    3122770.21545   2433312.77745                  24641493.7934
         9.7504         10.0004
  21656857.4224   -2550498.96047  -1987397.98746                  21656867.7384
        26.5004         25.2504
  21151720.9924    1683954.52148   1312171.05247                  21151729.1054
        30.2504         27.2504
  21668064.1174   -2708494.93448  -2110514.14347                  21668072.3134
        29.7504         26.0004
 00  5  1 19 16 15.0000000  0  7G 4G 5G 6G 9G10G24G30
  23834000.5474    3388573.90246   2640444.20045                  23834009.6334
        12.0004         10.7504
  20467264.5864    -245266.58548   -191118.07047                  20467272.3834
        32.0004         28.2504
  23683128.5944   -2582866.32846   -260395.99646                  23683140.8324
        12.5004         13.0004
  24649617.0864    3165571.88945   2466664.50745                  24649637.4104
         9.2504          9.5004
  21650788.3444   -2582390.69047  -2012248.62846                  21650798.5554
        26.7504         25.5004
  21156601.9844    1709604.67648   1332158.17647                  21156610.1564
        30.2504         27.2504
  21661450.9224   -2743247.94448  -2137594.39047                  21661459.2464
        29.7504         25.7504
 00  5  1 19 16 30.0000000  0  7G 4G 5G 6G 9G10G24G30
  23842826.1334    3434952.02146   2676582.93645                  23842835.8874
        12.2504         11.0004
  20467464.6094    -244215.28148   -190298.89047                  20467472.5234
        32.2504         28.2504
  23676306.2114   -2618719.63346   -288333.59046                  23676317.8054
        12.7504         12.2504
  24657759.3204    3208360.01445   2500005.69545                  24657780.1294
         9.0004         10.0004
  21644742.5474   -2614162.71647  -2037005.99946                  21644752.6174
        26.7504         25.5004
  21161494.4384    1735314.95648   1352192.15247                  21161502.5864
        30.2504         27.2504
  21654856.3284   -2777902.46048  -2164597.89247                  21654864.7344
        30.0004         26.0004
 00  5  1 19 16 45.0000000  0  7G 4G 5G 6G 9G10G24G30
  23851651.9844    3481331.22846   2712722.55045                  23851661.9144
        12.5004         11.0004
  20467690.9384    -243024.89148   -189371.33347                  20467698.6414
        32.2504         28.2504
  23669481.2974   -2654583.61646   -316279.48946                  23669492.9734
        12.7504         12.7504
  24665899.0864    3251133.92645   2533335.77845                  24665920.1884
        10.0004         11.0004
  21638719.3364   -2645814.48847  -2061669.65546                  21638729.3484
        27.0004         25.5004
  21166397.9384    1761083.20748   1372271.29747                  21166406.0984
        30.2504         27.2504
  21648280.6564   -2812458.46348  -2191524.62647                  21648288.9224
        30.0004         26.0004
 00  5  1 19 17  0.0000000  0  7G 4G 5G 6G 9G10G24G30
  23860476.8674    3527706.10346   2748858.75345                  23860484.8404
        12.5004         10.7504
  20467943.2664    -241699.33748   -188338.45047                  20467950.9344
        32.2504         28.5004
  23662653.4774   -2690462.27946   -344236.83846                  23662665.2704
        12.5004         12.7504
  24674036.0314    3293889.54445   2566651.66445                  24674056.0864
        11.0004         11.0004
  21632718.3524   -2677349.34247  -2086242.21346                  21632728.3984
        27.0004         25.5004
  21171311.7664    1786905.60748   1392392.64147                  21171319.8794
        30.0004         27.0004
  21641723.1954   -2846918.13848  -2218376.30147                  21641731.5784
        30.0004         25.7504
 00  5  1 19 17 15.0000000  0  7G 4G 5G 6G 9G10G24G30
  23869299.8444    3574074.00346   2784989.54545                  23869308.9884
        12.5004         10.7504
  20468221.0164    -240240.03248   -187201.34847                  20468228.7894
        32.2504         28.2504
  23655823.5784   -2726355.94246   -372205.85446                  23655834.9844
        12.7504         13.0004
  24682168.1804    3336622.91945   2599950.21445                  24682189.7154
        11.5004         11.0004
  21626738.7034   -2708772.59947  -2110727.81246                  21626748.7624
        27.0004         25.5004
  21176235.6954    1812780.14848   1412554.61447                  21176243.9964
        29.7504         27.0004
  21635183.8914   -2881282.62748  -2245153.80547                  21635191.9924
        30.2504         26.0004
 00  5  1 19 17 30.0000000  0  7G 4G 5G 6G 9G10G24G30
  23878122.6174    3620435.47446   2821115.29445                  23878131.1994
        12.7504         10.5004
  20468523.5234    -238650.23648   -185962.55847                  20468531.4144
        32.2504         28.5004
  23648990.4534   -2762262.98246   -400185.29946                  23649002.5984
        12.2504         12.5004
  24690295.0164    3379331.10445   2633229.12545                  24690315.0704
        11.2504         10.7504
  21620780.0004   -2740085.26847  -2135127.23246                  21620789.9884
        27.2504         25.5004
  21181168.7894    1838704.96048   1432755.76147                  21181176.9734
        30.0004         26.7504
  21628662.2344   -2915553.86248  -2271858.63947                  21628670.2774
        30.2504         25.7504
 00  5  1 19 17 45.0000000  0  7G 4G 5G 6G 9G10G24G30
  23886943.3204    3666788.03646   2857234.17445                  23886952.9804
        13.0004         10.2504
  20468850.0234    -236934.81348   -184625.85147                  20468857.9264
        32.2504         28.2504
  23642154.6254   -2798186.61846   -428177.66046                  23642166.2774
        12.7504         13.0004
  24698416.0554    3422006.14745   2666482.24845                  24698436.2274
        11.2504         10.5004
  21614841.3134   -2771292.76447  -2159444.68047                  21614851.2664
        27.0004         25.7504
  21186111.1254    1864676.72748   1452993.52147                  21186119.3204
        29.7504         26.7504
  21622157.7734   -2949734.64148  -2298492.96847                  21622165.7934
        30.2504         26.0004
 00  5  1 19 18  0.0000000  0  7G 4G 5G 6G 9G10G24G30
  23895761.6254    3713127.45446   2893342.77145                  23895771.9064
        13.5004         11.2504
  20469199.6564    -235096.93548   -183193.76547                  20469207.5354
        32.2504         28.5004
  23635315.0164   -2834128.89546   -456184.57646                  23635327.4774
        13.0004         12.5004
  24706529.8134    3464642.44945   2699705.11245                  24706550.7624
        10.5004         10.5004
  21608921.6954   -2802401.01647  -2183684.82747                  21608931.6134
        27.2504         25.7504
  21191061.4144    1890690.95148   1473264.32947                  21191069.5984
        29.7504         26.5004
  21615670.1644   -2983826.47048  -2325058.01947                  21615678.4184
        30.2504         26.0004
 00  5  1 19 18 15.0000000  0  7G 4G 5G 6G 9G10G24G30
  23904576.7504    3759449.43046   2929437.74445                  23904586.9024
        13.5004         10.5004
  20469572.2504    -233139.64548   -181668.63047                  20469580.1644
        32.2504         28.5004
  23628471.5634   -2870090.06746   -484206.22246                  23628483.8834
        13.0004         13.0004
  24714635.6724    3507237.97645   2732896.25545                  24714657.0554
        10.2504          9.5004
  21603020.0394   -2833414.51047  -2207851.14447                  21603029.8284
        27.0004         25.7504
  21196019.8834    1916747.90648   1493568.43047                  21196028.1254
        29.7504         26.7504
  21609199.9224   -3017828.45248  -2351553.06247                  21609207.9414
        30.2504         26.2504
 00  5  1 19 18 30.0000000  0  7G 4G 5G 6G 9G10G24G30
  23913387.0864    3805749.48746   2965515.67745                  23913396.4534
        13.5004         10.7504
  20469966.6954    -231066.87748   -180053.50447                  20469974.5744
        32.2504         28.7504
  23621624.9614   -2906070.23346   -512242.66446                  23621637.5044
        13.2504         12.7504
  24722732.5554    3549788.36545   2766052.20045                  24722753.7624
        10.2504          9.5004
  21597135.6724   -2864337.47447  -2231946.90847                  21597145.4734
        27.2504         26.0004
  21200986.1884    1942845.02848   1513903.83647                  21200994.4774
        29.7504         26.7504
  21602745.6724   -3051746.02648  -2377982.32247                  21602753.6334
        30.5004         26.0004
 00  5  1 19 18 45.0000000  0  7G 4G 5G 6G 9G10G24G30
  23922192.1724    3852020.83946   3001571.23145                  23922200.8134
        14.0004         11.0004
  20470381.7504    -228885.95048   -178354.10347                  20470389.6994
        32.2504         28.5004
  23614774.0234   -2942071.20346   -540295.30946                  23614785.6644
        13.5004         13.5004
  24730820.7584    3592291.17345   2799171.06345                  24730840.7194
        10.2504          9.5004
  21591267.6414   -2895172.33347  -2255974.02347                  21591277.5354
        27.2504         26.0004
  21205959.5784    1968980.03248   1534268.76347                  21205967.8554
        29.7504         26.5004
  21596306.0234   -3085585.88548  -2404351.03447                  21596313.9144
        30.2504         26.0004
 00  5  1 19 19  0.0000000  0  7G 4G 5G 6G 9G10G24G30
  23930992.8914    3898267.38146   3037607.44945                  23931002.3284
        14.5004         11.0004
  20470817.2504    -226596.33148   -176570.00447                  20470825.3754
        32.2504         28.7504
  23607920.4694   -2978086.45746   -568359.08246                  23607932.2384
        13.7504         13.5004
  24738901.2814    3634753.94445   2832258.74745                  24738924.5634
         9.7504          9.7504
  21585418.3984   -2925911.26047  -2279926.38147                  21585428.1994
        27.2504         26.0004
  21210941.7894    1995162.31448   1554670.53047                  21210949.9844
        29.7504         26.5004
  21589882.2034   -3119342.85948  -2430655.14947                  21589890.3164
        30.2504         26.2504
 00  5  1 19 19 15.0000000  0  7G 4G 5G 6G 9G10G24G30
  23939786.9614    3944481.05546   3073618.07345                  23939795.0634
        13.5004         10.5004
  20471272.1174    -224207.26148   -174708.40947                  20471279.9964
        32.0004         28.5004
  23601063.1334   -3014121.12846   -596437.98246                  23601075.0084
        13.7504         13.2504
  24746972.5314    3677169.26945   2865309.44545                  24746995.2854
         9.5004          9.7504
  21579585.3834   -2956563.06947  -2303810.85647                  21579595.2194
        27.5004         26.0004
  21215931.7664    2021384.45748   1575103.35847                  21215939.7974
        30.0004         26.5004
  21583472.6484   -3153025.47848  -2456901.33147                  21583480.6564
        30.5004         26.0004
 00  5  1 19 19 30.0000000  0  7G 4G 5G 6G 9G10G24G30
  23948576.2424    3990669.53146   3109609.04545                  23948585.4344
        13.5004         10.7504
  20471746.4144    -221713.98348   -172765.61247                  20471754.1994
        31.7504         28.5004
  23594203.5164   -3050169.72846   -624527.76046                  23594215.2154
        14.0004         13.5004
  24755035.8984    3719540.98345   2898326.15045                  24755057.7854
         9.7504          9.0004
  21573770.7734   -2987119.76047  -2327621.20847                  21573780.5274
        27.5004         26.0004
  21220929.9064    2047650.14848   1595570.11547                  21220937.8444
        29.7504         26.5004
  21577078.0234   -3186629.87648  -2483086.55947                  21577086.1724
        30.5004         26.2504
 00  5  1 19 19 45.0000000  0  7G 4G 5G 6G 9G10G24G30
  23957360.3674    4036829.30246   3145577.64345                  23957369.3244
        13.2504         10.7504
  20472240.2034    -219119.85148   -170744.23647                  20472248.1644
        32.0004         28.5004
  23587340.2194   -3086236.97046   -652632.04246                  23587351.9064
        14.0004         13.7504
  24763090.3594    3761866.06845   2931306.55845                  24763110.7664
        10.0004          8.7504
  21567973.9694   -3017581.74247  -2351357.77347                  21567983.7584
        27.5004         26.2504
  21225935.4224    2073954.48048   1616066.98347                  21225943.5124
        29.5004         26.5004
  21570697.5314   -3220159.22548  -2509213.31147                  21570705.4694
        30.5004         26.0004
 00  5  1 19 20  0.0000000  0  7G 4G 5G 6G 9G10G24G30
  23966138.6174    4082961.85646   3181525.04045                  23966148.5944
        13.0004         10.7504
  20472753.8444    -216419.79648   -168640.31547                  20472761.8404
        32.0004         28.5004
  23580473.2424   -3122320.32446   -680748.88546                  23580484.3674
        14.2504         13.7504
  24771135.9224    3804148.41145   2964253.64545                  24771157.1414
         9.7504          8.5004
  21562195.8054   -3047946.12047  -2375018.28247                  21562205.7234
        27.5004         26.2504
  21230948.7504    2100299.23048   1636595.34647                  21230956.8284
        29.7504         26.5004
  21564332.4454   -3253608.59048  -2535277.74247                  21564340.4304
        30.5004         26.2504
 00  5  1 19 20 15.0000000  0  7G 4G 5G 6G 9G10G24G30
  23974912.2974    4129066.21746   3217450.48745                  23974921.4774
        12.7504          9.7504
  20473287.7974    -213614.55648   -166454.43747                  20473295.7814
        32.0004         28.5004
  23573604.3054   -3158417.85846   -708876.79446                  23573615.5594
        14.2504         13.7504
  24779175.1334    3846389.81545   2997168.86045                  24779197.3244
         9.2504          9.0004
  21556436.5004   -3078210.59847  -2398600.94447                  21556446.3714
        27.5004         26.2504
  21235969.8834    2126685.63748   1657156.16547                  21235978.0554
        29.7504         26.5004
  21557982.5864   -3286976.22448  -2561278.48047                  21557990.6174
        30.5004         26.5004
 00  5  1 19 20 30.0000000  0  7G 4G 5G 6G 9G10G24G30
  23983680.8364    4175143.73046   3253354.98245                  23983690.0514
        12.7504          9.7504
  20473840.8594    -210707.39448   -164189.13647                  20473848.6914
        32.2504         28.5004
  23566731.8444   -3194533.73946   -737018.97146                  23566743.4264
        14.2504         13.5004
  24787205.2194    3888589.19845   3030051.30545                  24787225.5554
         8.7504          8.0004
  21550696.6724   -3108373.53447  -2422104.48247                  21550706.6374
        27.2504         26.2504
  21240998.8914    2153113.17448   1677749.03447                  21241007.1094
        29.7504         26.5004
  21551647.5704   -3320266.72948  -2587219.11747                  21551655.5204
        30.7504         26.2504
 00  5  1 19 20 45.0000000  0  8G 4G 5G 6G17G 9G10G24G30
  23992444.8754    4221197.84246   3289241.28545                  23992453.9384
        12.5004         10.0004
  20474413.7424    -207698.34048   -161844.44247                  20474421.5744
        32.5004         28.5004
  23559855.2114   -3230670.78146   -765177.64746                  23559866.8054
        14.5004         13.7504
  25243732.9534     -44904.31045
        10.0004
  24795227.9924    3930747.10845   3062901.39445                  24795248.7894
         8.2504          7.5004
  21544976.4614   -3138433.52647  -2445527.80647                  21544986.0864
        27.2504         26.0004
  21246035.1024    2179579.60548   1698372.20947                  21246043.2624
        29.5004         26.5004
  21545327.2504   -3353482.06548  -2613101.19047                  21545335.2814
        31.0004         26.5004
 00  5  1 19 21  0.0000000  0  8G 4G 5G 6G17G 9G10G24G30
  24001204.2734    4267230.96646   3325111.17545                  24001214.1454
        12.5004         10.2504
  20475005.2584    -204589.20248   -159421.75547                  20475013.1024
        32.5004         28.7504
  23552973.6954   -3266832.53746   -793355.58346                  23552985.1024
        14.5004         13.5004
  25234577.3594     -93014.54545
         9.5004
  24803241.7344    3972863.46344   3095719.15745                  24803264.4884
         6.7504          7.2504
  21539275.8674   -3168390.33947  -2468870.73447                  21539285.6214
        27.2504         26.2504
  21251078.0314    2206079.58548   1719021.52947                  21251086.1094
        29.7504         26.5004
  21539020.6954   -3386621.95048  -2638924.46347                  21539028.6914
        31.0004         26.7504
 00  5  1 19 21 15.0000000  0  8G 4G 5G 6G17G 9G10G24G30
  24009960.6804    4313246.29145   3360967.22345                  24009969.6134
        11.7504         10.0004
  20475617.2194    -201374.52048   -156916.83247                  20475625.0164
        32.5004         28.5004
  23546087.7194   -3303017.05646   -821551.26246                  23546099.3014
        14.2504         13.7504
  25225424.5234    -141115.56845
         8.2504
  24811249.5704    4014940.20144   3128506.03645                  24811270.1054
         6.2504          6.5004
  21533595.0164   -3198243.01647  -2492132.51147                  21533604.9104
        27.2504         26.2504
  21256126.9454    2232611.69748   1739695.88647                  21256135.0594
        30.0004         26.2504
  21532729.4064   -3419682.53948  -2664685.95047                  21532737.3444
        31.2504         26.7504
 00  5  1 19 21 30.0000000  0  8G 4G 5G 6G17G 9G10G24G30
  24018713.0084    4359240.33645   3396806.69345                  24018722.0704
        11.5004         10.2504
  20476248.9774    -198054.12548   -154329.53147                  20476256.8914
        32.2504         28.7504
  23539196.9224   -3339229.89146   -849768.99846                  23539208.9844
        14.5004         13.7504
  25216271.9384    -189208.35045     -2496.51455                  25216297.0354
         7.7504          8.0004
  24819248.2194    4056971.85844   3161257.82245                  24819269.9184
         6.5004          6.0004
  21527932.9614   -3227996.53247  -2515317.02647                  21527942.7974
        27.2504         26.2504
  21261180.9614    2259170.76648   1760391.25047                  21261189.0984
        29.7504         26.2504
  21526452.8914   -3452667.38248  -2690388.41247                  21526460.8284
        31.2504         26.7504
 00  5  1 19 21 45.0000000  0  8G 4G 5G 6G17G 9G10G24G30
  24027462.1804    4405215.91145   3432631.76445                  24027471.0084
        11.2504          9.7504
  20476901.6884    -194624.15248   -151656.84447                  20476909.7304
        32.7504         28.7504
  23532300.0474   -3375472.26146   -878009.74746                  23532312.0634
        14.5004         13.7504
  25207122.3834    -237289.87045    -39962.44045                  25207145.7344
         7.5004          6.7504
  24827238.1804    4098960.95844   3193976.34045                  24827260.2544
         6.5004          7.7504
  21522290.5864   -3257648.03147  -2538422.04047                  21522300.3164
        27.0004         26.5004
  21266240.5704    2285758.46548   1781108.91847                  21266248.8244
        30.0004         26.5004
  21520191.2344   -3485572.22548  -2716028.53547                  21520199.3364
        31.2504         26.7504
 00  5  1 19 22  0.0000000  0  8G 4G 5G 6G17G 9G10G24G30
  24036206.2274    4451167.05845   3468437.80745                  24036216.4964
        11.2504         10.0004
  20477574.2894    -191089.19048   -148902.34647                  20477582.3204
        32.5004         28.7504
  23525397.1484   -3411747.19546   -906275.87846                  23525408.4614
        14.5004         14.0004
  25197974.8524    -285360.49644    -77419.94545                  25197999.3874
         7.2504          7.0004
  24835220.3204    4140906.92044   3226661.31445                  24835243.2034
         6.7504          7.2504
  21516666.2584   -3287203.40647  -2561452.15547                  21516676.2344
        27.0004         26.2504
  21271305.1094    2312373.39348   1801847.81147                  21271313.4224
        30.0004         26.5004
  21513944.3444   -3518398.91148  -2741607.75847                  21513952.3164
        31.2504         26.7504
 00  5  1 19 22 15.0000000  0  8G 4G 5G 6G17G 9G10G24G30
  24044946.3594    4497097.69845   3504227.88445                  24044956.1604
        11.0004          9.7504
  20478267.1564    -187449.12848   -146065.95047                  20478275.1294
        32.5004         28.7504
  23518488.3204   -3448051.75946   -934565.08346                  23518499.3634
        14.5004         13.5004
  25188830.1884    -333416.89344   -114866.26345                  25188855.4144
         6.5004          6.7504
  24843195.1414    4182813.26044   3259315.44745                  24843216.4884
         6.5004          6.7504
  21511060.8364   -3316660.58147  -2584405.74747                  21511070.7664
        27.0004         26.2504
  21276375.7504    2339018.87748   1822610.51147                  21276384.0044
        30.0004         26.2504
  21507712.8204   -3551146.66148  -2767125.46847                  21507720.7464
        31.2504         26.7504
 00  5  1 19 22 30.0000000  0  8G 4G 5G 6G17G 9G10G24G30
  24053683.3984    4543011.40445   3540004.76445                  24053693.4574
        10.7504          9.5004
  20478979.9304    -183703.47748   -143147.26147                  20478987.7624
        32.2504         28.5004
  23511574.7584   -3484383.89946   -962875.77746                  23511586.0704
        14.5004         14.0004
  25179687.4304    -381459.10143   -152301.59845                  25179711.8134
         6.0004          6.5004
  24851162.1414    4224679.93344   3291938.61945                  24851184.8134
         7.0004          8.2504
  21505474.0474   -3346018.46047  -2607281.95747                  21505483.8954
        27.0004         26.5004
  21281451.7894    2365695.63548   1843397.59347                  21281459.8554
        29.7504         26.2504
  21501496.1174   -3583815.48848  -2792581.66947                  21501504.0204
        31.5004         26.7504
 00  5  1 19 22 45.0000000  0  8G 4G 5G 6G17G 9G10G24G30
  24062417.0394    4588906.06445   3575766.77445                  24062427.5554
        10.5004         10.0004
  20479712.8754    -179850.93048   -140145.30147                  20479720.5904
        32.2504         28.5004
  23504655.3054   -3520745.47646   -991209.42346                  23504666.7814
        14.5004         13.7504
  25170547.1724    -429488.40043   -189726.86845                  25170572.2814
         6.0004          5.5004
  24859121.3754    4266504.80745   3324529.21645                  24859144.8094
         7.5004          8.7504
  21499906.0164   -3375278.77247  -2630082.15947                  21499915.7704
        27.0004         26.5004
  21286534.0864    2392401.02548   1864206.96847                  21286542.2234
        30.0004         26.2504
  21495294.5474   -3616404.56548  -2817975.74947                  21495302.4494
        31.5004         26.7504
 00  5  1 19 23  0.0000000  0  8G 4G 5G 6G17G 9G10G24G30
  24071146.9774    4634780.46245   3611512.97345                  24071156.8364
        10.2504         10.0004
  20480466.7664    -175889.79048   -137058.74847                  20480474.7274
        32.2504         28.7504
  23497730.4844   -3557133.31946  -1019563.54246                  23497742.3484
        14.5004         13.7504
  25161409.8914    -477505.21843   -227142.33445                  25161431.3794
         5.2504          5.5004
  24867072.9774    4308287.13945   3357086.64445                  24867094.8984
         8.7504         10.0004
  21494356.3524   -3404441.14547  -2652806.07147                  21494366.1764
        27.0004         26.5004
  21291621.1484    2419134.06448   1885037.86147                  21291629.2854
        30.0004         26.2504
  21489109.4454   -3648907.22848  -2843302.51347                  21489117.3244
        31.2504         26.7504
 00  5  1 19 23 15.0000000  0  8G 4G 5G 6G17G 9G10G24G30
  24079871.2344    4680628.06145   3647238.33145                  24079880.6374
        10.5004          9.7504
  20481241.3444    -171819.16148   -133886.84547                  20481249.3284
        32.5004         28.7504
  23490801.4614   -3593547.93146  -1047938.50646                  23490812.6804
        14.5004         14.0004
  25152274.7114    -525510.51843   -264548.97645                  25152296.0824
         5.7504          5.0004
  24875014.9614    4350021.80145   3389606.99645                  24875037.8674
         9.0004          9.5004
  21488825.4774   -3433506.48847  -2675454.34047                  21488835.4064
        27.0004         26.2504
  21296713.7034    2445896.05448   1905891.35047                  21296721.9924
        30.0004         26.2504
  21482941.1724   -3681322.11148  -2868560.84447                  21482949.1334
        31.2504         26.7504
 00  5  1 19 23 30.0000000  0  8G 4G 5G 6G17G 9G10G24G30
  24088590.5084    4726446.51945   3682940.97745                  24088600.0394
        10.7504          9.7504
  20482037.4384    -167636.65848   -130627.77547                  20482045.4344
        32.5004         28.7504
  23483867.0394   -3629988.07046  -1076333.36446                  23483878.7034
        14.5004         14.0004
  25143141.7034    -573502.88143   -301945.49345                  25143164.5164
         5.0004          4.7504
  24882947.1334    4391705.78745   3422087.81845                  24882969.4414
         9.0004         10.0004
  21483313.5554   -3462472.39947  -2698025.13547                  21483323.3444
        27.0004         26.2504
  21301812.4844    2472690.36748   1926770.01247                  21301820.7734
        30.0004         26.2504
  21476789.3054   -3713649.94648  -2893751.35247                  21476797.1374
        31.2504         27.0004
 00  5  1 19 23 45.0000000  0  8G 4G 5G 6G17G 9G10G24G30
  24097304.3754    4772238.78645   3718623.20245                  24097314.3754
        10.7504          9.7504
  20482854.7344    -163341.19848   -127280.68547                  20482862.7194
        32.5004         28.7504
  23476927.8754   -3666452.26046  -1104746.96546                  23476939.6094
        14.2504         14.2504
  25134012.1254    -621479.32643   -339329.49545                  25134031.3714
         5.7504          4.5004
  24890869.9844    4433339.04145   3454529.13045                  24890892.6914
         8.5004          9.5004
  21477821.5164   -3491332.80247  -2720513.72347                  21477831.3404
        26.7504         26.2504
  21306917.8524    2499519.91948   1947676.13847                  21306926.1644
        30.0004         26.5004
  21470654.6804   -3745888.13148  -2918872.00547                  21470662.5594
        31.2504         27.0004
 00  5  1 19 24  0.0000000  0  8G 4G 5G 6G17G 9G10G24G30
  24106012.8284    4818000.87345   3754281.90445                  24106022.7234
        11.0004         10.0004
  20483692.8204    -158936.95048   -123848.83347                  20483700.9694
        32.5004         29.0004
  23469984.1564   -3702941.32146  -1133179.92946                  23469996.2194
        14.2504         14.0004
  25124884.3914    -669441.70542   -376702.70845                  25124908.9844
         4.5004          4.7504
  24898782.3594    4474918.12745   3486928.19445                  24898806.1684
         8.7504          9.5004
  21472349.6024   -3520087.51547  -2742919.94547                  21472359.5434
        27.0004         26.5004
  21312030.2034    2526383.67048   1968608.91447                  21312038.4804
        30.2504         26.5004
  21464536.3674   -3778040.44948  -2943925.74447                  21464544.2344
        31.2504         26.7504
 00  5  1 19 24 15.0000000  0  8G 4G 5G 6G17G 9G10G24G30
  24114714.8204    4863731.15845   3789915.84245                  24114725.0904
        11.2504         10.0004
  20484551.4774    -154424.42148   -120332.60047                  20484559.5664
        32.2504         28.7504
  23463036.3134   -3739453.06046  -1161630.56946                  23463047.8244
        14.2504         14.0004
  25115760.6884    -717389.60842   -414064.48545                  25115784.2734
         4.5004          5.5004
  24906683.4534    4516438.85345   3519281.82445                  24906705.9844
         9.2504         10.5004
  21466898.0944   -3548735.26847  -2765242.83147                  21466907.8134
        26.7504         26.2504
  21317148.8444    2553281.70348   1989568.40447                  21317157.0274
        30.0004         26.2504
  21458433.8364   -3810108.02948  -2968913.45447                  21458441.6804
        31.2504         27.0004
 00  5  1 19 24 30.0000000  0  8G 4G 5G 6G17G 9G10G24G30
  24123411.7194    4909431.04345   3825526.10845                  24123421.0744
        11.5004         10.0004
  20485432.0704    -149796.93048   -116726.78747                  20485440.1484
        32.5004         28.7504
  23456084.4064   -3775984.20446  -1190096.36046                  23456095.1334
        14.5004         14.0004
  25106638.6414    -765322.03742   -451414.32145                  25106663.1884
         4.5004          5.7504
  24914573.4454    4557900.95445   3551589.76145                  24914596.0824
        10.0004         10.2504
  21461467.3524   -3577272.27247  -2787479.41547                  21461477.1054
        27.0004         26.7504
  21322274.2274    2580216.80248   2010556.77547                  21322282.4454
        30.2504         26.2504
  21452348.6644   -3842087.07548  -2993832.18247                  21452356.6134
        31.5004         27.2504
 00  5  1 19 24 45.0000000  0  8G 4G 5G 6G17G 9G10G24G30
  24132101.8834    4955100.05445   3861112.28945                  24132111.0394
        11.7504         10.7504
  20486335.1024    -145051.79348   -113029.30347                  20486343.0394
        32.2504         28.7504
  23449129.0634   -3812535.62546  -1218577.91946                  23449140.6914
        14.5004         13.7504
  25097521.0234    -813238.67942   -488751.63445                  25097545.1254
         4.7504          6.0004
  24922452.6564    4599305.81645   3583853.08945                  24922476.6054
        11.2504         11.2504
  21456058.5634   -3605697.59047  -2809628.97647                  21456068.3284
        27.0004         26.5004
  21327407.4694    2607191.55848   2031576.04347                  21327415.6414
        30.2504         26.5004
  21446280.5474   -3873974.37148  -3018679.41147                  21446288.5434
        31.7504         27.0004
 00  5  1 19 25  0.0000000  0  8G 4G 5G 6G17G 9G10G24G30
  24140784.9384    5000727.72645   3896666.26245                  24140795.5944
        11.7504         10.0004
  20487259.4694    -140195.11648   -109244.90347                  20487267.5004
        32.2504         28.5004
  23442168.4144   -3849113.90246  -1247080.41046                  23442179.6334
        14.5004         13.7504
  25088403.7194    -861146.90243   -526082.59545                  25088420.9844
         5.2504          6.5004
  24930319.9304    4640645.64145   3616065.76345                  24930342.7424
        11.2504         11.2504
  21450668.7814   -3634019.51747  -2831697.96447                  21450678.5704
        27.0004         26.5004
  21332547.2974    2634201.08848   2052622.41447                  21332555.4694
        30.2504         26.2504
  21440228.5634   -3905777.46048  -3043461.02547                  21440236.4534
        31.7504         27.2504
 00  5  1 19 25 15.0000000  0  8G 4G 5G 6G17G 9G10G24G30
  24149459.8284    5046315.68146   3932189.28645                  24149469.8634
        12.2504         10.0004
  20488205.0784    -135224.73648   -105371.90447                  20488213.0864
        32.2504         28.7504
  23435203.3444   -3885716.07446  -1275601.53646                  23435215.1024
        14.5004         13.7504
  25079290.3834    -909043.05043   -563404.09345                  25079313.6994
         6.0004          6.5004
  24938175.2034    4681924.01345   3648230.55545                  24938198.1684
        11.0004         11.2504
  21445299.8524   -3662234.34347  -2853683.50347                  21445309.5124
        27.2504         26.5004
  21337694.6414    2661250.26648   2073699.67647                  21337702.9774
        30.2504         26.5004
  21434192.6414   -3937497.01248  -3068177.54447                  21434200.4494
        31.5004         27.2504
 00  5  1 19 25 30.0000000  0  8G 4G 5G 6G17G 9G10G24G30
  24158127.5704    5091863.72946   3967681.21145                  24158137.2424
        12.2504         10.5004
  20489172.7664    -130140.44348   -101410.14247                  20489180.6684
        32.0004         28.5004
  23428234.1174   -3922339.61246  -1304139.29546                  23428245.4884
        14.5004         13.7504
  25070178.3834    -956926.74344   -600715.94545                  25070199.6604
         6.7504          7.5004
  24946018.3284    4723143.22445   3680349.23345                  24946040.0394
         9.7504         10.7504
  21439951.4384   -3690340.39447  -2875584.28047                  21439961.1914
        27.0004         26.7504
  21342849.4924    2688339.95548   2094808.50347                  21342857.8284
        30.2504         26.5004
  21428171.7894   -3969136.47448  -3092831.65747                  21428179.6454
        31.7504         27.0004
 00  5  1 19 25 45.0000000  0  8G 4G 5G 6G17G 9G10G24G30
  24166787.5634    5137373.25346   4003143.14645                  24166796.7544
        12.2504         10.2504
  20490161.4614    -124944.78248    -97361.59947                  20490169.4924
        32.2504         28.7504
  23421260.5164   -3958985.92046  -1332694.79346                  23421271.6884
        14.2504         13.5004
  25061068.2504   -1004799.52745   -638019.18145                  25061092.3404
         7.5004          8.2504
  24953851.6094    4764305.31145   3712423.39245                  24953875.3484
        10.5004         10.2504
  21434623.1724   -3718340.16147  -2897402.24047                  21434632.8914
        27.0004         26.5004
  21348011.6804    2715467.46348   2115946.80447                  21348019.8634
        30.2504         26.7504
  21422165.9844   -4000696.42048  -3117423.81747                  21422173.8754
        31.7504         27.2504
 00  5  1 19 26  0.0000000  0  8G 4G 5G 6G17G 9G10G24G30
  24175441.8204    5182850.05546   4038579.56545                  24175451.7274
        12.7504         10.5004
  20491171.7194    -119636.11448    -93224.99947                  20491179.8204
        32.2504         28.7504
  23414283.6564   -3995649.41646  -1361263.70446                  23414294.4304
        14.2504         13.7504
  25051959.9454   -1052660.79545   -675313.53145                  25051985.6054
         7.7504          8.5004
  24961675.4144    4805416.30745   3744457.75245                  24961698.3324
        11.0004         10.7504
  21429315.4454   -3746233.00947  -2919136.88847                  21429325.1524
        27.2504         26.7504
  21353181.5234    2742635.78348   2137116.90547                  21353189.7664
        30.0004         26.5004
  21416176.2814   -4032173.12348  -3141951.10347                  21416184.4184
        31.5004         27.5004
 00  5  1 19 26 15.0000000  0  8G 4G 5G 6G17G 9G10G24G30
  24184088.3204    5228289.15046   4073986.61945                  24184098.0744
        12.5004         10.5004
  20492202.0704    -114221.35048    -89005.72347                  20492210.1604
        32.2504         28.7504
  23407302.8674   -4032333.19346  -1389848.41146                  23407314.8484
        14.2504         13.5004
  25042852.9064   -1100518.22445   -712604.85745                  25042877.0904
         8.2504          9.0004
  24969488.1174    4846472.92145   3776449.76345                  24969510.9774
        11.0004         10.7504
  21424025.7974   -3774028.77247  -2940795.88247                  21424035.5864
        27.7504         26.5004
  21358358.1414    2769837.69348   2158313.18047                  21358366.3134
        30.0004         26.2504
  21410201.3594   -4063571.70548  -3166417.51747                  21410209.2624
        31.7504         27.2504
 00  5  1 19 26 30.0000000  0  8G 4G 5G 6G17G 9G10G24G30
  24192728.7584    5273694.84446   4109367.59845                  24192739.0744
        12.7504         10.0004
  20493253.6174    -108696.12448    -84700.37847                  20493261.6844
        32.5004         28.7504
  23400318.7894   -4069033.79146  -1418446.21146                  23400330.5594
        14.5004         13.7504
  25033746.8444   -1148369.98745   -749891.83845                  25033769.4224
         8.5004          8.7504
  24977291.9774    4887479.23845   3808402.52645                  24977315.3754
        10.7504         11.0004
  21418755.6024   -3801724.37447  -2962376.82747                  21418765.3094
        27.2504         26.5004
  21363541.1254    2797074.08448   2179536.32047                  21363549.3324
        30.0004         26.2504
  21404242.6724   -4094885.66548  -3190817.99547                  21404250.6804
        32.0004         27.5004
 00  5  1 19 26 45.0000000  0  8G 4G 5G 6G17G 9G10G24G30
  24201363.0944    5319068.95446   4144724.00745                  24201372.7194
        12.7504         10.5004
  20494325.7194    -103062.03548    -80310.20847                  20494333.7274
        32.2504         28.7504
  23393331.3134   -4105753.36946  -1447058.81546                  23393343.0824
        14.7504         14.0004
  25024642.0394   -1196217.41445   -787175.38745                  25024665.3794
         9.0004          9.7504
  24985086.0164    4928437.35445   3840317.79145                  24985108.5704
        10.5004         10.7504
  21413504.0164   -3829320.46247  -2983880.23747                  21413513.6414
        27.5004         26.7504
  21368730.2194    2824342.76348   2200784.61847                  21368738.4494
        30.0004         26.2504
  21398299.5004   -4126116.31648  -3215153.55647                  21398307.4264
        31.7504         27.2504
 00  5  1 19 27  0.0000000  0  8G 4G 5G 6G17G 9G10G24G30
  24209992.1094    5364411.09546   4180055.49045                  24210002.7774
        12.7504         10.5004
  20495418.1644     -97321.18648    -75836.84147                  20495426.0434
        32.2504         28.7504
  23386339.5864   -4142491.90246  -1475686.18546                  23386350.8634
        14.7504         14.0004
  25015537.4844   -1244060.04145   -824455.20945                  25015559.7234
         8.7504          9.5004
  24992871.1724    4969347.07545   3872195.27045                  24992893.4454
         9.2504         10.2504
  21408271.7814   -3856815.57547  -3005304.95747                  21408281.4534
        27.2504         26.5004
  21373924.8524    2851641.14748   2222056.07047                  21373933.1994
        30.0004         26.2504
  21392372.0704   -4157264.61348  -3239424.94347                  21392380.1024
        31.7504         27.2504
 00  5  1 19 27 15.0000000  0  8G 4G 5G 6G17G 9G10G24G30
  24218613.7974    5409720.54346   4215361.50045                  24218622.0634
        13.0004         10.2504
  20496530.9304     -91473.16148    -71279.96147                  20496538.8914
        32.5004         28.7504
  23379345.4844   -4179248.60646  -1504327.70846                  23379356.8204
        14.7504         14.2504
  25006434.3914   -1291896.72645   -861730.37045                  25006457.8364
         8.2504          9.2504
  25000645.6724    5010208.09045   3904034.81045                  25000669.2234
         7.7504          9.5004
  21403059.4454   -3884207.06347  -3026648.93047                  21403069.0824
        27.2504         26.5004
  21379124.5084    2878965.25748   2243347.56747                  21379132.7974
        30.0004         26.2504
  21386460.4534   -4188330.46448  -3263632.08647                  21386468.5204
        32.0004         27.7504
 00  5  1 19 27 30.0000000  0  8G 4G 5G 6G17G 9G10G24G30
  24227230.3134    5455000.82746   4250644.79045                  24227239.5744
        12.5004         10.0004
  20497663.7734     -85519.93248    -66641.10647                  20497671.7934
        32.2504         28.7504
  23372347.1954   -4216024.41346  -1532984.14546                  23372357.8054
        15.0004         14.0004
  24997332.8984   -1339726.37545   -899000.09945                  24997357.2464
         8.0004          9.2504
  25008413.1254    5051023.37244   3935838.75145                  25008436.6294
         6.5004          8.2504
  21397867.0234   -3911493.14547  -3047910.77447                  21397876.6024
        27.2504         26.7504
  21384328.4924    2906312.51748   2264657.10147                  21384336.7814
        30.0004         26.0004
  21380564.9224   -4219311.78248  -3287773.35947                  21380572.8364
        31.7504         27.5004
 00  5  1 19 27 45.0000000  0  8G 4G 5G 6G17G 9G10G24G30
  24235842.0554    5500253.77246   4285906.78445                  24235851.6914
        12.2504          9.7504
  20498816.8204     -79461.60348    -61920.34947                  20498824.9224
        32.2504         29.0004
  23365345.0234   -4252822.05546  -1561657.55246                  23365356.1954
        15.0004         14.2504
  24988231.7194   -1387550.02745   -936265.10645                  24988255.7384
         7.7504          9.0004
  25016171.2814    5091792.61544   3967606.77545                  25016192.7344
         6.7504          8.0004
  21392694.6644   -3938674.22047  -3069090.79047                  21392704.2424
        27.2504         26.5004
  21389536.1484    2933679.26648   2285981.82147                  21389544.5904
        29.7504         26.0004
  21374685.6564   -4250207.08148  -3311847.60447                  21374693.5944
        31.7504         27.5004
 00  5  1 19 28  0.0000000  0  8G 4G 5G 6G17G 9G10G24G30
  24244448.5704    5545483.01045   4321150.28645                  24244458.2774
        11.5004          9.2504
  20499990.2894     -73295.04048    -57115.26147                  20499998.4144
        32.2504         28.7504
  23358337.8364   -4289642.85746  -1590349.04146                  23358349.1954
        15.0004         14.5004
  24979132.4454   -1435363.40645   -973522.13945                  24979154.7894
         7.5004          8.5004
  25023921.8284    5132519.41444   3999341.76245                  25023946.7504
         7.0004          7.7504
  21387542.9454   -3965747.52647  -3090186.83247                  21387552.6414
        27.2504         26.5004
  21394748.4304    2961069.31948   2307324.70347                  21394756.7544
        29.5004         26.0004
  21368823.5784   -4281012.76648  -3335852.02247                  21368831.5274
        31.7504         27.5004
 00  5  1 19 28 15.0000000  0  8G 4G 5G 6G17G 9G10G24G30
  24253049.9144    5590683.30145   4356371.26745                  24253059.2584
        11.5004          9.2504
  20501184.1644     -67021.29348    -52226.64647                  20501192.2194
        32.2504         28.7504
  23351326.1414   -4326489.59746  -1619060.72246                  23351337.5354
        15.0004         14.5004
  24970036.3984   -1483166.53245  -1010771.18645                  24970060.1254
         8.7504          9.5004
  25031662.8594    5173200.59543   4031041.19145                  25031685.0394
         6.0004          6.7504
  21382411.1564   -3992713.39747  -3111199.15547                  21382420.8164
        27.2504         26.7504
  21399964.6954    2988481.29648   2328684.66747                  21399972.7974
        29.5004         26.0004
  21362978.5314   -4311729.79148  -3359787.34447                  21362986.4694
        32.0004         27.5004
 00  5  1 19 28 30.0000000  0  8G 4G 5G 6G17G 9G10G24G30
  24261645.3444    5635852.65245   4391568.10745                  24261656.2584
        11.2504          9.2504
  20502399.8524     -60633.44348    -47249.11647                  20502408.0124
        32.2504         29.0004
  23344309.3834   -4363363.30346  -1647793.42246                  23344320.2384
        15.0004         14.5004
  24960942.9694   -1530955.31545  -1048009.01045                  24960966.7544
         8.5004         10.2504
  25039395.3284    5213835.25343   4062704.39045                  25039417.0984
         5.5004          5.0004
  21377301.3834   -4019566.66547  -3132123.73347                  21377311.0084
        27.7504         26.7504
  21405185.9144    3015919.13248   2350064.78447                  21405194.0044
        30.0004         26.0004
  21357151.4534   -4342351.28048  -3383648.22647                  21357159.3554
        31.7504         27.2504
 00  5  1 19 28 45.0000000  0  8G 4G 5G 6G17G 9G10G24G30
  24270229.5234    5680963.22345   4426719.16445                  24270238.7034
        10.7504          9.0004
  20503632.3914     -54155.78948    -42201.58947                  20503640.6334
        32.2504         28.7504
  23337281.8674   -4400292.63546  -1676569.43446                  23337292.8284
        15.2504         14.5004
  24951846.9774   -1578754.12045  -1085254.64745                  24951869.2154
         8.7504          9.7504
  25047114.0084    5254396.49443   4094310.39945                  25047137.6054
         5.2504          5.0004
  21372207.9454   -4046332.83847  -3152980.42347                  21372217.4774
        27.2504         26.7504
  21410407.7734    3043359.20048   2371446.66747                  21410416.0514
        29.7504         26.2504
  21351337.5394   -4372902.56248  -3407454.37647                  21351345.3014
        32.0004         27.2504
 00  5  1 19 29  0.0000000  0  8G 4G 5G 6G17G 9G10G24G30
  24278803.7034    5726018.50345   4461827.08645                  24278813.1524
        10.5004          8.5004
  20504883.1804     -47582.84548    -37079.87847                  20504891.2704
        32.2504         28.7504
  23330245.0474   -4437272.40246  -1705384.81846                  23330256.2074
        15.5004         15.0004
  24942750.0004   -1626556.12845  -1122502.83945                  24942773.0004
         8.2504         10.0004
  25054820.4614    5294890.79442   4125864.22945                  25054842.6294
         4.5004          5.5004
  21367132.1414   -4073005.92947  -3173764.65147                  21367141.5904
        27.2504         26.5004
  21415631.2274    3070808.95148   2392836.01547                  21415639.5164
        29.5004         26.0004
  21345538.0944   -4403379.08248  -3431202.34347                  21345546.1484
        32.2504         27.5004
 00  5  1 19 29 15.0000000  0  8G 4G 5G 6G17G 9G10G24G30
  24287372.8524    5771049.03745   4496915.79945                  24287382.5594
        10.7504          9.0004
  20506158.4064     -40882.49248    -31858.85847                  20506166.4384
        32.2504         28.7504
  23323204.5474   -4474269.49646  -1734213.68246                  23323215.3094
        15.7504         15.0004
  24933659.6024   -1674328.19645  -1159727.68445                  24933682.8594
         8.7504         10.0004
  25062519.1174    5335348.79242   4157389.79245                  25062539.0554
         4.2504          4.7504
  21362079.8834   -4099554.65847  -3194451.94147                  21362089.5084
        27.2504         26.7504
  21420862.5394    3098300.23748   2414257.76747                  21420871.0634
        29.2504         26.0004
  21339758.9694   -4433746.87248  -3454865.55047                  21339766.8484
        32.2504         27.5004
 00  5  1 19 29 30.0000000  0  8G 4G 5G 6G17G 9G10G24G30
  24295936.7584    5816052.91445   4531983.69545                  24295948.3284
        10.0004          8.5004
  20507456.5234     -34060.57448    -26543.10247                  20507464.6134
        32.2504         28.7504
  23316160.1024   -4511288.38346  -1763059.50446                  23316170.9104
        16.0004         14.7504
  24924574.0314   -1722074.62945  -1196932.55845                  24924596.7854
         8.0004          9.2504
  25070210.1724    5375764.87742   4188882.61845                  25070229.5004
         4.5004          4.5004
  21357050.4144   -4125984.46647  -3215046.56147                  21357059.9344
        27.5004         26.7504
  21426100.8984    3125828.69548   2435708.49547                  21426109.3754
        29.0004         25.7504
  21334000.4774   -4464008.98848  -3478446.40647                  21334008.2154
        32.2504         27.5004
 00  5  1 19 29 45.0000000  0  8G 4G 5G 6G17G 9G10G24G30
  24304495.4844    5861028.67945   4567029.71545                  24304503.3054
         9.5004          8.2504
  20508777.2814     -27119.90148    -21134.81347                  20508785.2544
        32.0004         28.5004
  23309110.6564   -4548332.74646  -1791925.20146                  23309121.8404
        16.0004         15.0004
  24915491.8834   -1769798.67445  -1234119.95045                  24915514.2734
         8.0004          8.7504
  25077892.5704    5416133.02443   4220338.11445                  25077912.0744
         5.0004          5.2504
  21352042.7114   -4152300.04347  -3235552.16447                  21352052.1374
        27.7504         26.7504
  21431346.1174    3153392.62048   2457186.85547                  21431354.6884
        29.0004         25.7504
  21328261.8054   -4494166.41848  -3501945.69247                  21328269.6484
        32.2504         27.5004
 00  5  1 19 30  0.0000000  0  8G 4G 5G 6G17G 9G10G24G30
  24313047.5634    5905973.53445   4602051.60545                  24313056.6024
         9.0004          7.7504
  20510121.2114     -20058.17848    -15632.20147                  20510129.4304
        31.7504         28.7504
  23302056.9844   -4585401.14546  -1820809.61146                  23302068.4024
        16.2504         15.2504
  24906414.4694   -1817500.74445  -1271290.25145                  24906437.0354
         7.5004          8.7504
  25085564.5004    5456447.72343   4251752.04145                  25085584.8714
         5.7504          4.5004
  21347056.7344   -4178502.52347  -3255969.64947                  21347065.9384
        27.7504         26.5004
  21436598.2894    3180991.56348   2478692.50247                  21436606.6604
        29.0004         25.7504
  21322542.5164   -4524222.53448  -3525366.02947                  21322550.2894
        32.0004         27.5004
 00  5  1 19 30 15.0000000  0  8G 4G 5G 6G17G 9G10G24G30
  24321593.8754    5950882.81545   4637045.79645                  24321601.9774
         9.0004          7.7504
  20511487.0084     -12880.44848    -10039.18447                  20511495.1564
        31.7504         28.7504
  23294998.0704   -4622493.91246  -1849713.00046                  23295009.1844
        16.2504         15.2504
  24897339.6484   -1865186.67845  -1308447.95545                  24897361.8984
         7.5004          8.0004
  25093223.3524    5496699.17243   4283116.57844                  25093245.2154
         5.0004          4.2504
  21342090.9064   -4204597.90347  -3276303.67347                  21342100.2974
        27.7504         26.7504
  21441855.8914    3208621.12948   2500222.01647                  21441864.3674
        28.7504         25.7504
  21316841.4144   -4554180.28248  -3548709.71547                  21316849.3054
        32.2504         27.7504
 00  5  1 19 30 30.0000000  0  8G 4G 5G 6G17G 9G10G24G30
  24330133.8674    5995760.18445   4672015.09045                  24330143.1644
         9.0004          7.2504
  20512874.8524      -5587.57448     -4356.45147                  20512883.0704
        31.7504         29.0004
  23287936.2034   -4659604.88646  -1878630.59646                  23287947.5514
        16.2504         15.5004
  24888267.8364   -1912855.78444  -1345592.51545                  24888289.3484
         7.2504          8.2504
  25100871.6174    5536885.87043   4314430.77245                  25100896.2934
         5.7504          5.2504
  21337145.4614   -4230586.13747  -3296554.20947                  21337154.8984
        27.7504         27.0004
  21447119.1804    3236279.82348   2521774.22846                  21447127.5394
        29.0004         25.5004
  21311159.9774   -4584037.06748  -3571974.73047                  21311167.8094
        32.2504         27.5004
 00  5  1 19 30 45.0000000  0  8G 4G 5G 6G17G 9G10G24G30
  24338668.2504    6040610.21645   4706963.13945                  24338679.2704
         8.7504          7.7504
  20514283.7894       1816.54348      1412.96747                  20514291.9144
        31.7504         28.7504
  23280870.8594   -4696731.77446  -1907560.59746                  23280882.2664
        16.0004         15.2504
  24879199.7504   -1960509.60244  -1382725.24445                  24879220.8404
         6.7504          7.7504
  25108506.3204    5577007.91443   4345694.50945                  25108533.1994
         5.7504          6.0004
  21332220.6484   -4256466.65247  -3316720.81147                  21332229.8874
        27.7504         26.7504
  21452387.3524    3263964.61548   2543346.76846                  21452395.7704
        29.0004         25.5004
  21305496.8204   -4613797.68448  -3595164.81147                  21305504.8164
        31.7504         27.5004
 00  5  1 19 31  0.0000000  0  8G 4G 5G 6G17G 9G10G24G30
  24347199.2344    6085440.47745   4741895.76445                  24347210.8404
         8.7504          7.7504
  20515713.7814       9331.81948      7269.00247                  20515721.9414
        31.7504         29.0004
  23273803.8204   -4733869.30146  -1936498.86746                  23273815.3444
        16.2504         15.5004
  24870135.5474   -2008143.83744  -1419842.65945                  24870159.1094
         6.7504          8.2504
  25116130.8524    5617071.19144   4376912.42545                  25116154.5664
         6.5004          6.5004
  21327316.8834   -4282234.73047  -3336799.79647                  21327326.3674
        27.7504         26.7504
  21457660.8524    3291676.60848   2564940.51047                  21457669.2814
        29.0004         25.7504
  21299851.6024   -4643463.15548  -3618280.74847                  21299859.4224
        32.0004         27.5004
 00  5  1 19 31 15.0000000  0  8G 4G 5G 6G17G 9G10G24G30
  24355725.5314    6130245.08845   4776808.37045                  24355736.6214
         8.2504          7.2504
  20517163.2424      16948.54948     13204.09047                  20517171.3794
        31.7504         29.0004
  23266733.8754   -4771023.12946  -1965449.85846                  23266744.6844
        16.5004         15.2504
  24861072.3754   -2055768.36344  -1456952.53845                  24861095.2344
         7.2504          8.0004
  25123741.1724    5657063.49645   4408075.09045                  25123765.8244
         7.5004          6.7504
  21322433.2504   -4307897.86548  -3356797.00647                  21322442.7344
        28.0004         27.0004
  21462937.2424    3319403.09848   2586545.54647                  21462945.7304
        29.0004         25.7504
  21294222.9614   -4673041.18048  -3641328.54747                  21294230.7934
        31.7504         27.5004
 00  5  1 19 31 30.0000000  0  8G 4G 5G 6G17G 9G10G24G30
  24364248.0004    6175031.02045   4811706.45745                  24364257.6374
         8.7504          7.7504
  20518633.1564      24673.06148     19223.16547                  20518641.3634
        31.7504         28.7504
  23259661.7664   -4808187.07446  -1994408.72746                  23259672.4104
        16.5004         15.5004
  24852012.9304   -2103378.97045  -1494051.51845                  24852036.2934
         8.0004          8.2504
  25131339.1254    5696988.76345   4439185.51145                  25131362.1254
         9.0004          7.5004
  21317570.7974   -4333450.72948  -3376708.29347                  21317580.2344
        28.0004         26.7504
  21468216.6564    3347147.91548   2608164.86647                  21468225.1214
        29.0004         25.7504
  21288612.4064   -4702525.12648  -3664303.03647                  21288620.2384
        32.0004         27.7504
 00  5  1 19 31 45.0000000  0  8G 4G 5G 6G17G 9G10G24G30
  24372766.7274    6219797.49845   4846589.36945                  24372776.7154
         8.5004          8.0004
  20520124.0084      32506.44548     25327.07547                  20520132.3794
        31.7504         29.0004
  23252588.0164   -4845361.35446  -2023375.65346                  23252599.0594
        16.7504         15.5004
  24842954.7194   -2150976.96345  -1531140.69045                  24842977.0744
         8.2504          8.2504
  25138924.0554    5736848.08645   4470244.55145                  25138946.3284
         9.7504          8.7504
  21312729.4304   -4358892.60747  -3396533.09547                  21312738.9264
        27.5004         26.7504
  21473499.9614    3374912.07748   2629799.25946                  21473508.6254
        29.0004         25.5004
  21283019.4924   -4731915.19248  -3687204.37247                  21283027.3134
        32.0004         27.7504
 00  5  1 19 32  0.0000000  0  8G 4G 5G 6G17G 9G10G24G30
  24381281.0394    6264541.15045   4881454.47145                  24381290.2894
         9.2504          7.7504
  20521635.6254      40449.77148     31516.65047                  20521643.7034
        32.0004         29.0004
  23245511.8134   -4882546.18946  -2052350.80946                  23245522.9844
        17.2504         15.2504
  24833899.3444   -2198562.59445  -1568220.27245                  24833920.4694
         8.7504          8.5004
  25146496.8754    5776643.31045   4501253.63045                  25146521.7734
        10.0004          9.0004
  21307909.2034   -4384222.91347  -3416270.96647                  21307918.7934
        27.7504         26.7504
  21478787.7584    3402698.09948   2651450.67946                  21478796.3524
        29.0004         25.5004
  21277444.3594   -4761213.72448  -3710034.38847                  21277452.1094
        32.2504         27.7504
 00  5  1 19 32 15.0000000  0  8G 4G 5G 6G17G 9G10G24G30
  24389789.4694    6309254.11745   4916295.73945                  24389800.0204
         9.5004          8.2504
  20523166.5634      48495.65448     37786.14647                  20523174.9104
        32.0004         28.7504
  23238432.8754   -4919747.01346  -2081338.40746                  23238443.6604
        17.2504         16.0004
  24824845.9224   -2246142.94745  -1605295.68145                  24824868.5354
         9.0004          8.7504
  25154056.8984    5816369.82845   4532209.18645                  25154081.8324
        11.0004          9.0004
  21303109.0474   -4409446.68847  -3435925.81847                  21303118.4264
        27.7504         27.0004
  21484078.2814    3430500.99148   2673115.25446                  21484086.7464
        29.0004         25.5004
  21271885.5704   -4790425.48048  -3732796.77947                  21271893.3914
        32.0004         27.5004
 00  5  1 19 32 30.0000000  0  8G 4G 5G 6G17G 9G10G24G30
  24398293.1414    6353937.51445   4951113.89745                  24398303.5514
         9.7504          8.5004
  20524717.1024      56644.29948     44135.71447                  20524725.4964
        32.0004         29.0004
  23231350.3054   -4956964.08046  -2110338.67746                  23231361.2774
        17.2504         15.7504
  24815792.6884   -2293714.13445  -1642363.96345                  24815814.2114
         8.0004          8.2504
  25161605.2114    5856035.42345   4563117.29645                  25161629.2894
        10.0004          9.5004
  21298330.2034   -4434559.29547  -3455494.04647                  21298339.6644
        27.7504         26.7504
  21489373.1484    3458323.18848   2694794.86846                  21489381.5664
        29.2504         25.5004
  21266343.7734   -4819546.59548  -3755488.54647                  21266351.5474
        32.0004         27.5004
 00  5  1 19 32 45.0000000  0  8G 4G 5G 6G17G 9G10G24G30
  24406790.7974    6398593.16945   4985910.45345                  24406801.1844
         9.7504          8.2504
  20526288.3524      64901.21848     50569.64847                  20526296.6414
        32.0004         29.0004
  23224265.5084   -4994196.01046  -2139350.52246                  23224275.6374
        17.2504         16.0004
  24806742.8674   -2341270.77045  -1679420.90645                  24806765.4224
         8.0004          8.5004
  25169143.2274    5895649.72445   4593985.40445                  25169167.0234
        10.0004          9.5004
  21293574.5164   -4459551.39147  -3474968.36747                  21293583.8244
        27.7504         26.7504
  21494672.3984    3486172.20948   2716495.38446                  21494680.7704
        29.2504         25.2504
  21260820.1024   -4848574.10848  -3778107.37747                  21260827.9104
        32.0004         27.5004
 00  5  1 19 33  0.0000000  0  8G 4G 5G 6G17G 9G10G24G30
  24415281.8054    6443214.72345   5020680.49845                  24415290.7154
         9.7504          8.7504
  20527880.3444      73267.22848     57088.59847                  20527888.6214
        31.7504         29.0004
  23217176.4844   -5031448.66246  -2168378.50746                  23217187.3164
        17.0004         15.7504
  24797694.6484   -2388815.06945  -1716468.22245                  24797715.8444
         8.0004          8.2504
  25176671.9454    5935212.19545   4624813.11145                  25176696.7034
        10.0004          8.7504
  21288841.4614   -4484423.52648  -3494349.21547                  21288850.8984
        28.0004         26.7504
  21499976.9534    3514048.61248   2738217.23847                  21499985.4064
        29.2504         25.7504
  21255314.0784   -4877508.54948  -3800653.67947                  21255322.0514
        32.2504         27.7504
 00  5  1 19 33 15.0000000  0  7G 4G 5G 6G17G10G24G30
  24423765.9064    6487795.29945   5055418.52745                  24423775.0634
        10.2504          8.7504
  20529493.3134      81743.62348     63693.55247                  20529501.5784
        32.0004         28.7504
  23210082.6804   -5068724.96646  -2197424.93346                  23210093.9344
        17.2504         16.0004
  24788649.9924   -2436347.40545  -1753506.22245                  24788672.6054
         8.2504          8.2504
  21284131.0394   -4509178.33348  -3513638.63447                  21284140.3014
        28.0004         27.0004
  21505286.7814    3541951.33748   2759959.60346                  21505295.2234
        29.2504         25.2504
  21249826.7194   -4906344.86848  -3823123.52647                  21249834.4924
        32.2504         27.7504
 00  5  1 19 33 30.0000000  0  7G 4G 5G 6G17G10G24G30
  24432241.3594    6532335.32745   5090125.01845                  24432250.6564
        10.7504          9.5004
  20531128.1174      90333.70748     70387.10347                  20531136.3714
        31.7504         29.0004
  23202985.3054   -5106023.14346  -2226488.39546                  23202996.1484
        17.2504         16.0004
  24779607.0944   -2483864.61545  -1790532.38445                  24779628.9694
         8.0004          8.5004
  21279443.0004   -4533813.32448  -3532834.69447                  21279452.3204
        28.0004         26.7504
  21510602.4144    3569885.28948   2781726.30046                  21510610.9844
        29.2504         25.5004
  21244358.9304   -4935078.97748  -3845513.72547                  21244366.6334
        32.2504         27.7504
 00  5  1 19 33 45.0000000  0  7G 4G 5G 6G17G10G24G30
  24440708.7664    6576830.57345   5124796.59945                  24440717.1724
        11.0004          9.7504
  20532783.9534      99035.65648     77167.82247                  20532792.1374
        31.7504         29.0004
  23195882.9144   -5143348.01046  -2255572.65346                  23195893.6884
        17.0004         16.0004
  24770567.9774   -2531366.39445  -1827546.62545                  24770592.0664
         7.7504          8.2504
  21274778.0314   -4558328.02448  -3551937.01747                  21274787.4224
        28.0004         27.0004
  21515924.2344    3597850.71048   2803517.52046                  21515932.6294
        29.5004         25.5004
  21238909.8134   -4963712.39248  -3867825.46447                  21238917.5864
        32.2504         27.7504
 00  5  1 19 34  0.0000000  0  7G 4G 5G 6G17G10G24G30
  24449167.7584    6621283.70745   5159435.35345                  24449177.0314
        11.0004          9.5004
  20534461.5474     107850.68648     84036.65347                  20534469.8134
        32.0004         29.0004
  23188775.1334   -5180697.12446  -2284675.80746                  23188785.7544
        17.0004         16.0004
  24761532.4534   -2578848.16545  -1864545.21745                  24761554.6334
         8.0004          9.0004
  21270136.3594   -4582719.25248  -3570943.12447                  21270145.7274
        28.0004         27.0004
  21521252.3754    3625851.17248   2825336.04546                  21521260.8524
        29.0004         25.2504
  21233480.7114   -4992243.39548  -3890057.40047                  21233488.5554
        31.7504         27.7504
 00  5  1 19 34 15.0000000  0  7G 4G 5G 6G17G10G24G30
  24457619.1254    6665696.78745   5194042.94145                  24457629.2424
        10.5004          9.0004
  20536161.0704     116781.88748     90996.03647                  20536169.3364
        31.7504         29.0004
  23181663.4384   -5218067.32346  -2313795.36046                  23181674.0124
        17.0004         15.5004
  24752501.4064   -2626307.46945  -1901526.25645                  24752523.1764
         8.5004          8.5004
  21265518.7274   -4606985.29448  -3589851.65847                  21265528.0704
        28.0004         27.0004
  21526587.4304    3653886.34648   2847181.64746                  21526595.9184
        29.2504         25.5004
  21228071.3594   -5020670.06548  -3912208.01047                  21228079.2734
        32.0004         28.0004
 00  5  1 19 34 30.0000000  0  7G 4G 5G 6G17G10G24G30
  24466062.7194    6710067.12645   5228617.18345                  24466072.5664
        11.0004          9.2504
  20537881.7814     125823.87048     98041.70847                  20537890.1764
        31.7504         29.0004
  23174547.8284   -5255460.98346  -2342933.23846                  23174558.4964
        17.0004         15.7504
  24743473.5864   -2673746.91445  -1938491.84545                  24743495.6724
         8.5004          8.7504
  21260923.5394   -4631132.36848  -3608667.52647                  21260932.8244
        28.2504         27.0004
  21531927.5004    3681949.25648   2869048.82546                  21531935.7894
        29.5004         25.0004
  21222680.9304   -5048995.79548  -3934280.00247                  21222688.8554
        32.0004         27.7504
 00  5  1 19 34 45.0000000  0  7G 4G 5G 6G17G10G24G30
  24474499.2584    6754403.90345   5263165.26145                  24474510.5234
        10.7504          9.2504
  20539624.9454     134984.12148    105179.53147                  20539633.2464
        31.7504         29.0004
  23167429.4384   -5292869.29446  -2372082.52046                  23167440.1174
        17.0004         16.0004
  24734451.9384   -2721157.66945  -1975435.15445                  24734471.9804
         8.5004          8.7504
  21256352.5474   -4655152.97948  -3627384.85847                  21256361.9024
        28.0004         27.2504
  21537274.8674    3710048.67848   2890944.44846                  21537283.2034
        29.5004         25.2504
  21217311.5634   -5077212.60648  -3956267.12347                  21217319.5234
        32.0004         28.0004
 00  5  1 19 35  0.0000000  0  7G 4G 5G 6G17G10G24G30
  24482931.1884    6798710.60345   5297689.93145                  24482940.5904
        11.0004          9.7504
  20541391.1884     144265.35648    112411.63647                  20541399.6174
        31.7504         29.0004
  23160308.4144   -5330290.83146  -2401242.11846                  23160319.1174
        17.0004         16.0004
  24725434.5084   -2768540.60045  -2012356.70345                  24725456.6884
         7.7504          8.5004
  21251805.4694   -4679047.96848  -3646004.28647                  21251814.6024
        28.2504         27.0004
  21542628.7734    3738183.70748   2912867.82646                  21542637.2624
        29.5004         25.2504
  21211963.2114   -5105318.01848  -3978167.43047                  21211971.0084
        32.0004         28.0004
 00  5  1 19 35 15.0000000  0  7G 4G 5G 6G17G10G24G30
  24491357.1254    6842987.60945   5332191.43845                  24491366.6914
        11.0004          9.7504
  20543180.1804     153666.20248    119736.94247                  20543188.5514
        31.7504         28.7504
  23153184.4454   -5367726.52246  -2430412.73146                  23153194.9384
        17.0004         15.7504
  24716422.9064   -2815894.79345  -2049255.89945                  24716444.1604
         7.7504          7.7504
  21247281.5704   -4702822.05048  -3664529.51047                  21247290.9264
        28.2504         27.0004
  21547988.1804    3766348.65248   2934814.51746                  21547996.6094
        29.5004         25.2504
  21206635.9144   -5133313.62348  -3999982.18347                  21206643.7934
        32.0004         28.0004
 00  5  1 19 35 30.0000000  0  7G 4G 5G 6G17G10G24G30
  24499776.7814    6887235.99545   5366670.66645                  24499787.2974
        11.0004          9.5004
  20544991.6724     163185.53448    127154.57947                  20545000.0904
        31.5004         29.0004
  23146058.3984   -5405175.39546  -2459593.63046                  23146068.7034
        17.0004         16.0004
  24707416.7424   -2863221.51445  -2086133.63245                  24707436.5044
         7.5004          8.7504
  21242779.9694   -4726477.29148  -3682962.12547                  21242789.2664
        28.2504         27.2504
  21553353.2504    3794543.10048   2956784.20146                  21553361.5984
        29.5004         25.2504
  21201328.2814   -5161205.02248  -4021715.72847                  21201336.1484
        32.2504         28.0004
 00  5  1 19 35 45.0000000  0  7G 4G 5G 6G17G10G24G30
  24508192.2584    6931459.22945   5401130.29245                  24508202.5274
        10.5004          9.0004
  20546825.5004     172823.92148    134664.98447                  20546833.6484
        31.5004         28.7504
  23138930.0394   -5442634.51746  -2488782.50646                  23138941.0004
        17.5004         16.0004
  24698416.4614   -2910519.20545  -2122988.76845                  24698439.6604
         7.5004          9.2504
  21238301.3524   -4750012.33948  -3701301.08647                  21238310.4964
        28.0004         27.0004
  21558724.4924    3822768.54848   2978778.03646                  21558732.6994
        29.5004         25.2504
  21196040.4454   -5188992.82548  -4043368.55147                  21196048.2544
        32.2504         28.0004
 00  5  1 19 36  0.0000000  0  7G 4G 5G 6G17G10G24G30
  24516602.7274    6975658.89345   5435571.50945                  24516612.6914
        10.0004          9.0004
  20548682.9304     182583.46648    142269.79347                  20548691.2774
        31.7504         29.0004
  23131800.1414   -5480102.20146  -2517978.05446                  23131810.8554
        17.5004         16.0004
  24689421.8754   -2957787.43445  -2159820.96245                  24689442.1294
         7.7504          8.5004
  21233845.6334   -4773427.15148  -3719546.36047                  21233854.8954
        28.0004         27.2504
  21564102.0784    3851027.26348   3000797.79746                  21564110.5084
        29.2504         25.2504
  21190772.5784   -5216675.53948  -4064939.49447                  21190780.3874
        32.2504         28.0004
 00  5  1 19 36 15.0000000  0  7G 4G 5G 6G17G10G24G30
  24525010.2034    7019837.10345   5469996.04545                  24525020.6844
         9.7504          9.0004
  20550563.9224     192468.31848    149972.24847                  20550572.3524
        31.7504         29.0004
  23124669.4614   -5517573.00646  -2547176.03346                  23124679.9414
        17.5004         16.0004
  24680431.7664   -3005024.47345  -2196628.83345                  24680454.4964
         7.5004          9.0004
  21229412.8444   -4796720.85248  -3737697.25747                  21229422.2234
        28.0004         26.7504
  21569486.4694    3879322.03248   3022845.64746                  21569494.7464
        29.0004         25.2504
  21185524.9924   -5244250.76248  -4086426.66847                  21185532.7194
        32.2504         28.0004
 00  5  1 19 36 30.0000000  0  7G 4G 5G 6G17G10G24G30
  24533413.1644    7063994.66545   5504404.50445                  24533422.2854
         9.5004          8.5004
  20552468.2424     202475.87048    157770.31247                  20552476.6724
        31.7504         29.0004
  23117538.1564   -5555048.02846  -2576377.30246                  23117548.9064
        17.0004         15.7504
  24671449.5004   -3052229.36045  -2233411.64545                  24671471.9494
         8.0004          9.2504
  21225003.6484   -4819891.99247  -3755752.65647                  21225012.9574
        27.7504         27.0004
  21574877.8754    3907653.39048   3044922.01446                  21574886.2814
        28.7504         25.0004
  21180298.5084   -5271717.05448  -4107828.97647                  21180306.2934
        32.2504         28.0004
 00  5  1 19 36 45.0000000  0  7G 4G 5G 6G17G10G24G30
  24541810.4304    7108123.45045   5538790.51345                  24541821.7774
         9.7504          8.2504
  20554394.3594     212596.96848    165656.85547                  20554402.7544
        31.7504         28.7504
  23110404.2194   -5592536.69046  -2605589.19246                  23110414.9224
        16.7504         16.0004
  24662471.2114   -3099409.22145  -2270174.98645                  24662493.0984
         8.2504          9.2504
  21220616.2814   -4842947.02948  -3773717.58347                  21220625.5434
        28.0004         27.2504
  21580274.9144    3936014.83448   3067021.82046                  21580283.5664
        29.0004         25.0004
  21175091.2664   -5299082.33448  -4129152.56247                  21175099.0744
        32.2504         28.2504
 00  5  1 19 37  0.0000000  0  7G 4G 5G 6G17G10G24G30
  24550203.6644    7152228.54445   5573158.06845                  24550214.0864
         9.2504          8.5004
  20556342.9064     222836.82948    173635.93747                  20556351.2544
        32.0004         29.0004
  23103268.5634   -5630035.13546  -2634808.70946                  23103279.3834
        17.0004         15.7504
  24653498.5004   -3146560.42345  -2306915.99645                  24653520.7624
         8.2504          9.0004
  21216252.6254   -4865877.67248  -3791585.58347                  21216261.9224
        28.2504         27.0004
  21585678.3594    3964410.20648   3089148.06946                  21585686.9184
        29.0004         25.0004
  21169903.5234   -5326343.71348  -4150395.18647                  21169911.2624
        32.0004         28.2504
 00  5  1 19 37 15.0000000  0  7G 4G 5G 6G17G10G24G30
  24558591.4844    7196308.01645   5607505.66545                  24558601.5084
         9.2504          7.7504
  20558314.0234     233194.94248    181707.16547                  20558322.3594
        31.7504         29.0004
  23096130.6644   -5667544.41846  -2664036.67646                  23096141.4494
        17.0004         16.0004
  24644530.6724   -3193683.98845  -2343635.48745                  24644551.8324
         8.7504          8.2504
  21211912.7584   -4888684.33848  -3809356.97647                  21211921.9964
        28.0004         27.0004
  21591087.7504    3992836.42848   3111298.35046                  21591096.1914
        28.7504         25.0004
  21164735.0784   -5353503.75448  -4171558.85247                  21164742.8054
        32.2504         28.0004
 00  5  1 19 37 30.0000000  0  7G 4G 5G 6G17G10G24G30
  24566973.8594    7240357.97945   5641830.29745                  24566984.8554
         8.5004          8.0004
  20560306.8364     243667.59948    189867.64647                  20560315.3134
        31.7504         28.7504
  23088990.9454   -5705063.55846  -2693272.31346                  23089001.2734
        17.0004         16.0004
  24635568.7664   -3240781.49545  -2380334.63245                  24635589.1844
         8.5004          8.7504
  21207596.4694   -4911366.55348  -3827031.39447                  21207605.6374
        28.2504         27.0004
  21596503.2814    4021294.81948   3133473.69146                  21596511.7934
        28.7504         25.0004
  21159585.8364   -5380562.99048  -4192643.96647                  21159593.8094
        32.2504         28.0004
 00  5  1 19 37 45.0000000  0  7G 4G 5G 6G17G10G24G30
  24575351.3914    7284381.65345   5676134.34645                  24575362.6804
         8.0004          7.5004
  20562321.6254     254255.41848    198117.86247                  20562330.0664
        32.0004         29.0004
  23081850.2664   -5742588.25946  -2722512.28646                  23081860.8164
        16.7504         16.0004
  24626611.2814   -3287851.45245  -2417012.32145                  24626631.0084
         8.5004          9.0004
  21203305.0784   -4933917.59448  -3844603.60347                  21203314.1414
        28.2504         27.0004
  21601925.4774    4049789.33948   3155677.20246                  21601934.0474
        28.7504         25.0004
  21154457.1564   -5407514.77648  -4213645.35047                  21154464.8134
        32.2504         28.2504
 00  5  1 19 38  0.0000000  0  7G 4G 5G 6G17G10G24G30
  24583722.8134    7328374.04745   5710414.12045                  24583733.3754
         7.5004          7.2504
  20564357.3674     264952.52648    206453.24047                  20564365.6094
        31.7504         29.0004
  23074707.1024   -5780126.17946  -2751762.56046                  23074717.7704
        16.7504         16.0004
  24617658.1644   -3334901.16445  -2453674.23445                  24617679.6054
         8.7504          8.7504
  21199038.3364   -4956340.07148  -3862075.62647                  21199047.4694
        28.2504         27.0004
  21607353.1254    4078311.76848   3177902.44846                  21607361.6604
        28.7504         24.7504
  21149348.1804   -5434362.17148  -4234565.39647                  21149355.9884
        32.5004         28.2504
 00  5  1 19 38 15.0000000  0  7G 4G 5G 6G17G10G24G30
  24592088.8674    7372338.05344   5744671.74445                  24592094.6684
         7.0004          6.7504
  20566414.6334     275763.40548    214877.26847                  20566422.8984
        31.7504         28.7504
  23067562.0314   -5817674.33846  -2781020.81446                  23067572.9804
        17.0004         15.7504
  24608709.1484   -3381928.15645  -2490318.47245                  24608729.6374
         9.2504          9.7504
  21194797.0634   -4978628.69548  -3879443.35047                  21194806.1024
        28.5004         27.0004
  21612786.6334    4106865.58448   3200152.15946                  21612795.2974
        28.5004         24.7504
  21144259.9774   -5461101.31548  -4255401.08847                  21144267.7974
        32.2504         28.2504
 00  5  1 19 38 30.0000000  0  7G 4G 5G 6G17G10G24G30
  24600450.0314    7416275.52444   5778908.62945                  24600459.7854
         7.2504          7.0004
  20568493.3134     286684.85948    223387.46147                  20568501.5084
        32.0004         29.0004
  23060414.6414   -5855232.44246  -2810286.81646                  23060425.4964
        17.2504         16.0004
  24599763.7734   -3428933.26445  -2526945.61945                  24599785.0044
         9.2504          9.2504
  21190580.7664   -5000783.77948  -3896707.01947                  21190589.8524
        28.5004         27.0004
  21618225.9454    4135449.24048   3222425.11246                  21618234.6214
        28.5004         24.7504
  21139192.0864   -5487732.52048  -4276152.67147                  21139199.8244
        32.5004         28.2504
 00  5  1 19 38 45.0000000  0  7G 4G 5G 6G17G10G24G30
  24608805.2424    7460183.91444   5813122.99745                  24608817.9494
         7.0004          6.7504
  20570591.8754     297713.91148    231981.49947                  20570600.0234
        32.0004         29.0004
  23053265.1644   -5892803.71146  -2839563.07446                  23053275.7274
        17.5004         15.7504
  24590822.2814   -3475921.65545  -2563559.74945                  24590843.6994
         9.2504          9.7504
  21186389.6884   -5022808.55448  -3913869.14747                  21186398.6804
        28.5004         27.0004
  21623670.0864    4164058.09348   3244717.70846                  21623678.7034
        28.5004         25.0004
  21134144.5234   -5514259.22048  -4296822.82047                  21134152.4844
        32.5004         28.5004
 00  5  1 19 39  0.0000000  0  7G 4G 5G 6G17G10G24G30
  24617155.7974    7504065.92744   5847316.69745                  24617167.2624
         7.0004          5.7504
  20572712.4844     308857.08048    240664.45547                  20572720.6684
        32.0004         29.2504
  23046113.8204   -5930383.45846  -2868845.94746                  23046124.6764
        17.5004         16.2504
  24581884.2894   -3522890.47945  -2600158.64245                  24581905.4964
         9.7504          9.5004
  21182223.7504   -5044700.32248  -3930927.63447                  21182232.8484
        28.2504         27.2504
  21629119.0864    4192691.97048   3267029.79646                  21629127.7154
        28.2504         24.5004
  21129116.9304   -5540677.88848  -4317408.79447                  21129124.8914
        32.2504         28.5004
 00  5  1 19 39 15.0000000  0  7G 4G 5G 6G17G10G24G30
  24625502.1564    7547924.11344   5881491.84745                  24625516.9384
         7.2504          5.5004
  20574855.5164     320120.53948    249441.14447                  20574863.7934
        32.2504         29.0004
  23038961.2344   -5967968.98846  -2898133.31846                  23038971.9614
        17.0004         16.0004
  24572950.7584   -3569836.62945  -2636739.86745                  24572972.5984
        10.0004         10.0004
  21178083.9774   -5066456.15448  -3947880.20147                  21178093.0744
        28.5004         27.2504
  21634573.1954    4221353.70748   3289363.59646                  21634581.7194
        28.5004         24.7504
  21124111.4924   -5566981.52648  -4337905.12947                  21124119.3134
        32.5004         28.5004
 00  5  1 19 39 30.0000000  0  7G 4G 5G 6G17G10G24G30
  24633843.6564    7591758.98545   5915648.85045                  24633856.0474
         7.5004          6.2504
  20577022.7894     331509.24248    258315.42447                  20577031.0434
        32.2504         29.0004
  23031808.3914   -6005557.91846  -2927423.35346                  23031819.4694
        17.5004         16.2504
  24564021.7194   -3616756.68945  -2673300.77245                  24564042.4344
        10.2504          9.7504
  21173969.6484   -5088075.53448  -3964726.43947                  21173978.7234
        28.5004         27.2504
  21640033.4144    4250047.94148   3311722.71646                  21640041.9964
        28.5004         24.5004
  21119129.2344   -5593164.02848  -4358307.08047                  21119136.9844
        32.5004         28.5004
 00  5  1 19 39 45.0000000  0  7G 4G 5G 6G17G10G24G30
  24642180.4304    7635568.71644   5949786.27945                  24642191.5434
         7.2504          6.2504
  20579213.7504     343022.52248    267286.77847                  20579222.0744
        32.2504         29.0004
  23024654.4454   -6043151.66746  -2956717.12646                  23024665.0664
        17.5004         16.0004
  24555097.5634   -3663652.59745  -2709842.85945                  24555117.4064
        10.2504          9.2504
  21169881.2504   -5109559.90648  -3981467.47847                  21169890.3014
        28.7504         27.2504
  21645499.8054    4278773.53548   3334106.27646                  21645508.3754
        28.2504         24.5004
  21114169.6884   -5619226.90848  -4378615.81047                  21114177.5084
        32.2504         28.5004
 00  5  1 19 40  0.0000000  0  7G 4G 5G 6G17G10G24G30
  24650513.3674    7679356.65445   5983906.66945                  24650522.9104
         7.7504          6.0004
  20581429.4844     354665.63448    276359.29947                  20581437.7034
        32.2504         29.0004
  23017500.1564   -6080749.44946  -2986014.04246                  23017510.5664
        17.7504         16.0004
  24546179.2034   -3710521.73945  -2746364.08745                  24546199.8594
         9.5004          9.2504
  21165818.8444   -5130908.54948  -3998102.75147                  21165827.7544
        28.7504         27.0004
  21650972.2034    4307530.31248   3356514.14046                  21650980.7974
        28.5004         24.7504
  21109232.6804   -5645170.36848  -4398831.48947                  21109240.4534
        32.5004         28.7504
 00  5  1 19 40 15.0000000  0  7G 4G 5G 6G17G10G24G30
  24658840.2424    7723119.72445   6018007.73545                  24658848.8484
         7.5004          5.5004
  20583669.8204     366438.69648    285533.08147                  20583678.0634
        32.0004         29.0004
  23010344.0474   -6118353.14546  -3015315.58846                  23010354.6094
        17.7504         16.2504
  24537265.2114   -3757363.54645  -2782863.99445                  24537285.9024
         9.2504          9.5004
  21161781.0634   -5152126.58148  -4014636.25547                  21161789.8444
        28.5004         27.0004
  21656449.8284    4336317.20548   3378945.46446                  21656458.6684
        28.0004         24.5004
  21104318.0634   -5670997.62948  -4418956.62347                  21104326.0124
        32.5004         28.5004
 00  5  1 19 40 30.0000000  0  7G 4G 5G 6G17G10G24G30
  24667165.0704    7766859.84845   6052090.89445                  24667174.1094
         8.2504          7.0004
  20585934.9694     378341.77348    294808.17247                  20585943.2814
        32.0004         29.0004
  23003188.1644   -6155958.44546  -3044618.36246                  23003198.8324
        17.5004         16.5004
  24528357.4614   -3804172.32045  -2819338.19645                  24528377.5394
         9.5004          9.5004
  21157768.3914   -5173214.54848  -4031068.40847                  21157777.3244
        28.5004         27.2504
  21661934.1024    4365135.67548   3401401.39346                  21661942.7894
        28.0004         24.5004
  21099425.8204   -5696706.10448  -4438989.19347                  21099433.5594
        32.5004         28.7504
 00  5  1 19 40 45.0000000  0  7G 4G 5G 6G17G10G24G30
  24675483.6174    7810579.32545   6086158.00645                  24675491.3674
         8.5004          6.7504
  20588225.7034     390379.38948    304188.09847                  20588234.0984
        32.0004         29.0004
  22996032.8134   -6193560.01546  -3073918.23546                  22996043.2464
        17.5004         16.2504
  24519456.9924   -3850941.51745  -2855781.54545                  24519475.6524
         9.5004          9.7504
  21153780.2814   -5194170.66748  -4047397.81947                  21153789.2274
        28.5004         27.2504
  21667424.2664    4393987.08848   3423882.99046                  21667432.9534
        28.0004         24.2504
  21094557.3834   -5722290.44448  -4458925.03847                  21094565.0864
        32.5004         28.5004
 00  5  1 19 41  0.0000000  0  7G 4G 5G 6G17G10G24G30
  24683798.1954    7854271.58145   6120203.86245                  24683805.8754
         8.7504          7.7504
  20590541.7974     402551.48848    313672.81447                  20590550.0634
        32.0004         29.2504
  22988877.2344   -6231162.43646  -3103218.77446                  22988887.7504
        17.5004         16.5004
  24510565.0394   -3897669.50845  -2892192.77545                  24510586.2464
         9.0004          9.7504
  21149817.4304   -5214996.71548  -4063625.88247                  21149826.3984
        28.5004         27.2504
  21672920.0784    4422867.03148   3446386.82346                  21672928.7424
        28.0004         24.5004
  21089712.1334   -5747752.63548  -4478765.69847                  21089719.9414
        32.5004         28.5004
 00  5  1 19 41 15.0000000  0  7G 4G 5G 6G17G10G24G30
  24692108.0554    7897936.40445   6154228.39745                  24692116.0274
         9.2504          7.2504
  20592883.4694     414856.64348    323261.21447                  20592891.8054
        32.0004         29.0004
  22981721.2664   -6268765.92646  -3132520.15446                  22981732.0864
        17.5004         16.7504
  24501680.9064   -3944354.91245  -2928570.83145                  24501701.6684
         9.5004         10.0004
  21145879.2894   -5235690.53048  -4079750.90047                  21145888.2344
        28.5004         27.5004
  21678421.5164    4451778.86248   3468915.50046                  21678430.1684
        28.0004         24.2504
  21084890.3284   -5773090.50048  -4498509.48447                  21084898.1024
        32.2504         28.5004
 00  5  1 19 41 30.0000000  0  7G 4G 5G 6G17G10G24G30
  24700412.4614    7941577.88745   6188234.69945                  24700425.0634
         9.5004          7.2504
  20595250.5864     427294.30148    332952.86747                  20595258.8984
        32.2504         29.0004
  22974566.0004   -6306367.11546  -3161819.71546                  22974576.3634
        17.7504         16.7504
  24492805.6564   -3990994.48845  -2964913.15445                  24492826.0984
         9.7504         10.0004
  21141967.0084   -5256250.33548  -4095771.49747                  21141975.9064
        28.5004         27.2504
  21683930.4304    4480728.12548   3491473.35246                  21683939.1414
        28.2504         24.5004
  21080092.6414   -5798301.78448  -4518154.62447                  21080100.3324
        32.5004         28.5004
 00  5  1 19 41 45.0000000  0  7G 4G 5G 6G17G10G24G30
  24708710.9774    7985189.07845   6222217.41645                  24708721.3164
         9.5004          8.2504
  20597640.2814     439852.17248    342738.18547                  20597648.5124
        32.0004         29.0004
  22967410.2034   -6343970.81546  -3191121.26046                  22967420.7194
        17.7504         16.5004
  24483937.9224   -4037593.31345  -3001223.75645                  24483959.9384
         9.7504         10.2504
  21138079.0474   -5276680.96948  -4111691.44947                  21138088.0514
        28.7504         27.2504
  21689445.0394    4509706.52848   3514053.90046                  21689453.7624
        28.0004         24.2504
  21075317.6094   -5823395.20048  -4537707.93247                  21075325.5004
        32.5004         28.5004
 00  5  1 19 42  0.0000000  0  7G 4G 5G 6G17G10G24G30
  24717006.4064    8028779.95245   6256184.28245                  24717016.3134
        10.0004          8.0004
  20600053.2664     452533.54948    352619.73947                  20600061.5784
        32.2504         29.0004
  22960255.1024   -6381572.15646  -3220420.95046                  22960265.6884
        18.0004         17.0004
  24475080.2894   -4084143.57745  -3037496.52245                  24475101.9774
         9.2504          9.0004
  21134217.3524   -5296974.48348  -4127504.55347                  21134226.4264
        28.7504         27.5004
  21694965.5394    4538717.03148   3536659.46446                  21694974.1214
        28.2504         24.2504
  21070565.7424   -5848366.24248  -4557165.87747                  21070573.5044
        32.5004         28.5004
 00  5  1 19 42 15.0000000  0  7G 4G 5G 6G17G10G24G30
  24725296.7274    8072349.97045   6290134.91945                  24725309.5044
         9.7504          8.2504
  20602489.5554     465335.89548    362595.55647                  20602497.8914
        32.0004         29.2504
  22953100.2114   -6419171.32446  -3249718.95846                  22953110.9734
        18.0004         16.7504
  24466230.7894   -4130642.70445  -3073729.43845                  24466252.3364
         9.0004          9.2504
  21130381.7424   -5317130.53648  -4143210.54747                  21130390.6414
        28.7504         27.2504
  21700492.1724    4567758.40548   3559289.08446                  21700500.8134
        28.2504         24.2504
  21065837.5314   -5873213.15248  -4576527.10047                  21065845.3404
        32.5004         28.5004
 00  5  1 19 42 30.0000000  0  7G 4G 5G 6G17G10G24G30
  24733583.0944    8115891.97945   6324063.71545                  24733594.6764
        10.5004          8.7504
  20604947.3284     478251.83948    372659.88947                  20604955.6524
        31.2504         29.2504
  22945944.6414   -6456773.27546  -3279019.13446                  22945955.1334
        18.0004         17.0004
  24457391.4924   -4177094.47045  -3109925.40445                  24457412.4414
         8.7504          9.5004
  21126570.9694   -5337155.98548  -4158814.77247                  21126579.9494
        28.7504         27.5004
  21706023.2274    4596824.34448   3581937.84246                  21706031.8204
        28.0004         24.2504
  21061132.6024   -5897939.04948  -4595794.03047                  21061140.3054
        32.2504         28.2504
 00  5  1 19 42 45.0000000  0  7G 4G 5G 6G17G10G24G30
  24741863.9384    8159409.02145   6357973.05845                  24741875.5434
        10.7504          9.2504
  20607427.7424     491285.88348    382816.24947                  20607436.0204
        31.7504         29.2504
  22938789.5554   -6494373.91846  -3308318.28146                  22938800.2114
        18.0004         16.7504
  24448561.1174   -4223498.44645  -3146084.16945                  24448582.7114
         9.0004          9.2504
  21122786.0634   -5357046.13648  -4174313.56647                  21122795.1484
        29.0004         27.5004
  21711559.4534    4625918.00148   3604608.20346                  21711568.1054
        28.0004         24.0004
  21056451.0314   -5922539.89248  -4614963.51647                  21056458.6054
        32.2504         28.5004
 00  5  1 19 43  0.0000000  0  7G 4G 5G 6G17G10G24G30
  24750140.3914    8202899.84345   6391862.02745                  24750150.7544
        11.0004          9.0004
  20609930.9064     504439.43948    393065.73747                  20609939.1954
        32.2504         29.5004
  22931634.0394   -6531975.28546  -3337617.99946                  22931644.2274
        18.2504         17.0004
  24439738.3984   -4269858.33245  -3182208.59745                  24439759.1724
         9.2504          9.5004
  21119027.4384   -5376798.33248  -4189704.86747                  21119036.5354
        28.7504         27.5004
  21717101.4694    4655042.03148   3627302.23246                  21717110.1564
        28.2504         24.5004
  21051793.2814   -5947017.22648  -4634036.75947                  21051800.9734
        32.5004         28.5004
 00  5  1 19 43 15.0000000  0  7G 4G 5G 6G17G10G24G30
  24758411.3524    8246365.02545   6425730.92345                  24758421.8444
        11.0004          9.0004
  20612456.0634     517709.32148    403405.86747                  20612464.2814
        32.2504         29.2504
  22924478.0784   -6569580.13946  -3366920.43246                  22924488.4534
        18.2504         17.2504
  24430923.9924   -4316179.68145  -3218302.96645                  24430943.9304
         9.0004          9.7504
  21115295.2814   -5396409.79248  -4204986.50147                  21115304.3554
        29.0004         27.5004
  21722648.9614    4684195.33048   3650019.06346                  21722657.6134
        28.2504         24.0004
  21047158.0394   -5971375.02148  -4653016.85347                  21047165.7544
        32.2504         28.7504
 00  5  1 19 43 30.0000000  0  7G 4G 5G 6G17G10G24G30
  24766678.4304    8289807.21845   6459581.94145                  24766689.7774
        10.2504          8.7504
  20615003.7734     531096.31248    413837.24747                  20615012.1334
        31.5004         29.5004
  22917321.7974   -6607186.07946  -3396223.72146                  22917332.6414
        18.2504         17.0004
  24422115.6414   -4362465.70045  -3254369.80545                  24422135.1684
         9.7504         10.0004
  21111590.3834   -5415880.02248  -4220158.08647                  21111599.3984
        29.0004         27.5004
  21728202.4534    4713378.31648   3672759.03046                  21728211.3054
        28.0004         24.0004
  21042545.4304   -5995613.88548  -4671904.27547                  21042553.1214
        32.2504         28.2504
 00  5  1 19 43 45.0000000  0  7G 4G 5G 6G17G10G24G30
  24774940.6414    8333225.42845   6493414.26945                  24774953.1374
        10.5004          9.0004
  20617573.6484     544602.25648    424361.32147                  20617581.9494
        31.2504         29.5004
  22910165.3054   -6644794.61046  -3425529.02846                  22910176.1024
        18.0004         17.2504
  24413314.7584   -4408715.70445  -3290408.58245                  24413334.7424
        10.2504         10.0004
  21107911.4534   -5435211.56748  -4235221.60547                  21107920.2234
        29.0004         27.5004
  21733760.7504    4742586.68248   3695518.76846                  21733769.3554
        28.2504         24.0004
  21037955.1024   -6019735.94848  -4690700.68747                  21037962.8754
        32.2504         28.7504
 00  5  1 19 44  0.0000000  0  7G 4G 5G 6G17G10G24G30
  24783198.1484    8376619.86445   6527228.07945                  24783209.0394
        10.0004          8.7504
  20620167.0164     558229.44448    434979.86947                  20620175.3984
        30.7504         29.5004
  22903008.2894   -6682404.57346  -3454835.42646                  22903018.9804
        18.0004         17.2504
  24404519.9064   -4454932.52145  -3326421.52145                  24404538.6024
        10.7504          9.7504
  21104259.3524   -5454403.48548  -4250176.32447                  21104268.2624
        29.0004         27.2504
  21739323.8204    4771819.96448   3718297.93246                  21739332.4614
        28.5004         24.0004
  21033387.5084   -6043739.05148  -4709404.40047                  21033395.2584
        32.2504         28.7504
 00  5  1 19 44 15.0000000  0  7G 4G 5G 6G17G10G24G30
  24791451.4924    8419988.63945   6561021.89245                  24791462.7464
         9.5004          8.5004
  20622783.7974     571980.62448    445695.03547                  20622792.0274
        31.2504         29.5004
  22895850.5634   -6720017.31846  -3484144.02446                  22895861.1374
        18.0004         17.0004
  24395730.4064   -4501120.65745  -3362412.09345                  24395750.5664
         9.7504          9.7504
  21100633.0704   -5473460.34248  -4265025.80347                  21100641.9924
        29.0004         27.5004
  21744891.1884    4801077.04948   3741095.63646                  21744899.7114
        28.5004         24.0004
  21028842.7274   -6067623.65548  -4728015.78247                  21028850.4884
        31.7504         29.0004
 00  5  1 19 44 30.0000000  0  7G 4G 5G 6G17G10G24G30
  24799698.4144    8463327.93945   6594792.72645                  24799709.9384
         9.2504          8.2504
  20625424.3284     585855.38348    456506.49347                  20625432.5704
        31.5004         29.2504
  22888692.9614   -6757631.20146  -3513453.49246                  22888703.6994
        18.2504         17.0004
  24386945.7344   -4547284.26445  -3398383.55045                  24386965.0164
         9.2504         10.0004
  21097032.0004   -5492383.98548  -4279771.47847                  21097040.6764
        29.2504         27.5004
  21750463.5084    4830359.37648   3763913.00846                  21750472.0314
        28.5004         24.0004
  21024320.0394   -6091389.30948  -4746534.47247                  21024327.7664
        32.0004         28.7504
 00  5  1 19 44 45.0000000  0  7G 4G 5G 6G17G10G24G30
  24807940.2664    8506639.30645   6628541.86945                  24807952.4104
         9.0004          7.2504
  20628087.6644     599852.95348    467413.65447                  20628095.9654
        31.7504         29.5004
  22881534.9304   -6795246.34046  -3542763.94646                  22881545.4224
        18.2504         17.2504
  24378164.0704   -4593426.87145  -3434338.66245                  24378184.7974
         9.7504         10.5004
  21093456.8754   -5511171.59248  -4294411.14747                  21093465.6804
        29.2504         27.5004
  21756041.1024    4859669.40748   3786751.97546                  21756049.8134
        28.2504         24.0004
  21019820.1094   -6115036.79748  -4764961.08247                  21019827.8954
        32.2504         29.0004
 00  5  1 19 45  0.0000000  0  6G 5G 6G17G10G24G30
  20630774.9064     613973.98448    478417.01147                  20630783.2304
        31.5004         29.5004
  22874377.0634   -6832860.82046  -3572073.89546                  22874387.9184
        18.5004         17.2504
  24369387.4454   -4639548.66045  -3470277.52545                  24369407.8524
        10.0004          9.7504
  21089908.6804   -5529817.16248  -4308940.14547                  21089917.5204
        29.5004         27.5004
  21761624.3834    4889010.74048   3809615.32546                  21761632.9304
        28.2504         24.0004
  21015342.8674   -6138565.06648  -4783294.79847                  21015350.7114
        32.2504         29.0004
 00  5  1 19 45 15.0000000  0  6G 5G 6G17G10G24G30
  20633485.1414     628216.83148    489515.29347                  20633493.4534
        31.5004         29.2504
  22867219.9534   -6870473.45746  -3601382.40046                  22867230.6214
        18.5004         17.0004
  24360615.9224   -4685643.06445  -3506195.04845                  24360634.0434
        10.0004          9.7504
  21086388.2734   -5548317.12348  -4323355.67947                  21086397.1484
        29.5004         27.7504
  21767214.1564    4918384.84648   3832504.22446                  21767222.9024
        28.2504         23.7504
  21010889.0864   -6161969.87748  -4801532.31247                  21010897.0124
        32.0004         29.0004
 00  5  1 19 45 30.0000000  0  6G 5G 6G17G10G24G30
  20636218.1174     642578.06348    500705.82047                  20636226.2664
        30.5004         29.5004
  22860062.4774   -6908084.74346  -3630689.84446                  22860072.9694
        18.2504         17.2504
  24351850.1724   -4731708.05445  -3542089.67745                  24351869.6524
        10.2504         10.0004
  21082894.4694   -5566676.34448  -4337661.54347                  21082903.2034
        29.5004         28.0004
  21772809.5784    4947789.24448   3855416.71946                  21772818.2544
        28.5004         23.7504
  21006458.9924   -6185249.23948  -4819672.07147                  21006466.9414
        32.5004         28.7504
 00  5  1 19 45 45.0000000  0  6G 5G 6G17G10G24G30
  20638973.3834     657056.95448    511988.03347                  20638981.6724
        30.5004         29.2504
  22852905.4304   -6945695.88746  -3659997.18846                  22852915.6994
        18.2504         17.2504
  24343091.0084   -4777740.60845  -3577959.00445                  24343109.9024
        10.7504         10.0004
  21079426.9224   -5584899.31448  -4351861.24047                  21079435.6564
        29.7504         27.7504
  21778410.5634    4977223.06348   3878352.13646                  21778419.2624
        28.0004         24.0004
  21002053.9844   -6208398.57848  -4837710.51547                  21002061.8164
        31.5004         29.0004
 00  5  1 19 46  0.0000000  0  6G 5G 6G17G10G24G30
  20641750.7424     671652.17048    523360.88547                  20641758.9384
        30.2504         29.5004
  22845747.9774   -6983307.14846  -3689304.62646                  22845758.4804
        18.2504         17.2504
  24334336.7814   -4823739.84945  -3613802.42845                  24334355.6764
        10.5004         10.0004
  21075985.1724   -5602984.72048  -4365953.74247                  21075994.0004
        29.7504         28.0004
  21784017.8594    5006688.09748   3901311.88446                  21784026.6524
        28.0004         23.5004
  20997674.3364   -6231414.33048  -4855644.86647                  20997682.0984
        31.5004         28.7504
 00  5  1 19 46 15.0000000  0  6G 5G 6G17G10G24G30
  20644550.9384     686367.07048    534827.00247                  20644559.1334
        30.2504         29.2504
  22838591.9224   -7020913.66746  -3718608.34546                  22838602.2734
        18.5004         17.2504
  24325590.6564   -4869699.94445  -3649615.26945                  24325609.8094
        10.2504         10.0004
  21072571.3524   -5620924.98948  -4379933.15047                  21072580.1334
        29.7504         28.0004
  21789631.5864    5036188.82448   3924299.44046                  21789640.4494
        28.0004         23.5004
  20993320.7424   -6254292.71948  -4873472.18047                  20993328.5394
        31.7504         28.7504
 00  5  1 19 46 30.0000000  0  6G 5G 6G17G10G24G30
  20647373.7274     701200.96448    546385.83747                  20647382.0634
        31.2504         29.5004
  22831436.3364   -7058516.47546  -3747909.19946                  22831446.4304
        18.5004         17.5004
  24316852.8594   -4915617.37445  -3685394.91745                  24316872.4694
        10.0004         10.0004
  21069185.4774   -5638717.50548  -4393797.42747                  21069194.3284
        29.7504         27.7504
  21795252.3834    5065726.07247   3947315.45546                  21795261.3054
        27.7504         23.5004
  20988993.2274   -6277033.55948  -4891192.31547                  20989000.9304
        32.0004         28.7504
 00  5  1 19 46 45.0000000  0  6G 5G 6G17G10G24G30
  20650218.3834     716149.70848    558034.17147                  20650226.6254
        30.7504         29.5004
  22824280.1644   -7096120.99646  -3777211.36746                  22824290.4574
        18.5004         17.5004
  24308122.6564   -4961493.17545  -3721142.10145                  24308141.9024
         9.7504         10.2504
  21065827.3594   -5656364.78948  -4407548.53647                  21065836.0824
        30.0004         27.7504
  21800879.6334    5095296.95447   3970357.67646                  21800888.4734
        27.7504         23.5004
  20984690.7194   -6299643.25148  -4908810.25947                  20984698.3164
        31.7504         28.7504
 00  5  1 19 47  0.0000000  0  6G 5G 6G17G10G24G30
  20653086.3984     731220.07848    569777.27247                  20653094.5234
        29.7504         29.5004
  22817124.1564   -7133724.86446  -3806513.04346                  22817134.2854
        18.2504         17.7504
  24299402.0784   -5007321.00245  -3756851.89045                  24299421.9104
         9.7504         10.2504
  21062497.3444   -5673863.66948  -4421184.00647                  21062506.0554
        29.7504         28.0004
  21806513.0164    5124901.14547   3993425.85046                  21806521.5864
        27.7504         23.5004
  20980413.6644   -6322118.78248  -4926323.65747                  20980421.5664
        32.2504         28.7504
 00  5  1 19 47 15.0000000  0  6G 5G 6G17G10G24G30
  20655977.6724     746414.22548    581616.82947                  20655985.9494
        29.0004         29.5004
  22809968.4534   -7171330.55846  -3835816.12946                  22809979.0984
        18.7504         17.2504
  24290691.2734   -5053096.34645  -3792520.81045                  24290710.4144
        10.0004         10.0004
  21059195.1484   -5691217.16748  -4434706.18947                  21059203.9304
        30.0004         28.0004
  21812152.1334    5154535.16647   4016517.27646                  21812160.6214
        27.5004         23.5004
  20976162.3204   -6344459.95548  -4943732.36547                  20976170.0944
        31.7504         28.7504
 00  5  1 19 47 30.0000000  0  6G 5G 6G17G10G24G30
  20658892.8444     761732.94048    593553.45147                  20658901.0634
        29.7504         29.5004
  22802811.3594   -7208939.89846  -3865122.05746                  22802821.8754
        18.7504         17.5004
  24281990.3054   -5098819.69045  -3828149.21345                  24282009.9614
        10.5004         10.0004
  21055919.8444   -5708429.40048  -4448118.29947                  21055928.4614
        29.7504         28.0004
  21817796.5704    5184196.54847   4039630.02146                  21817805.1174
        27.2504         23.2504
  20971936.4304   -6366667.74548  -4961037.13447                  20971944.2154
        31.5004         29.0004
 00  5  1 19 47 45.0000000  0  6G 5G 6G17G10G24G30
  20661833.0084     777184.15848    605593.32047                  20661841.2384
        29.0004         29.7504
  22795654.1484   -7246550.57746  -3894429.04246                  22795663.8914
        19.0004         17.5004
  24273299.3444   -5144492.28945  -3863738.04245                  24273317.8754
        10.5004         10.2504
  21052671.2504   -5725501.15948  -4461420.94547                  21052679.9494
        30.0004         28.0004
  21823446.4384    5213886.59647   4062765.09846                  21823455.0554
        27.5004         23.0004
  20967735.5474   -6388742.60848  -4978238.32547                  20967743.3094
        31.5004         29.0004
 00  5  1 19 48  0.0000000  0  6G 5G 6G17G10G24G30
  20664799.6024     792772.44548    617739.99547                  20664807.7384
        29.2504         29.7504
  22788497.3364   -7284161.27946  -3923736.03446                  22788507.5824
        19.2504         17.5004
  24264617.5944   -5190113.75745  -3899287.05445                  24264637.4734
        10.5004         10.2504
  21049450.1024   -5742427.27248  -4474610.10547                  21049458.8244
        30.0004         28.0004
  21829102.0084    5243606.95547   4085923.79946                  21829110.6724
        27.2504         23.2504
  20963559.2194   -6410689.58948  -4995339.87047                  20963567.0514
        31.7504         29.0004
 00  5  1 19 48 15.0000000  0  6G 5G 6G17G10G24G30
  20667791.3204     808494.55848    629990.94947                  20667799.4224
        30.0004         29.7504
  22781339.8674   -7321772.46846  -3953043.40346                  22781350.1134
        19.2504         17.5004
  24255944.0234   -5235689.29345  -3934800.28245                  24255964.0784
        10.7504         10.7504
  21046256.6414   -5759208.65748  -4487686.48347                  21046265.3164
        30.0004         28.2504
  21834762.6484    5273354.21047   4109103.45346                  21834771.4184
        27.2504         23.2504
  20959405.3754   -6432517.46448  -5012348.60447                  20959413.0664
        31.2504         29.0004
 00  5  1 19 48 30.0000000  0  6G 5G 6G17G10G24G30
  20670809.0004     824351.49848    642346.96747                  20670817.3244
        31.7504         29.7504
  22774182.8754   -7359383.78346  -3982350.87846                  22774193.2504
        19.2504         18.0004
  24247279.8674   -5281220.83845  -3970279.21745                  24247300.3324
        10.2504         10.0004
  21043090.8984   -5775844.53648  -4500649.48547                  21043099.7274
        30.0004         28.0004
  21840428.4224    5303127.66847   4132303.53646                  21840436.9804
        27.2504         23.2504
  20955274.4384   -6454226.71648  -5029264.90647                  20955282.2464
        31.2504         29.0004
 00  5  1 19 48 45.0000000  0  6G 5G 6G17G10G24G30
  20673852.4774     840345.65648    654809.90747                  20673860.7664
        30.2504         29.5004
  22767026.2664   -7396992.08946  -4011656.00246                  22767036.2544
        19.2504         17.5004
  24238624.0084   -5326707.99945  -4005723.57645                  24238642.5514
        10.2504          9.7504
  21039953.0164   -5792334.81048  -4513499.02847                  21039961.7154
        30.2504         28.0004
  21846099.9614    5332930.50647   4155526.50146                  21846108.7544
        27.2504         23.0004
  20951166.1254   -6475815.56048  -5046087.38547                  20951173.9344
        30.0004         29.2504
 00  5  1 19 49  0.0000000  0  6G 5G 6G17G10G24G30
  20676922.2584     856476.77748    667379.56947                  20676930.6294
        32.0004         29.5004
  22759870.0234   -7434597.23946  -4040958.67246                  22759880.1414
        19.2504         17.7504
  24229975.7344   -5372152.22445  -4041134.46045                  24229994.0204
        10.7504         10.5004
  21036842.3204   -5808681.26348  -4526236.50647                  21036851.0314
        30.0004         28.2504
  21851776.1804    5362760.56947   4178770.69146                  21851784.9614
        27.0004         23.2504
  20947081.2814   -6497281.98548  -5062814.46547                  20947089.1254
        31.2504         29.0004
 00  5  1 19 49 15.0000000  0  6G 5G 6G17G10G24G30
  20680017.7274     872744.31048    680055.52647                  20680025.9454
        31.5004         29.7504
  22752714.6724   -7472197.23646  -4070257.32146                  22752724.6254
        19.2504         17.7504
  24221336.6254   -5417552.73445  -4076511.29045                  24221356.1644
        11.0004         10.7504
  21033759.6024   -5824881.18448  -4538859.80047                  21033768.2424
        30.2504         28.0004
  21857458.9534    5392622.09547   4202039.38546                  21857467.5944
        27.2504         23.0004
  20943020.6094   -6518621.57348  -5079442.71847                  20943028.4184
        31.7504         29.0004
 00  5  1 19 49 30.0000000  0  6G 5G 6G17G10G24G30
  20683138.4144     889142.67648    692833.43247                  20683146.7034
        32.0004         29.5004
  22745560.8834   -7509791.09746  -4099551.19246                  22745570.9534
        19.2504         17.7504
  24212704.1484   -5462914.94745  -4111858.29045                  24212722.8554
        11.0004         10.7504
  21030704.2894   -5840936.51148  -4551370.42047                  21030712.9064
        30.0004         28.2504
  21863146.9454    5422514.68347   4225332.29346                  21863155.4224
        27.2504         23.0004
  20938983.3594   -6539836.25648  -5095973.64247                  20938991.1334
        31.7504         29.2504
 00  5  1 19 49 45.0000000  0  6G 5G 6G17G10G24G30
  20686283.7034     905671.20548    705712.76247                  20686291.9344
        32.2504         29.2504
  22738408.6024   -7547376.29946  -4128838.31446                  22738419.1764
        19.2504         17.7504
  24204077.7734   -5508245.58745  -4147180.65645                  24204097.1254
        11.2504         10.7504
  21027676.4384   -5856848.36648  -4563769.24547                  21027685.0204
        29.7504         28.0004
  21868841.6174    5452438.50847   4248649.54146                  21868850.3874
        27.0004         23.0004
  20934969.4384   -6560929.57248  -5112409.99347                  20934977.1524
        32.0004         29.0004
 00  5  1 19 50  0.0000000  0  6G 5G 6G17G10G24G30
  20689452.5234     922324.11848    718689.01647                  20689460.8834
        32.2504         29.5004
  22731257.9614   -7584953.79146  -4158119.42546                  22731267.7504
        19.2504         18.0004
  24195457.3914   -5553547.00845  -4182480.27645                  24195476.2034
        11.5004         10.5004
  21024676.1174   -5872615.05048  -4576054.94747                  21024684.6644
        30.0004         28.0004
  21874541.4924    5482392.14547   4271990.01246                  21874550.6254
        27.0004         22.7504
  20930978.0554   -6581903.75648  -5128753.51447                  20930985.6764
        31.7504         29.0004
 00  5  1 19 50 15.0000000  0  6G 5G 6G17G10G24G30
  20692644.2664     939096.63048    731758.46147                  20692652.6604
        32.2504         29.2504
  22724109.0634   -7622522.22446  -4187393.47946                  22724119.0984
        19.5004         17.7504
  24186841.8594   -5598818.04245  -4217756.23645                  24186860.4734
        11.0004         11.0004
  21021704.1564   -5888233.17848  -4588224.89647                  21021712.9024
        29.5004         28.2504
  21880247.5004    5512377.21847   4295354.98246                  21880256.3754
        27.0004         22.7504
  20927010.6254   -6602753.78648  -5145000.29247                  20927018.2344
        32.0004         29.0004
 00  5  1 19 50 30.0000000  0  6G 5G 6G17G10G24G30
  20695860.0944     955995.52648    744926.39147                  20695868.5944
        32.2504         29.2504
  22716962.7344   -7660074.26946  -4216654.76046                  22716972.5004
        19.2504         18.0004
  24178234.3984   -5644049.43845  -4253001.30645                  24178253.4694
        11.0004         10.5004
  21018761.6174   -5903695.93448  -4600273.76947                  21018770.3984
        30.0004         28.2504
  21885960.3984    5542399.75747   4318749.15546                  21885969.2974
        27.0004         23.0004
  20923069.7344   -6623464.06948  -5161138.16947                  20923077.4024
        31.2504         29.0004
 00  5  1 19 50 45.0000000  0  6G 5G 6G17G10G24G30
  20699098.6564     973013.46148    758187.07247                  20699106.9694
        32.2504         29.0004
  22709818.0634   -7697619.67746  -4245910.87046                  22709828.0864
        19.5004         17.5004
  24169633.9304   -5689245.90845  -4288219.14545                  24169652.7304
        11.0004         11.0004
  21015846.5004   -5919014.39048  -4612210.20547                  21015855.2234
        30.0004         28.0004
  21891679.4774    5572452.33847   4342166.72946                  21891688.3634
        26.7504         22.7504
  20919153.9694   -6644040.54348  -5177171.78747                  20919161.6724
        31.7504         29.0004
 00  5  1 19 51  0.0000000  0  6G 5G 6G17G10G24G30
  20702360.0634     990152.32348    771541.98747                  20702368.3984
        32.0004         29.0004
  22702674.9534   -7735157.59346  -4275161.14846                  22702684.6604
        19.5004         18.0004
  24161040.9534   -5734401.96945  -4323405.50845                  24161059.6134
        11.2504         10.5004
  21012958.9224   -5934189.33948  -4624034.82147                  21012967.5164
        30.2504         28.2504
  21897404.2734    5602536.95947   4365609.27246                  21897413.3594
        26.7504         22.7504
  20915264.5234   -6664480.59948  -5193099.10447                  20915272.2734
        32.0004         29.0004
 00  5  1 19 51 15.0000000  0  6G 5G 6G17G10G24G30
  20705644.0944    1007410.71748    784990.04447                  20705652.6054
        32.0004         29.0004
  22695532.4694   -7772689.94346  -4304407.08946                  22695542.5274
        19.5004         18.2504
  24152455.9224   -5779517.89645  -4358560.58545                  24152474.4414
        11.2504         11.0004
  21010098.3054   -5949221.90148  -4635748.48447                  21010106.8404
        30.2504         28.0004
  21903135.5164    5632653.31247   4389076.54446                  21903144.5554
        26.5004         22.5004
  20911400.6884   -6684785.22848  -5208920.89247                  20911408.4024
        32.2504         29.0004
 00  5  1 19 51 30.0000000  0  6G 5G 6G17G10G24G30
  20708950.8204    1024786.90148    798529.88347                  20708959.3444
        32.0004         29.2504
  22688391.7344   -7810215.94946  -4333648.08746                  22688401.8054
        19.7504         18.0004
  24143877.4694   -5824595.12645  -4393685.53645                  24143896.3284
        11.2504         10.0004
  21007265.0234   -5964111.50848  -4647350.75447                  21007273.5124
        30.2504         28.0004
  21908871.8914    5662799.97647   4412567.42446                  21908880.7544
        26.7504         22.5004
  20907562.1174   -6704956.87348  -5224639.06447                  20907569.8914
        32.2504         29.0004
 00  5  1 19 51 45.0000000  0  6G 5G 6G17G10G24G30
  20712280.5704    1042284.60648    812164.41447                  20712289.1054
        32.0004         29.0004
  22681252.5084   -7847733.22447  -4362882.27846                  22681262.5084
        20.0004         18.2504
  24135307.6254   -5869627.55945  -4428775.57645                  24135326.3674
        11.5004         10.7504
  21004459.1334   -5978854.47448  -4658838.75747                  21004467.7504
        30.2504         28.2504
  21914614.3204    5692977.76147   4436082.56546                  21914623.1254
        26.7504         22.5004
  20903749.6884   -6724990.29948  -5240249.52347                  20903757.5664
        32.0004         29.2504
 00  5  1 19 52  0.0000000  0  6G 5G 6G17G10G24G30
  20715633.3754    1059903.70848    825893.54247                  20715641.9344
        31.7504         29.0004
  22674114.0944   -7885245.64747  -4392112.70046                  22674123.7664
        20.0004         18.0004
  24126748.0314   -5914611.61345  -4463827.90345                  24126766.5984
        11.2504         11.2504
  21001681.9304   -5993449.40548  -4670211.40847                  21001690.6764
        30.0004         28.0004
  21920363.4224    5723186.20847   4459621.59346                  21920372.3094
        26.7504         22.7504
  20899964.1954   -6744883.73148  -5255750.90247                  20899971.8984
        32.0004         29.0004
 00  5  1 19 52 15.0000000  0  6G 5G 6G17G10G24G30
  20719009.2274    1077644.43748    839717.44147                  20719017.7734
        31.7504         29.0004
  22666976.2274   -7922755.66847  -4421341.24146                  22666986.0744
        20.0004         18.2504
  24118197.2504   -5959543.18645  -4498839.31445                  24118214.9494
        11.0004         10.5004
  20998932.7734   -6007896.32548  -4681468.72747                  20998941.4144
        30.2504         28.0004
  21926117.2504    5753423.95847   4483183.45646                  21926126.1374
        26.7504         22.5004
  20896205.7424   -6764634.26348  -5271140.92747                  20896213.4454
        32.5004         29.0004
 00  5  1 19 52 30.0000000  0  6G 5G 6G17G10G24G30
  20722409.5704    1095512.94748    853640.91347                  20722418.0824
        31.7504         29.0004
  22659839.0944   -7960261.46047  -4450566.48546                  22659849.0004
        20.2504         18.5004
  24109656.9144   -6004420.07945  -4533808.17045                  24109675.5514
        10.5004         10.7504
  20996211.6024   -6022196.62848  -4692611.79947                  20996220.2544
        30.2504         28.0004
  21931876.9144    5783690.95247   4506768.10346                  21931885.7774
        26.7504         22.5004
  20892474.7344   -6784240.13848  -5286418.23347                  20892482.4384
        32.2504         29.0004
 00  5  1 19 52 45.0000000  0  6G 5G 6G17G10G24G30
  20725834.6334    1113512.33548    867666.36747                  20725843.2384
        31.7504         29.0004
  22652702.9454   -7997762.01647  -4479787.65046                  22652713.0514
        20.2504         18.5004
  24101127.7584   -6049242.73845  -4568734.74445                  24101146.5824
        10.7504         10.7504
  20993517.9224   -6036351.54448  -4703641.57947                  20993526.4224
        30.2504         28.2504
  21937642.1414    5813987.64147   4530375.90546                  21937651.0274
        26.7504         22.7504
  20888770.9924   -6803704.55748  -5301585.31347                  20888778.7304
        32.5004         28.7504
 00  5  1 19 53  0.0000000  0  6G 5G 6G17G10G24G30
  20729285.0704    1131642.26348    881793.53947                  20729293.5594
        31.5004         29.0004
  22645567.8984   -8035256.61347  -4509004.17446                  22645578.0514
        20.2504         18.2504
  24092608.3204   -6094013.80445  -4603621.10445                  24092626.9104
        11.0004         10.5004
  20990852.5314   -6050358.37948  -4714555.97547                  20990861.1134
        30.2504         28.2504
  21943413.1564    5844315.36747   4554007.87646                  21943422.2424
        26.7504         22.7504
  20885093.5234   -6823030.14348  -5316644.21647                  20885101.3204
        32.5004         29.0004
 00  5  1 19 53 15.0000000  0  6G 5G 6G17G10G24G30
  20732758.8444    1149897.75548    896018.55347                  20732767.3794
        31.5004         29.0004
  22638433.3754   -8072746.86447  -4538217.30746                  22638442.8954
        20.2504         18.2504
  24084096.5944   -6138739.33245  -4638471.99945                  24084115.0784
        10.5004         10.5004
  20988215.3674   -6064216.10348  -4725354.18247                  20988223.9144
        30.2504         28.5004
  21949189.8754    5874670.65147   4577661.32346                  21949198.7384
        26.7504         22.5004
  20881441.8754   -6842219.58248  -5331597.02647                  20881449.5904
        32.0004         29.0004
 00  5  1 19 53 30.0000000  0  6G 5G 6G17G10G24G30
  20736255.7814    1168273.78348    910337.49147                  20736264.3164
        31.5004         28.7504
  22631299.8054   -8110235.54647  -4567429.22546                  22631309.8054
        20.2504         18.2504
  24075593.5944   -6183423.61445  -4673290.74345                  24075612.0904
        10.7504         10.5004
  20985606.8444   -6077924.43848  -4736035.97947                  20985615.3204
        30.2504         28.2504
  21954970.5864    5905048.39947   4601332.27746                  21954979.6024
        26.5004         22.5004
  20877815.4384   -6861276.77648  -5346446.78847                  20877823.1994
        32.2504         29.0004
 00  5  1 19 53 45.0000000  0  6G 5G 6G17G10G24G30
  20739776.6884    1186776.55348    924755.19147                  20739785.3164
        31.0004         29.0004
  22624167.1644   -8147717.55547  -4596635.94446                  22624176.8594
        20.0004         18.5004
  24067099.5004   -6228058.39045  -4708070.91445                  24067117.7504
        11.0004         10.7504
  20983028.0164   -6091476.75448  -4746596.20147                  20983036.5394
        30.2504         28.5004
  21960756.3914    5935453.51447   4625024.55746                  21960765.4414
        26.5004         22.2504
  20874215.2034   -6880195.76548  -5361188.85847                  20874222.9654
        32.2504         29.0004
 00  5  1 19 54  0.0000000  0  6G 5G 6G17G10G24G30
  20743321.3754    1205404.20948    939270.20147                  20743330.0634
        30.7504         28.7504
  22617035.2584   -8185196.16647  -4625840.00746                  22617045.2464
        20.0004         18.7504
  24058614.0234   -6272647.82745  -4742815.78545                  24058632.0044
        11.0004         10.5004
  20980477.6564   -6104878.43148  -4757039.04847                  20980486.3094
        30.5004         28.5004
  21966547.1334    5965883.10047   4648735.90746                  21966556.1604
        26.5004         22.5004
  20870640.2274   -6898982.24348  -5375827.67747                  20870647.8484
        32.5004         28.7504
 00  5  1 19 54 15.0000000  0  6G 5G 6G17G10G24G30
  20746891.1094    1224162.71348    953887.17647                  20746899.8204
        30.7504         28.7504
  22609905.3364   -8222663.64647  -4655035.41246                  22609915.5004
        20.2504         18.7504
  24050138.2664   -6317189.83445  -4777523.64845                  24050156.1994
        10.7504         11.0004
  20977957.0164   -6118123.37548  -4767359.76547                  20977965.7384
        30.2504         28.5004
  21972342.9534    5996341.80147   4672469.93646                  21972351.8634
        26.5004         22.5004
  20867090.6804   -6917635.28148  -5390362.51147                  20867098.4184
        32.2504         28.7504
 00  5  1 19 54 30.0000000  0  6G 5G 6G17G10G24G30
  20750484.3834    1243045.96048    968601.34547                  20750493.1764
        30.2504         28.5004
  22602777.0084   -8260124.71547  -4684225.80346                  22602786.8674
        20.5004         18.7504
  24041669.9384   -6361691.02045  -4812199.73045                  24041688.1294
        10.7504         10.7504
  20975465.7814   -6131216.11748  -4777561.88047                  20975474.3634
        30.2504         28.2504
  21978143.6884    6026824.03747   4696222.31746                  21978152.5514
        26.5004         22.5004
  20863565.1254   -6936163.00848  -5404799.70147                  20863572.8634
        32.0004         29.0004
 00  5  1 19 54 45.0000000  0  6G 5G 6G17G10G24G30
  20754101.1094    1262052.43348    983411.54047                  20754109.9614
        30.2504         28.5004
  22595649.8834   -8297576.57847  -4713409.03346                  22595659.7664
        20.5004         19.0004
  24033209.6804   -6406148.74245  -4846841.92145                  24033228.6804
        11.0004         11.2504
  20973003.8914   -6144152.49848  -4787642.15747                  20973012.4964
        30.5004         28.5004
  21983949.2274    6057332.23047   4719994.91946                  21983958.3244
        26.5004         22.5004
  20860063.5944   -6954563.00048  -5419137.36447                  20860071.4144
        31.7504         29.0004
 00  5  1 19 55  0.0000000  0  6G 5G 6G17G10G24G30
  20757741.1414    1281180.06748    998316.14347                  20757750.1214
        30.2504         28.5004
  22588524.4694   -8335018.95147  -4742584.87046                  22588534.5044
        20.2504         19.0004
  24024757.6954   -6450561.06645  -4881448.77645                  24024776.9184
        10.7504         11.0004
  20970572.6414   -6156928.95348  -4797597.81747                  20970581.1524
        30.2504         28.2504
  21989759.8284    6087867.30447   4743788.46246                  21989768.9264
        26.2504         22.0004
  20856586.8204   -6972832.53048  -5433373.36147                  20856594.5704
        31.5004         29.0004
 00  5  1 19 55 15.0000000  0  6G 5G 6G17G10G24G30
  20761403.3364    1300425.53048   1013312.56347                  20761412.1884
        30.0004         28.5004
  22581401.5474   -8372450.20047  -4771752.03646                  22581411.6174
        20.5004         19.0004
  24016316.0004   -6494925.70545  -4916018.46045                  24016335.3284
        11.2504         11.2504
  20968171.6804   -6169545.61948  -4807428.96847                  20968180.1914
        30.0004         28.2504
  21995574.8674    6118425.60547   4767600.11046                  21995584.1174
        26.2504         22.2504
  20853135.4384   -6990970.30748  -5447506.69947                  20853143.2234
        31.7504         29.0004
 00  5  1 19 55 30.0000000  0  6G 5G 6G17G10G24G30
  20765088.0704    1319788.51248   1028400.55447                  20765097.1914
        29.7504         28.2504
  22574280.9384   -8409870.59647  -4800910.74646                  22574290.7734
        20.5004         19.0004
  24007883.0474   -6539240.19045  -4950549.04845                  24007901.0164
        11.7504         10.7504
  20965800.5234   -6182005.96848  -4817138.31347                  20965809.1644
        30.2504         28.5004
  22001394.2974    6149006.77247   4791429.57146                  22001403.3714
        26.0004         22.0004
  20849709.0004   -7008977.18348  -5461538.03247                  20849716.7154
        32.2504         29.0004
 00  5  1 19 55 45.0000000  0  6G 5G 6G17G10G24G30
  20768795.2584    1339269.47448   1043580.48147                  20768804.2274
        29.7504         28.2504
  22567161.9774   -8447279.07547  -4830060.16346                  22567171.9304
        21.0004         19.0004
  23999459.6484   -6583503.24045  -4985039.57645                  23999477.4414
        11.5004         11.5004
  20963458.6954   -6194312.46248  -4826727.76747                  20963467.2304
        30.2504         28.2504
  22007217.6484    6179609.38547   4815275.74446                  22007226.8754
        25.7504         22.2504
  20846307.4534   -7026851.88048  -5475466.37047                  20846315.1914
        32.5004         29.0004
 00  5  1 19 56  0.0000000  0  6G 5G 6G17G10G24G30
  20772524.1954    1358864.79048   1058849.51147                  20772533.2814
        29.7504         28.2504
  22560045.5634   -8484676.54147  -4859201.00946                  22560055.2344
        21.0004         19.2504
  23991045.1804   -6627721.11645  -5019494.89145                  23991063.4774
        11.2504         10.7504
  20961144.8594   -6206471.32248  -4836202.18947                  20961153.3364
        30.0004         28.2504
  22013044.3594    6210228.67547   4839134.90946                  22013053.1994
        26.0004         22.0004
  20842930.9534   -7044594.96448  -5489292.14947                  20842938.6334
        32.5004         29.0004
 00  5  1 19 56 15.0000000  0  6G 5G 6G17G10G24G30
  20776275.7894    1378579.71648   1074211.74347                  20776284.6764
        29.7504         28.2504
  22552932.1724   -8522058.27847  -4888329.58946                  22552941.9964
        21.0004         19.5004
  23982639.3754   -6671893.21945  -5053914.54345                  23982657.6844
        11.2504         11.2504
  20958860.1724   -6218478.13148  -4845558.12747                  20958868.6374
        30.0004         28.2504
  22018875.2424    6240869.10147   4863010.54746                  22018884.2814
        26.0004         21.7504
  20839581.1024   -7062198.72348  -5503009.37047                  20839588.8164
        32.5004         29.0004
 00  5  1 19 56 30.0000000  0  6G 5G 6G17G10G24G30
  20780050.0234    1398412.26648   1089665.63147                  20780059.0274
        29.7504         28.2504
  22545820.6804   -8559428.52847  -4917449.21746                  22545830.3874
        20.7504         19.0004
  23974242.5164   -6716019.56745  -5088298.54645                  23974261.5164
        11.5004         11.5004
  20956603.6804   -6230335.47648  -4854797.59847                  20956612.1454
        30.0004         28.2504
  22024709.6644    6271528.90747   4886901.28646                  22024718.8674
        26.0004         21.7504
  20836257.9534   -7079662.55948  -5516617.55747                  20836265.7974
        32.5004         28.7504
 00  5  1 19 56 45.0000000  0  6G 5G 6G17G10G24G30
  20783845.6804    1418359.30048   1105208.72647                  20783854.6254
        29.7504         28.2504
  22538710.9774   -8596789.87547  -4946561.91446                  22538720.9774
        21.0004         19.2504
  23965853.3834   -6760102.30745  -5122648.57745                  23965871.7154
        11.5004         11.0004
  20954374.4454   -6242050.26148  -4863925.98247                  20954383.0984
        30.0004         28.0004
  22030547.2664    6302206.32847   4910805.75346                  22030556.3984
        25.5004         21.5004
  20832961.9064   -7096983.00948  -5530114.01347                  20832969.6684
        32.5004         29.0004
 00  5  1 19 57  0.0000000  0  6G 5G 6G17G10G24G30
  20787663.5704    1438422.53248   1120842.36647                  20787672.4694
        29.5004         28.2504
  22531603.5164   -8634139.64647  -4975665.59846                  22531613.2584
        21.0004         19.5004
  23957472.4614   -6804142.58245  -5156965.48845                  23957490.5594
        11.7504         11.2504
  20952172.0004   -6253625.07748  -4872945.30547                  20952180.6764
        30.2504         28.2504
  22036388.2894    6332901.75347   4934724.24746                  22036397.4924
        25.2504         21.5004
  20829693.8674   -7114158.04748  -5543497.16547                  20829701.7114
        32.5004         28.7504
 00  5  1 19 57 15.0000000  0  6G 5G 6G17G10G24G30
  20791503.4924    1458601.62948   1136566.28847                  20791512.6134
        29.5004         28.0004
  22524498.3914   -8671477.76547  -5004760.18846                  22524508.4024
        21.2504         19.7504
  23949099.8754   -6848143.58146  -5191251.81745                  23949117.5044
        12.2504         11.5004
  20949995.3594   -6265062.26848  -4881857.38547                  20950003.8954
        30.2504         28.2504
  22042232.6804    6363613.50747   4958655.45746                  22042241.6724
        25.2504         21.5004
  20826452.0164   -7131192.67448  -5556770.90647                  20826459.7304
        32.5004         29.0004
 00  5  1 19 57 30.0000000  0  6G 5G 6G17G10G24G30
  20795366.4224    1478901.42448   1152384.26247                  20795375.3324
        29.2504         28.0004
  22517395.5394   -8708804.22847  -5033845.69746                  22517405.2814
        21.2504         19.7504
  23940734.0234   -6892105.91445  -5225508.02645                  23940750.9264
        11.7504         11.5004
  20947845.0394   -6276363.04348  -4890663.16347                  20947853.5044
        30.0004         28.5004
  22048081.1954    6394347.26347   4982603.81646                  22048090.2704
        25.2504         21.5004
  20823237.4774   -7148085.52448  -5569934.17047                  20823245.2504
        32.2504         28.7504
 00  5  1 19 57 45.0000000  0  6G 5G 6G17G10G24G30
  20799253.5634    1499326.71948   1168300.02447                  20799262.5314
        29.2504         27.7504
  22510294.3204   -8746120.04047  -5062922.91846                  22510304.2974
        21.2504         20.0004
  23932374.8594   -6936029.68745  -5259734.16345                  23932393.0514
        11.7504         11.0004
  20945721.2114   -6287524.38748  -4899360.30147                  20945729.8284
        30.2504         28.2504
  22053934.5234    6425106.65547   5006572.15946                  22053943.4574
        25.2504         21.7504
  20820050.5004   -7164832.74848  -5582983.96247                  20820058.3204
        32.0004         28.7504
 00  5  1 19 58  0.0000000  0  6G 5G 6G17G10G24G30
  20803163.8984    1519876.30648   1184312.64047                  20803173.0204
        29.0004         27.7504
  22503194.9534   -8783427.51947  -5091993.63846                  22503204.7894
        21.2504         19.5004
  23924023.3054   -6979918.02946  -5293932.72345                  23924040.8874
        12.0004         11.5004
  20943623.5634   -6298546.23848  -4907948.73647                  20943632.1804
        30.0004         28.5004
  22059792.6024    6455890.65447   5030559.66946                  22059801.7114
        25.5004         21.2504
  20816891.4384   -7181434.47148  -5595920.37347                  20816899.1764
        32.2504         29.0004
 00  5  1 19 58 15.0000000  0  6G 5G 6G17G10G24G30
  20807096.9144    1540544.36248   1200417.57347                  20807106.0594
        29.2504         27.7504
  22496095.4614   -8820735.49347  -5121064.74346                  22496105.4494
        21.2504         20.0004
  23915677.1174   -7023777.38046  -5328108.67145                  23915695.6844
        12.0004         11.2504
  20941551.4924   -6309435.31048  -4916433.71347                  20941560.0394
        30.0004         28.5004
  22065654.6884    6486695.89547   5054563.73146                  22065663.9024
        25.5004         21.5004
  20813758.0784   -7197900.14048  -5608750.77047                  20813765.9454
        32.2504         29.2504
 00  5  1 19 58 30.0000000  0  6G 5G 6G17G10G24G30
  20811054.3674    1561339.44548   1216621.48347                  20811063.2664
        29.0004         27.7504
  22488997.1954   -8858036.97147  -5150130.78846                  22489007.1254
        21.5004         20.0004
  23907338.7814   -7067594.74245  -5362251.91145                  23907356.7384
        11.7504         10.7504
  20939506.5784   -6320181.81248  -4924807.59447                  20939515.0904
        30.2504         28.5004
  22071522.3524    6517531.68447   5078591.60446                  22071531.2504
        25.0004         21.2504
  20810651.6414   -7214225.10348  -5621471.52747                  20810659.3444
        32.2504         29.0004
 00  5  1 19 58 45.0000000  0  6G 5G 6G17G10G24G30
  20815034.1334    1582253.09548   1232917.77947                  20815042.9384
        29.0004         27.7504
  22481899.2194   -8895336.87647  -5179195.60646                  22481909.1134
        21.5004         20.0004
  23899008.4844   -7111371.94246  -5396363.84945                  23899026.5124
        12.5004         11.5004
  20937487.7034   -6330790.30148  -4933073.93347                  20937496.2154
        30.2504         28.2504
  22077394.9614    6548391.58747   5102638.25446                  22077404.0234
        25.0004         21.2504
  20807570.4144   -7230415.56548  -5634087.47747                  20807578.0124
        32.2504         29.0004
 00  5  1 19 59  0.0000000  0  6G 5G 6G17G10G24G30
  20819037.2274    1603289.72648   1249309.91047                  20819046.2544
        28.7504         27.5004
  22474803.0784   -8932627.48647  -5208253.18446                  22474813.0554
        21.5004         20.2504
  23890686.4144   -7155102.99846  -5430439.81346                  23890703.7384
        12.5004         12.0004
  20935496.9924   -6341251.78248  -4941225.72447                  20935505.4804
        30.2504         28.5004
  22083272.4924    6579279.10947   5126706.43446                  22083281.6844
        25.0004         21.2504
  20804515.9144   -7246468.58948  -5646596.33447                  20804523.4884
        32.0004         29.0004
 00  5  1 19 59 15.0000000  0  6G 5G 6G17G10G24G30
  20823063.0864    1624445.64948   1265794.99347                  20823072.0664
        28.7504         27.5004
  22467707.8284   -8969912.83247  -5237306.66046                  22467717.6644
        21.7504         19.7504
  23882373.1564   -7198788.76846  -5464480.52345                  23882390.6914
        12.5004         11.5004
  20933534.6564   -6351563.63248  -4949260.91747                  20933543.2974
        30.0004         28.5004
  22089154.8134    6610191.40047   5150793.91946                  22089163.8754
        25.0004         21.0004
  20801485.9694   -7262390.36048  -5659002.91547                  20801493.6604
        32.2504         29.0004
 00  5  1 19 59 30.0000000  0  6G 5G 6G17G10G24G30
  20827112.1174    1645722.96648   1282374.67047                  20827121.1914
        28.5004         27.2504
  22460613.8914   -9007192.17447  -5266355.45946                  22460623.4574
        21.7504         19.7504
  23874069.0084   -7242425.29546  -5498482.84646                  23874086.5204
        12.5004         12.0004
  20931601.6254   -6361722.94448  -4957177.24747                  20931610.2544
        30.2504         28.2504
  22095042.6724    6641131.19147   5174902.82146                  22095051.8874
        25.0004         21.0004
  20798481.7194   -7278178.06648  -5671305.02747                  20798489.4454
        32.2504         29.0004
 00  5  1 19 59 45.0000000  0  6G 5G 6G17G10G24G30
  20831184.0474    1667122.14948   1299049.30447                  20831193.0164
        28.5004         27.2504
  22453521.1954   -9044464.12347  -5295398.49446                  22453530.8794
        22.0004         20.0004
  23865775.5554   -7286009.09346  -5532444.07445                  23865793.3364
        12.2504         11.5004
  20929697.4304   -6371728.66848  -4964973.90347                  20929705.8364
        30.0004         28.2504
  22100935.9774    6672100.18347   5199034.49046                  22100944.9454
        25.2504         21.0004
  20795504.1724   -7293824.92248  -5683497.38547                  20795512.0164
        32.2504         29.0004
 00  5  1 20  0  0.0000000  0  6G 5G 6G17G10G24G30
  20835278.4144    1688638.04948   1315814.89147                  20835287.4884
        28.5004         27.0004
  22446430.0554   -9081727.75747  -5324435.04746                  22446439.6564
        21.7504         20.0004
  23857492.0164   -7329537.73546  -5566362.34045                  23857510.2774
        12.0004         11.5004
  20927822.8204   -6381580.37748  -4972650.54747                  20927831.3204
        30.2504         28.2504
  22106833.6414    6703093.40047   5223185.02346                  22106842.7384
        25.2504         21.0004
  20792553.0944   -7309334.06748  -5695582.43947                  20792560.8914
        31.7504         28.7504
 00  5  1 20  0 15.0000000  0  6G 5G 6G17G10G24G30
  20839395.3134    1710271.95948   1332672.42847                  20839404.4694
        28.5004         27.2504
  22439341.6954   -9118978.05547  -5353461.20746                  22439351.2034
        22.0004         20.0004
  23849220.2664   -7373005.78246  -5600233.35445                  23849237.4494
        12.0004         11.5004
  20925977.6724   -6391274.97748  -4980204.76247                  20925986.1954
        30.2504         28.5004
  22112736.3754    6734113.01947   5247356.13546                  22112745.2504
        25.2504         21.0004
  20789627.7664   -7324705.80548  -5707560.42247                  20789635.5394
        32.2504         29.0004
 00  5  1 20  0 30.0000000  0  6G 5G 6G17G10G24G30
  20843535.5234    1732027.98148   1349625.12047                  20843544.5394
        28.2504         27.0004
  22432256.1644   -9156210.20047  -5382473.22546                  22432265.9414
        22.0004         20.0004
  23840960.8134   -7416409.13946  -5634053.99645                  23840977.9844
        12.2504         11.5004
  20924163.5554   -6400808.86948  -4987633.75847                  20924171.9494
        30.0004         28.2504
  22118644.2344    6765158.54847   5271547.43446                  22118652.9344
        25.2504         21.0004
  20786729.2664   -7339936.58948  -5719428.57047                  20786737.0164
        32.0004         29.0004
 00  5  1 20  0 45.0000000  0  6G 5G 6G17G10G24G30
  20847697.5864    1753900.46348   1366668.56247                  20847706.6604
        28.2504         27.0004
  22425173.7034   -9193429.73647  -5411475.41646                  22425183.3634
        22.0004         20.0004
  23832712.3914   -7459753.34846  -5667828.54445                  23832730.4184
        12.2504         11.5004
  20922379.1484   -6410185.92848  -4994940.54647                  20922387.6374
        30.0004         28.2504
  22124555.4144    6796221.44547   5295752.27946                  22124564.2074
        25.0004         21.0004
  20783857.3674   -7355029.48648  -5731189.27147                  20783865.1524
        31.5004         29.2504
 00  5  1 20  1  0.0000000  0  6G 5G 6G17G10G24G30
  20851883.3674    1775895.18248   1383807.24447                  20851892.3954
        28.2504         26.7504
  22418094.7584   -9230630.61147  -5440463.06546                  22418104.3134
        22.0004         20.2504
  23824475.8754   -7503036.30746  -5701555.35146                  23824493.1054
        12.0004         12.0004
  20920625.8204   -6419399.97648  -5002120.30947                  20920634.3914
        30.0004         28.2504
  22130471.2424    6827308.46247   5319975.90446                  22130480.3754
        25.0004         21.0004
  20781012.6254   -7369979.17848  -5742838.38947                  20781020.4104
        32.0004         29.2504
 00  5  1 20  1 15.0000000  0  6G 5G 6G17G10G24G30
  20856091.1724    1798007.49748   1401037.56947                  20856100.3524
        28.2504         26.7504
  22411018.2344   -9267816.46147  -5469439.00246                  22411028.0354
        22.0004         20.2504
  23816249.2814   -7546266.49246  -5735241.05845                  23816266.2894
        12.0004         11.7504
  20918902.1484   -6428457.48548  -5009178.09647                  20918910.6604
        30.0004         28.2504
  22136390.5944    6858414.57947   5344214.41446                  22136399.6334
        25.0004         20.5004
  20778194.4454   -7384788.67648  -5754378.25647                  20778202.3364
        31.7504         29.0004
 00  5  1 20  1 30.0000000  0  6G 5G 6G17G10G24G30
  20860322.5084    1820243.07648   1418363.93847                  20860331.6174
        28.0004         26.7504
  22403945.9614   -9304981.75847  -5498398.93546                  22403955.5864
        22.0004         20.0004
  23808033.2734   -7589440.74845  -5768883.14945                  23808049.8954
        11.7504         11.5004
  20917208.7344   -6437355.30848  -5016111.45047                  20917217.1764
        30.0004         28.2504
  22142314.8054    6889546.83447   5368473.30046                  22142323.6094
        25.0004         20.7504
  20775404.4224   -7399449.96048  -5765802.64047                  20775412.3954
        32.5004         29.2504
 00  5  1 20  1 45.0000000  0  6G 5G 6G17G10G24G30
  20864576.9384    1842600.85848   1435785.53247                  20864586.0594
        28.0004         26.7504
  22396877.5084   -9342127.14747  -5527343.34946                  22396887.1454
        22.0004         20.2504
  23799827.2194   -7632563.42345  -5802485.06846                  23799844.6374
        11.7504         12.0004
  20915545.1884   -6446098.39848  -5022924.23447                  20915553.6764
        29.7504         28.0004
  22148243.3914    6920702.75247   5392750.60946                  22148252.2894
        25.0004         20.5004
  20772642.7584   -7413963.28348  -5777111.73047                  20772650.6024
        31.7504         29.0004
 00  5  1 20  2  0.0000000  0  6G 5G 6G17G10G24G30
  20868855.0394    1865082.83747   1453303.90447                  20868864.3134
        27.7504         26.5004
  22389812.9844   -9379251.01247  -5556270.99246                  22389822.6334
        22.0004         20.5004
  23791631.1804   -7675632.19045  -5836044.97545                  23791649.4534
        11.7504         11.5004
  20913911.8284   -6454681.87148  -5029612.64347                  20913920.3754
        29.7504         28.2504
  22154176.7664    6951882.38647   5417046.41846                  22154185.5354
        25.0004         20.5004
  20769909.2034   -7428328.06648  -5788305.07347                  20769917.0234
        30.5004         29.2504
 00  5  1 20  2 15.0000000  0  6G 5G 6G17G10G24G30
  20873156.2584    1887684.69847   1470915.69147                  20873165.5554
        27.5004         26.5004
  22382751.2814   -9416359.16947  -5585186.39346                  22382761.1764
        22.0004         20.5004
  23783444.2894   -7718654.70346  -5869568.84945                  23783462.6564
        12.0004         11.0004
  20912307.9064   -6463110.24748  -5036180.19947                  20912316.5354
        29.7504         28.0004
  22160113.3444    6983079.13447   5441355.54846                  22160122.5944
        25.0004         20.5004
  20767202.2584   -7442553.23648  -5799389.62447                  20767210.0664
        31.7504         29.2504
 00  5  1 20  2 30.0000000  0  6G 5G 6G17G10G24G30
  20877480.7894    1910410.62047   1488624.14947                  20877490.1334
        27.5004         26.2504
  22375693.5864   -9453448.07047  -5614086.79146                  22375703.4694
        22.0004         20.5004
  23775266.0164   -7761630.26946  -5903056.12545                  23775283.9264
        12.2504         11.2504
  20910733.8754   -6471381.12148  -5042625.02247                  20910742.5274
        29.7504         28.0004
  22166054.0864    7014296.19047   5465680.51046                  22166063.1254
        24.7504         20.5004
  20764522.9534   -7456632.73548  -5810360.67047                  20764530.7854
        32.0004         29.2504
 00  5  1 20  2 45.0000000  0  6G 5G 6G17G10G24G30
  20881829.1414    1933261.42247   1506429.91147                  20881838.3794
        27.5004         26.2504
  22368639.8914   -9490516.44547  -5642971.20246                  22368649.5634
        22.2504         20.2504
  23767096.9144   -7804558.45046  -5936506.47745                  23767114.4144
        12.2504         11.7504
  20909190.4844   -6479492.45848  -5048945.53347                  20909198.9614
        29.7504         28.2504
  22171998.9454    7045537.59947   5490024.44046                  22172007.6804
        24.7504         20.5004
  20761872.3444   -7470562.70448  -5821215.20347                  20761880.1174
        31.5004         29.0004
 00  5  1 20  3  0.0000000  0  6G 5G 6G17G10G24G30
  20886199.7814    1956228.34547   1524326.16047                  20886208.9844
        27.5004         26.2504
  22361588.6174   -9527570.82347  -5671844.70146                  22361598.3134
        22.0004         20.2504
  23758935.6484   -7847445.81346  -5969925.03845                  23758953.4654
        12.0004         11.7504
  20907676.4614   -6487447.84548  -5055144.52147                  20907684.8444
        29.7504         28.0004
  22177948.0394    7076800.91247   5514385.43546                  22177956.8444
        24.5004         20.5004
  20759248.7504   -7484349.41048  -5831958.09647                  20759256.6644
        32.0004         29.2504
 00  5  1 20  3 15.0000000  0  6G 5G 6G17G10G24G30
  20890591.7974    1979308.25947   1542310.45547                  20890600.8244
        27.7504         26.2504
  22354539.6024   -9564612.77447  -5700708.51746                  22354549.1914
        21.7504         20.2504
  23750781.2424   -7890295.36345  -6003314.13746                  23750799.1764
        11.7504         12.0004
  20906191.2584   -6495252.42048  -5061225.99547                  20906199.8984
        29.7504         28.2504
  22183901.1254    7108084.03747   5538761.88046                  22183910.1054
        24.7504         20.2504
  20756652.1564   -7497994.26448  -5842590.45847                  20756660.0124
        31.7504         29.0004
 00  5  1 20  3 30.0000000  0  6G 5G 6G17G10G24G30
  20895005.4064    2002502.57947   1560383.90147                  20895014.5274
        27.5004         26.2504
  22347492.5784   -9601645.41547  -5729565.07846                  22347502.2504
        22.0004         20.5004
  23742634.8364   -7933105.63845  -6036672.61746                  23742652.0434
        11.7504         12.2504
  20904734.6804   -6502907.75448  -5067191.17647                  20904743.2154
        29.7504         28.2504
  22189857.9844    7139386.39747   5563153.30846                  22189867.0704
        24.7504         20.2504
  20754082.4924   -7511497.82448  -5853112.72447                  20754090.2774
        31.7504         29.2504
 00  5  1 20  3 45.0000000  0  6G 5G 6G17G10G24G30
  20899442.2974    2025817.56147   1578551.36647                  20899451.5944
        27.2504         26.2504
  22340447.9144   -9638664.53147  -5758411.10646                  22340457.3054
        22.0004         20.2504
  23734497.1024   -7975869.17746  -6069994.67846                  23734514.5784
        12.5004         12.2504
  20903307.4064   -6510407.13548  -5073034.84047                  20903316.0004
        29.7504         28.2504
  22195818.7974    7170712.38747   5587563.15846                  22195827.8364
        24.5004         20.2504
  20751540.3134   -7524857.92048  -5863523.19547                  20751548.1564
        31.5004         29.0004
 00  5  1 20  4  0.0000000  0  6G 5G 6G17G10G24G30
  20903902.5864    2049255.73947   1596814.82547                  20903911.9304
        27.0004         26.0004
  22333405.9694   -9675669.97047  -5787246.47146                  22333415.4414
        22.0004         20.2504
  23726369.4384   -8018580.74546  -6103276.26746                  23726386.4104
        12.7504         12.2504
  20901910.8834   -6517746.87648  -5078754.10447                  20901919.3834
        30.0004         28.2504
  22201784.3204    7202061.25847   5611990.83046                  22201793.5704
        24.7504         20.2504
  20749025.4384   -7538072.70448  -5873820.43847                  20749033.1054
        32.0004         29.2504
 00  5  1 20  4 15.0000000  0  6G 5G 6G17G10G24G30
  20908384.6724    2072809.50247   1615168.35747                  20908394.0634
        27.2504         26.0004
  22326365.5704   -9712667.06047  -5816075.33446                  22326375.0084
        22.2504         20.0004
  23718250.0944   -8061246.04246  -6136521.78146                  23718267.2774
        12.7504         12.2504
  20900543.5314   -6524932.26048  -5084353.09047                  20900551.8674
        30.0004         28.2504
  22207752.8364    7233426.41847   5636431.19546                  22207761.4774
        24.7504         20.2504
  20746537.5084   -7551147.27548  -5884008.42247                  20746545.2464
        32.0004         29.0004
 00  5  1 20  4 30.0000000  0  6G 5G 6G17G10G24G30
  20912889.2194    2096482.15247   1633614.52447                  20912898.6914
        27.2504         26.2504
  22319328.2424   -9749650.16347  -5844893.29546                  22319337.4804
        22.2504         20.2504
  23710140.7344   -8103862.38846  -6169729.16846                  23710157.4614
        13.0004         13.0004
  20899206.1174   -6531960.32448  -5089829.49047                  20899214.5004
        30.0004         28.0004
  22213725.3594    7264811.73147   5660887.26946                  22213734.6564
        25.0004         20.2504
  20744077.0634   -7564077.36148  -5894083.82747                  20744084.9774
        31.7504         29.2504
 00  5  1 20  4 45.0000000  0  6G 5G 6G17G10G24G30
  20917416.9454    2120274.28547   1652153.79347                  20917426.4774
        27.2504         26.2504
  22312293.0314   -9786619.99947  -5873700.92746                  22312302.5634
        22.0004         20.5004
  23702040.2894   -8146429.37846  -6202898.08746                  23702057.2154
        13.0004         12.5004
  20897898.4844   -6538831.41148  -5095183.57547                  20897907.0084
        29.7504         28.2504
  22219702.0004    7296218.94447   5685360.39946                  22219711.2624
        24.7504         20.2504
  20741644.1094   -7576862.14548  -5904045.99947                  20741651.8834
        31.5004         29.0004
 00  5  1 20  5  0.0000000  0  6G 5G 6G17G10G24G30
  20921966.3204    2144180.77747   1670782.17047                  20921975.7464
        27.0004         25.7504
  22305258.7504   -9823584.19747  -5902504.16046                  22305268.2704
        22.0004         19.7504
  23693948.5704   -8188952.39746  -6236032.74846                  23693964.7814
        13.0004         12.5004
  20896619.7424   -6545551.44548  -5100419.95447                  20896628.1724
        29.7504         27.5004
  22225681.8984    7327642.43847   5709846.22146                  22225690.8324
        24.5004         20.0004
  20739237.7034   -7589509.00948  -5913900.71047                  20739245.5004
        31.7504         28.5004
 00  5  1 20  5 15.0000000  0  6G 5G 6G17G10G24G30
  20926539.1174    2168211.08947   1689507.04247                  20926548.4494
        27.2504         26.2504
  22298227.0554   -9860534.62047  -5931296.66046                  22298236.5274
        21.7504         20.5004
  23685866.0394   -8231424.18646  -6269127.46246                  23685882.7664
        13.2504         12.5004
  20895370.3284   -6552117.18448  -5105536.10447                  20895378.7934
        29.7504         28.2504
  22231665.4224    7359086.81847   5734348.31246                  22231674.3094
        24.5004         20.2504
  20736858.6644   -7602010.97948  -5923642.51147                  20736866.4614
        32.2504         29.0004
 00  5  1 20  5 30.0000000  0  6G 5G 6G17G10G24G30
  20931135.7894    2192366.59247   1708329.45147                  20931145.2154
        27.5004         26.2504
  22291198.5314   -9897470.61847  -5960077.92046                  22291207.7584
        22.0004         20.5004
  23677794.1804   -8273843.22546  -6302181.11046                  23677811.3054
        13.5004         13.2504
  20894150.0394   -6558530.09348  -5110533.16347                  20894158.4924
        30.0004         28.0004
  22237652.5314    7390549.09747   5758864.35646                  22237661.7584
        24.5004         20.2504
  20734507.0474   -7614368.57448  -5933271.81147                  20734514.9024
        32.0004         29.0004
 00  5  1 20  5 45.0000000  0  6G 5G 6G17G10G24G30
  20935756.4064    2216647.62347   1727249.68647                  20935765.9384
        27.2504         26.5004
  22284173.0314   -9934389.23547  -5988845.63346                  22284182.5044
        22.0004         20.5004
  23669732.4144   -8316206.07346  -6335190.95846                  23669749.3754
        13.5004         13.0004
  20892959.7814   -6564784.35048  -5115406.60047                  20892968.1524
        29.7504         28.0004
  22243643.5164    7422031.58647   5783396.14946                  22243652.8594
        24.5004         20.7504
  20732182.9304   -7626580.55248  -5942787.64747                  20732190.7274
        32.2504         28.7504
 00  5  1 20  6  0.0000000  0  6G 5G 6G17G10G24G30
  20940399.3284    2241045.40147   1746260.88447                  20940408.7664
        27.2504         26.5004
  22277150.3054   -9971295.13747  -6017603.43546                  22277159.6374
        22.2504         20.5004
  23661680.3444   -8358518.65346  -6368161.63746                  23661696.6724
        13.5004         13.0004
  20891798.4224   -6570886.71548  -5120161.67747                  20891806.9104
        29.5004         28.0004
  22249636.7424    7453527.31247   5807938.25346                  22249645.9104
        24.7504         20.2504
  20729886.3674   -7638649.49148  -5952192.02147                  20729894.2934
        32.5004         28.7504
 00  5  1 20  6 15.0000000  0  6G 5G 6G17G10G24G30
  20945064.5704    2265561.78447   1765364.50647                  20945073.9964
        27.5004         26.5004
  22270130.2344  -10008185.06047  -6046348.79346                  22270139.6134
        22.2504         20.7504
  23653638.2664   -8400778.35346  -6401091.11346                  23653656.0944
        13.2504         12.5004
  20890666.5474   -6576835.43648  -5124797.03147                  20890675.2344
        29.5004         28.0004
  22255634.0004    7485041.13547   5832494.45946                  22255643.3324
        24.7504         20.2504
  20727617.9224   -7650570.83748  -5961481.38847                  20727625.7894
        32.2504         29.0004
 00  5  1 20  6 30.0000000  0  6G 5G 6G17G10G24G30
  20949752.0704    2290194.32747   1784558.63947                  20949761.5664
        27.2504         26.7504
  22263113.0004  -10045059.97047  -6075082.45346                  22263122.4144
        22.2504         20.5004
  23645606.1954   -8442988.61546  -6433982.07246                  23645623.3554
        13.2504         13.0004
  20889563.2274   -6582633.50848  -5129314.99947                  20889571.7734
        29.5004         28.0004
  22261634.5004    7516573.28847   5857064.95046                  22261643.5514
        24.5004         20.2504
  20725376.5554   -7662348.54148  -5970658.83047                  20725384.5634
        32.2504         29.0004
 00  5  1 20  6 45.0000000  0  6G 5G 6G17G10G24G30
  20954461.9614    2314945.54747   1803845.24947                  20954471.4804
        27.2504         26.5004
  22256098.3444  -10081921.69847  -6103805.83246                  22256107.9804
        22.5004         20.7504
  23637583.6334   -8485146.93946  -6466832.55646                  23637600.6174
        13.5004         13.2504
  20888488.2504   -6588281.48448  -5133716.00747                  20888496.9494
        29.5004         28.0004
  22267638.1484    7548123.83347   5881649.76846                  22267647.1054
        24.5004         20.2504
  20723163.1174   -7673981.16648  -5979723.22147                  20723170.9024
        32.2504         29.0004
 00  5  1 20  7  0.0000000  0  6G 5G 6G17G10G24G30
  20959193.9384    2339811.26647   1823221.08047                  20959203.3634
        27.2504         26.5004
  22249085.1954  -10118775.17947  -6132522.79046                  22249094.9964
        22.7504         20.7504
  23629570.1884   -8527255.57246  -6499644.32046                  23629587.0204
        13.5004         13.2504
  20887440.7584   -6593786.81248  -5138005.85747                  20887449.3634
        29.5004         28.0004
  22273644.8594    7579689.58847   5906246.44046                  22273653.8524
        24.2504         20.0004
  20720976.5084   -7685471.72648  -5988676.91247                  20720984.4224
        32.2504         28.7504
 00  5  1 20  7 15.0000000  0  6G 5G 6G17G10G24G30
  20963948.3134    2364795.89347   1842689.56647                  20963957.9024
        27.7504         26.7504
  22242075.6094  -10155611.21647  -6161226.15646                  22242085.0124
        22.7504         21.0004
  23621567.7894   -8569308.88046  -6532412.97346                  23621584.3404
        13.7504         13.2504
  20886421.2664   -6599143.59848  -5142179.96247                  20886429.9064
        29.5004         28.0004
  22279655.4384    7611274.79647   5930858.27146                  22279664.5474
        24.2504         20.0004
  20718818.3054   -7696813.14148  -5997514.38747                  20718826.1134
        32.2504         29.0004
 00  5  1 20  7 30.0000000  0  6G 5G 6G17G10G24G30
  20968724.3914    2389893.57447   1862246.14147                  20968734.0394
        27.5004         26.7504
  22235069.2274  -10192432.32647  -6189917.88846                  22235078.6294
        23.0004         21.2504
  23613575.3054   -8611310.73046  -6565141.54846                  23613591.7734
        13.5004         13.5004
  20885429.7974   -6604354.71248  -5146240.56147                  20885438.4964
        29.5004         28.0004
  22285668.4224    7642874.36247   5955481.28946                  22285677.3554
        24.0004         19.7504
  20716688.0394   -7708008.25148  -6006237.85847                  20716695.9414
        32.2504         29.0004
 00  5  1 20  7 45.0000000  0  6G 5G 6G17G10G24G30
  20973521.6564    2415103.58147   1881890.25047                  20973531.1414
        27.7504         26.7504
  22228064.9064  -10229238.57847  -6218598.04746                  22228074.2974
        23.0004         20.7504
  23605592.0634   -8653260.03646  -6597829.16546                  23605608.2504
        13.2504         13.0004
  20884466.6484   -6609415.28248  -5150183.85147                  20884475.1954
        29.2504         27.7504
  22291685.2344    7674491.34747   5980117.87346                  22291694.3324
        24.0004         19.7504
  20714585.9384   -7719054.47448  -6014845.31447                  20714593.8284
        32.2504         28.7504
 00  5  1 20  8  0.0000000  0  6G 5G 6G17G10G24G30
  20978339.7114    2440421.97147   1901618.80647                  20978349.2664
        27.7504         26.5004
  22221062.7034  -10266034.53447  -6247270.17946                  22221072.0824
        23.2504         20.7504
  23597618.0164   -8695162.84346  -6630480.54146                  23597634.8134
        13.2504         13.0004
  20883531.6644   -6614329.95148  -5154013.44947                  20883540.2814
        29.5004         28.0004
  22297704.4614    7706121.91847   6004765.05646                  22297713.7584
        23.7504         19.5004
  20712511.6334   -7729955.26748  -6023339.44847                  20712519.4774
        32.2504         28.7504
 00  5  1 20  8 15.0000000  0  6G 5G 6G17G10G24G30
  20983180.0164    2465856.62347   1921437.95947                  20983189.5824
        27.7504         26.7504
  22214063.6804  -10302814.68647  -6275929.99546                  22214073.1294
        23.0004         21.2504
  23589653.6334   -8737014.40446  -6663092.01046                  23589670.0664
        13.0004         13.0004
  20882624.7344   -6619094.76848  -5157726.28247                  20882633.2464
        29.2504         28.0004
  22303726.8444    7737771.42547   6029426.99146                  22303736.0234
        23.7504         19.7504
  20710465.6334   -7740706.01548  -6031716.66547                  20710473.5594
        32.2504         28.7504
 00  5  1 20  8 30.0000000  0  6G 5G 6G17G10G24G30
  20988041.2974    2491403.61148   1941344.64547                  20988050.7344
        28.0004         27.0004
  22207067.2974  -10339581.63247  -6304579.52446                  22207076.5944
        23.2504         21.2504
  23581698.4144   -8778819.43446  -6695667.20146                  23581715.5744
        13.0004         12.7504
  20881746.0394   -6623712.43648  -5161324.45147                  20881754.5164
        29.5004         28.0004
  22309751.9694    7769434.24447   6054099.30046                  22309761.0434
        23.5004         19.5004
  20708447.2424   -7751312.77648  -6039981.68547                  20708455.1334
        32.2504         28.7504
 00  5  1 20  8 45.0000000  0  6G 5G 6G17G10G24G30
  20992924.0944    2517062.50848   1961338.53247                  20992933.5204
        28.0004         27.2504
  22200073.4534  -10376336.37347  -6333219.54446                  22200082.9494
        23.2504         21.2504
  23573751.5784   -8820577.98746  -6728206.19646                  23573768.1294
        13.0004         13.0004
  20880895.3134   -6628183.44048  -5164808.33447                  20880903.6954
        29.5004         28.0004
  22315779.3204    7801107.41847   6078779.66846                  22315788.2304
        23.7504         19.5004
  20706456.2974   -7761776.12448  -6048134.95647                  20706464.0124
        32.2504         28.7504
 00  5  1 20  9  0.0000000  0  6G 5G 6G17G10G24G30
  20997828.4384    2542835.29648   1981421.16647                  20997838.0514
        28.2504         27.5004
  22193081.7504  -10413075.84447  -6361847.66246                  22193090.9184
        23.5004         21.7504
  23565814.7734   -8862287.71346  -6760707.12146                  23565830.8674
        13.0004         12.7504
  20880072.9144   -6632504.79748  -5168175.61247                  20880081.4144
        29.5004         28.0004
  22321809.3134    7832794.30847   6103470.73346                  22321818.5394
        23.5004         19.2504
  20704493.2974   -7772091.65348  -6056173.03947                  20704501.1174
        32.2504         28.7504
 00  5  1 20  9 15.0000000  0  6G 5G 6G17G10G24G30
  21002755.4224    2568725.71348   2001595.45547                  21002765.1294
        28.2504         27.2504
  22186094.5784  -10449793.23247  -6390458.57246                  22186103.6994
        23.7504         21.5004
  23557887.4384   -8903945.21646  -6793167.38746                  23557903.1564
        13.0004         13.0004
  20879280.5004   -6636668.12548  -5171419.74847                  20879289.0824
        29.5004         27.7504
  22327842.7424    7864500.99047   6128177.22046                  22327851.6884
        23.5004         19.2504
  20702559.3834   -7782254.66648  -6064092.28247                  20702567.2624
        32.2504         28.7504
 00  5  1 20  9 30.0000000  0  6G 5G 6G17G10G24G30
  21007703.0004    2594725.22948   2021854.76347                  21007712.6724
        28.2504         27.5004
  22179110.6414  -10486495.52547  -6419057.72046                  22179119.8554
        23.7504         21.7504
  23549969.0864   -8945556.66646  -6825591.74346                  23549986.2234
        12.5004         13.0004
  20878518.0554   -6640675.05148  -5174542.01447                  20878526.5784
        29.5004         28.0004
  22333879.2114    7896221.70947   6152894.64846                  22333888.3324
        23.2504         19.2504
  20700653.1724   -7792270.56648  -6071896.88747                  20700661.1214
        32.0004         28.7504
 00  5  1 20  9 45.0000000  0  6G 5G 6G17G10G24G30
  21012670.7344    2620830.07548   2042196.13947                  21012680.2424
        28.5004         27.5004
  22172127.8284  -10523188.56147  -6447649.66446                  22172137.2664
        23.7504         21.7504
  23542058.8984   -8987124.67546  -6857982.25646                  23542075.2854
        12.7504         13.0004
  20877784.9304   -6644527.37048  -5177543.81047                  20877793.4774
        29.5004         28.0004
  22339917.3674    7927953.84647   6177620.96646                  22339926.7114
        23.0004         19.0004
  20698774.1174   -7802144.97148  -6079591.24047                  20698782.1484
        32.0004         28.7504
 00  5  1 20 10  0.0000000  0  6G 5G 6G17G10G24G30
  21017659.1094    2647043.54248   2062622.15747                  21017668.6294
        28.5004         27.7504
  22165148.3444  -10559867.52547  -6476230.63046                  22165157.8874
        24.2504         22.0004
  23534157.6564   -9028646.14046  -6890336.51346                  23534174.1024
        13.0004         12.7504
  20877081.7734   -6648222.49748  -5180423.11347                  20877090.3204
        29.2504         28.0004
  22345958.7344    7959700.95347   6202358.94946                  22345967.9384
        23.0004         19.2504
  20696922.6024   -7811877.00348  -6087174.65047                  20696930.4804
        32.0004         28.7504
 00  5  1 20 10 15.0000000  0  6G 5G 6G17G10G24G30
  21022667.5164    2673363.65348   2083131.27647                  21022677.0234
        28.7504         27.5004
  22158171.2974  -10596531.55147  -6504799.96146                  22158180.5594
        24.5004         22.0004
  23526264.7894   -9070121.61946  -6922654.92546                  23526280.8364
        13.0004         13.0004
  20876408.0004   -6651762.60648  -5183181.62347                  20876416.6054
        29.5004         28.0004
  22352002.1724    7991459.51047   6227105.86446                  22352010.8594
        23.0004         19.0004
  20695096.9924   -7821470.23348  -6094649.90547                  20695104.8364
        32.2504         28.5004
 00  5  1 20 10 30.0000000  0  6G 5G 6G17G10G24G30
  21027696.2274    2699789.77848   2103723.00247                  21027705.9344
        28.7504         27.7504
  22151198.0864  -10633176.24947  -6533354.22646                  22151207.3714
        24.2504         22.0004
  23518381.1564   -9111548.82246  -6954935.72846                  23518397.4614
        13.0004         12.7504
  20875764.0474   -6655147.56248  -5185819.23747                  20875772.4654
        29.7504         28.0004
  22358048.3594    8023231.97147   6251863.60246                  22358057.1884
        23.2504         19.0004
  20693298.2424   -7830922.79348  -6102015.54547                  20693306.1454
        32.2504         28.7504
 00  5  1 20 10 45.0000000  0  6G 5G 6G17G10G24G30
  21032745.2734    2726321.37448   2124396.91147                  21032754.7234
        28.7504         27.5004
  22144228.2114  -10669801.42947  -6561893.28646                  22144237.2974
        24.2504         21.5004
  23510506.6724   -9152928.53146  -6987179.52446                  23510523.1174
        13.0004         12.5004
  20875149.7194   -6658376.41648  -5188335.21647                  20875158.1254
        29.7504         28.0004
  22364097.1564    8055019.11847   6276632.78346                  22364106.3714
        23.2504         19.0004
  20691526.3984   -7840233.79348  -6109270.88147                  20691534.0784
        32.2504         28.7504
 00  5  1 20 11  0.0000000  0  6G 5G 6G17G10G24G30
  21037814.4614    2752961.35548   2145155.27547                  21037823.9694
        28.7504         27.5004
  22137263.2194  -10706403.35547  -6590414.22046                  22137272.2344
        24.2504         22.0004
  23502642.0944   -9194258.04146  -7019384.19746                  23502658.5634
        12.7504         12.7504
  20874565.3204   -6661447.47148  -5190728.23247                  20874573.7384
        29.7504         28.0004
  22370149.9144    8086825.89947   6301417.26946                  22370159.0594
        23.2504         18.7504
  20689782.0554   -7849400.09748  -6116413.46547                  20689789.8054
        32.2504         28.5004
 00  5  1 20 11 15.0000000  0  6G 5G 6G17G10G24G30
  21042904.1024    2779706.72348   2165995.75447                  21042913.6334
        28.7504         27.5004
  22130302.1174  -10742983.86547  -6618918.47446                  22130311.2384
        24.2504         22.0004
  23494785.4924   -9235541.87846  -7051553.29146                  23494801.6914
        12.7504         13.0004
  20874010.1804   -6664363.59048  -5193000.52247                  20874018.5984
        29.5004         28.2504
  22376205.6564    8118648.73347   6326214.26846                  22376214.6844
        22.7504         18.7504
  20688064.1804   -7858428.02748  -6123448.22447                  20688071.9414
        32.2504         28.7504
 00  5  1 20 11 30.0000000  0  6G 5G 6G17G10G24G30
  21048013.2894    2806554.97448   2186916.41147                  21048022.8094
        29.0004         27.5004
  22123344.8444  -10779544.46247  -6647407.21346                  22123353.9184
        24.2504         21.7504
  23486938.5314   -9276780.06246  -7083686.80146                  23486954.9184
        13.2504         13.0004
  20873484.5634   -6667125.98848  -5195153.03147                  20873492.9804
        29.5004         28.0004
  22382264.0084    8150484.70847   6351021.50046                  22382273.0354
        22.7504         18.5004
  20686371.8834   -7867321.06748  -6130377.87647                  20686379.6914
        32.0004         28.7504
 00  5  1 20 11 45.0000000  0  6G 5G 6G17G10G24G30
  21053142.3204    2833508.26248   2207918.90747                  21053151.9104
        28.5004         27.2504
  22116391.6094  -10816084.34347  -6675879.80946                  22116400.5554
        24.2504         22.0004
  23479100.2424   -9317972.39846  -7115784.59446                  23479116.9804
        13.5004         13.2504
  20872987.3834   -6669737.78848  -5197188.18647                  20872995.9184
        29.5004         28.0004
  22388324.0084    8182331.04447   6375836.80146                  22388332.9184
        23.0004         18.7504
  20684704.8134   -7876081.01448  -6137203.81647                  20684712.6804
        32.0004         28.7504
 00  5  1 20 12  0.0000000  0  6G 5G 6G17G10G24G30
  21058292.5944    2860572.11448   2229007.55847                  21058302.1254
        28.2504         27.5004
  22109442.4144  -10852601.88247  -6704334.99046                  22109451.4304
        24.2504         22.0004
  23471269.7814   -9359117.80146  -7147845.81546                  23471285.5354
        13.5004         13.2504
  20872519.1644   -6672199.23948  -5199106.18747                  20872527.6524
        29.5004         27.7504
  22394386.0634    8214187.72847   6400660.17546                  22394395.0314
        23.2504         18.7504
  20683063.2114   -7884707.46348  -6143925.73247                  20683071.0784
        32.0004         28.7504
 00  5  1 20 12 15.0000000  0  6G 5G 6G17G10G24G30
  21063465.0944    2887754.48248   2250188.56347                  21063474.8014
        28.5004         27.5004
  22102498.6094  -10889091.35647  -6732768.30446                  22102507.6954
        24.2504         22.0004
  23463450.3984   -9400208.88846  -7179864.70946                  23463466.9844
        14.0004         13.7504
  20872080.2424   -6674505.25548  -5200903.06947                  20872088.6374
        29.5004         28.0004
  22400451.4694    8246060.78247   6425496.30046                  22400460.6484
        23.2504         19.0004
  20681448.8284   -7893191.28348  -6150536.51047                  20681456.7544
        32.2504         29.0004
 00  5  1 20 12 30.0000000  0  6G 5G 6G17G10G24G30
  21068658.4534    2915045.17648   2271453.97647                  21068668.0904
        28.2504         27.2504
  22095557.7194  -10925566.03147  -6761190.09246                  22095566.5354
        24.2504         21.7504
  23455639.3204   -9441255.34246  -7211848.82646                  23455655.4494
        14.0004         13.7504
  20871669.0314   -6676666.79148  -5202587.37147                  20871677.3794
        29.5004         27.7504
  22406518.2894    8277941.17147   6450338.14746                  22406527.0124
        23.0004         18.2504
  20679860.3134   -7901539.73248  -6157041.79947                  20679868.3794
        32.0004         29.0004
 00  5  1 20 12 45.0000000  0  6G 5G 6G17G10G24G30
  21073874.0314    2942452.46848   2292810.24247                  21073883.7504
        28.2504         27.0004
  22088620.1094  -10962023.34147  -6789598.34746                  22088629.0904
        24.5004         22.2504
  23447838.4924   -9482251.44046  -7243793.69246                  23447854.9614
        14.2504         14.0004
  20871286.2194   -6678677.95148  -5204154.49247                  20871294.6134
        29.0004         27.7504
  22412587.8134    8309836.40647   6475191.55746                  22412597.2034
        23.0004         18.7504
  20678299.0314   -7909744.70048  -6163435.29147                  20678307.0394
        32.0004         29.0004
 00  5  1 20 13  0.0000000  0  6G 5G 6G17G10G24G30
  21079111.5944    2969977.26748   2314258.07147                  21079121.2304
        28.0004         27.2504
  22081685.5634  -10998464.26347  -6817993.83246                  22081694.4144
        24.5004         22.0004
  23440046.7974   -9523193.40446  -7275696.39846                  23440062.6094
        14.7504         14.2504
  20870932.7424   -6680536.17848  -5205602.45247                  20870941.1954
        29.0004         27.5004
  22418659.3984    8341745.83247   6500056.03246                  22418668.8364
        23.0004         18.7504
  20676764.9534   -7917805.63348  -6169716.54347                  20676772.9024
        32.0004         28.7504
 00  5  1 20 13 15.0000000  0  6G 5G 6G17G10G24G30
  21084370.5554    2997613.83148   2335792.99247                  21084380.1804
        28.0004         26.7504
  22074753.1484  -11034895.13047  -6846381.47746                  22074762.2114
        24.5004         22.2504
  23432265.2894   -9564085.31346  -7307560.08346                  23432280.7154
        15.0004         14.5004
  20870607.1334   -6682247.54848  -5206935.97247                  20870615.5744
        29.0004         27.7504
  22424733.6954    8373664.54347   6524927.73646                  22424742.9694
        23.0004         18.7504
  20675257.3364   -7925728.16148  -6175889.95447                  20675265.5084
        32.0004         29.0004
 00  5  1 20 13 30.0000000  0  6G 5G 6G17G10G24G30
  21089652.0704    3025367.45947   2357419.13447                  21089661.8014
        27.7504         26.7504
  22067823.0004  -11071311.93947  -6874758.17246                  22067831.9344
        24.2504         22.2504
  23424494.9144   -9604920.61646  -7339379.66646                  23424510.6454
        14.7504         14.2504
  20870310.4304   -6683805.84148  -5208150.21647                  20870318.8484
        29.5004         27.5004
  22430810.8054    8405598.96447   6549811.68746                  22430819.9734
        23.0004         18.5004
  20673777.5864   -7933504.57248  -6181949.50047                  20673785.7234
        31.7504         28.7504
 00  5  1 20 13 45.0000000  0  6G 5G 6G17G10G24G30
  21094954.5944    3053230.83647   2379130.78947                  21094964.2774
        27.7504         26.5004
  22060895.2584  -11107718.75047  -6903127.07146                  22060904.3794
        24.5004         22.2504
  23416734.1094   -9645702.88546  -7371157.93446                  23416749.8524
        14.7504         14.2504
  20870042.1644   -6685216.23348  -5209249.20447                  20870050.5474
        29.5004         27.7504
  22436889.4844    8437543.63347   6574703.61946                  22436898.3954
        23.0004         18.7504
  20672325.3284   -7941135.39148  -6187895.60447                  20672333.3364
        31.7504         28.7504
 00  5  1 20 14  0.0000000  0  6G 5G 6G17G10G24G30
  21100278.1024    3081206.07747   2400929.61447                  21100287.7734
        27.5004         26.5004
  22053969.3984  -11144113.06247  -6931486.23746                  22053978.3794
        24.5004         22.5004
  23408983.7734   -9686430.65946  -7402893.74346                  23408999.5514
        15.0004         14.2504
  20869802.1804   -6686476.52248  -5210231.23947                  20869810.7504
        29.5004         27.7504
  22442970.9454    8469501.24647   6599605.63946                  22442979.9264
        23.0004         19.0004
  20670901.7814   -7948616.88148  -6193725.34547                  20670909.7424
        31.5004         28.7504
 00  5  1 20 14 15.0000000  0  6G 5G 6G17G10G24G30
  21105621.3364    3109284.74947   2422809.03447                  21105631.1484
        27.2504         26.2504
  22047045.2114  -11180499.71847  -6959839.43546                  22047054.1094
        24.5004         22.0004
  23401243.1484   -9727107.67746  -7434589.97846                  23401258.7384
        14.7504         14.2504
  20869590.3204   -6687590.20848  -5211099.03647                  20869598.8444
        29.2504         27.7504
  22449054.5004    8501469.51947   6624515.96846                  22449063.4454
        22.7504         18.5004
  20669506.2974   -7955951.11748  -6199440.34347                  20669514.3524
        31.5004         28.5004
 00  5  1 20 14 30.0000000  0  6G 5G 6G17G10G24G30
  21110984.7274    3137469.55647   2444771.15747                  21110994.5164
        27.2504         26.2504
  22040123.7894  -11216872.50647  -6988181.83346                  22040133.0634
        24.2504         22.0004
  23393512.9924   -9767729.40646  -7466243.14146                  23393529.0164
        15.2504         14.5004
  20869406.8914   -6688553.89748  -5211849.95147                  20869415.2384
        29.5004         27.7504
  22455140.6804    8533454.14047   6649439.03746                  22455149.6604
        22.5004         18.7504
  20668139.7114   -7963131.57648  -6205035.51747                  20668147.6374
        31.5004         28.5004
 00  5  1 20 14 45.0000000  0  6G 5G 6G17G10G24G30
  21116368.1024    3165759.75647   2466815.40247                  21116377.7854
        27.0004         26.0004
  22033205.5704  -11253227.72847  -7016510.53346                  22033214.6804
        24.2504         22.0004
  23385793.5394   -9808293.84646  -7497851.66246                  23385809.1294
        15.2504         15.0004
  20869252.2664   -6689366.28348  -5212482.97047                  20869260.6024
        29.5004         27.7504
  22461230.6254    8565456.41547   6674375.85246                  22461239.7234
        22.5004         18.5004
  20666802.4774   -7970159.13848  -6210511.54747                  20666810.5664
        31.5004         28.5004
 00  5  1 20 15  0.0000000  0  6G 5G 6G17G10G24G30
  21121770.8364    3194151.22447   2488938.55947                  21121780.6134
        26.7504         26.0004
  22026290.5784  -11289565.03047  -7044825.28346                  22026299.7114
        24.5004         22.0004
  23378084.7274   -9848803.46646  -7529417.46346                  23378100.0824
        15.2504         14.7504
  20869126.1564   -6690029.00148  -5212999.36247                  20869134.3164
        29.5004         27.7504
  22467322.8914    8597471.97747   6699323.02646                  22467331.9184
        22.7504         18.5004
  20665493.4224   -7977038.31048  -6215871.94947                  20665501.6294
        31.5004         28.5004
 00  5  1 20 15 15.0000000  0  6G 5G 6G17G10G24G30
  21127192.5164    3222642.50647   2511139.49247                  21127202.2344
        26.5004         25.7504
  22019379.4534  -11325882.63747  -7073124.67346                  22019388.5514
        24.2504         22.0004
  23370386.2424   -9889260.50646  -7560942.29746                  23370402.2544
        15.5004         14.7504
  20869028.7504   -6690542.01648  -5213399.10747                  20869036.9694
        29.5004         28.0004
  22473417.8914    8629501.16147   6724280.82246                  22473426.7194
        22.7504         18.5004
  20664212.3754   -7983769.69748  -6221117.19447                  20664220.4414
        31.7504         28.7504
 00  5  1 20 15 30.0000000  0  6G 5G 6G17G10G24G30
  21132634.9064    3251240.53147   2533423.59846                  21132644.8014
        26.5004         25.5004
  22012472.9534  -11362176.62847  -7101405.66646                  22012482.3204
        24.5004         22.2504
  23362697.4144   -9929663.25446  -7592424.82146                  23362713.0044
        15.2504         15.0004
  20868960.5004   -6690899.82348  -5213677.91247                  20868968.7894
        29.7504         28.0004
  22479516.4844    8661549.27447   6749253.35446                  22479525.5354
        22.5004         18.5004
  20662960.6174   -7990347.95048  -6226243.11747                  20662968.5554
        31.7504         28.5004
 00  5  1 20 15 45.0000000  0  6G 5G 6G17G10G24G30
  21138096.2424    3279941.07747   2555787.59446                  21138106.1024
        26.5004         25.5004
  22005570.5554  -11398449.35047  -7129670.08946                  22005579.5354
        24.5004         22.2504
  23355018.8674   -9970014.63946  -7623867.32446                  23355034.2464
        15.2504         14.7504
  20868921.2274   -6691105.85948  -5213838.45047                  20868929.7274
        29.7504         27.7504
  22485617.4454    8693609.46847   6774235.31446                  22485626.8594
        22.2504         18.2504
  20661737.8204   -7996774.22548  -6231250.61347                  20661745.8404
        31.7504         28.5004
 00  5  1 20 16  0.0000000  0  6G 5G 6G17G10G24G30
  21143578.0704    3308748.63547   2578234.97446                  21143587.9064
        26.2504         25.2504
  21998672.6804  -11434698.28347  -7157915.97846                  21998681.5784
        24.5004         22.2504
  23347349.7424  -10010313.54246  -7655268.92146                  23347365.5084
        15.0004         14.7504
  20868911.4454   -6691157.30748  -5213878.53247                  20868920.1334
        29.5004         28.0004
  22491720.4774    8725682.44647   6799227.22946                  22491729.6684
        22.0004         18.2504
  20660544.0004   -8003048.28648  -6236139.50947                  20660552.0084
        31.7504         28.5004
 00  5  1 20 16 15.0000000  0  6G 5G 6G17G10G24G30
  21149080.1954    3337662.11747   2600764.89346                  21149090.2074
        26.2504         25.5004
  21991777.9614  -11470929.71747  -7186148.23146                  21991787.1174
        24.7504         22.2504
  23339690.6804  -10050564.76846  -7686633.38246                  23339706.3284
        15.2504         15.0004
  20868930.0314   -6691059.60548  -5213802.39347                  20868938.4264
        29.5004         27.7504
  22497825.7344    8757764.97747   6824226.57746                  22497835.0434
        22.0004         18.2504
  20659377.6954   -8009176.16548  -6240914.48547                  20659385.7734
        31.7504         28.7504
 00  5  1 20 16 30.0000000  0  6G 5G 6G17G10G24G30
  21154603.0554    3366683.95047   2623379.24246                  21154613.2074
        26.0004         25.2504
  21984887.0234  -11507142.01647  -7214365.56746                  21984895.9574
        24.7504         22.2504
  23332039.9694  -10090767.01946  -7717959.67446                  23332055.2664
        15.0004         15.0004
  20868976.6254   -6690813.76048  -5213610.81747                  20868985.0204
        29.5004         27.7504
  22503932.7504    8789858.27947   6849234.33446                  22503941.9414
        21.7504         18.0004
  20658239.4224   -8015158.04348  -6245575.70647                  20658247.3014
        31.7504         28.5004
 00  5  1 20 16 45.0000000  0  6G 5G 6G17G10G24G30
  21160146.8524    3395816.60247   2646079.93746                  21160156.8634
        26.2504         25.2504
  21978000.2344  -11543331.89047  -7242565.43446                  21978009.5434
        24.7504         22.5004
  23324399.1414  -10130918.80146  -7749246.63846                  23324414.2854
        15.2504         15.0004
  20869052.1804   -6690417.05348  -5213301.68947                  20869060.4924
        29.5004         27.5004
  22510041.8284    8821963.03347   6874251.00346                  22510050.7974
        21.5004         18.0004
  20657129.0944   -8020993.53748  -6250122.85747                  20657136.9964
        31.7504         28.7504
 00  5  1 20 17  0.0000000  0  6G 5G 6G17G10G24G30
  21165712.0554    3425060.28347   2668867.15146                  21165722.0554
        26.0004         25.5004
  21971117.2974  -11579500.74247  -7270748.92346                  21971126.3364
        24.7504         22.5004
  23316767.8984  -10171021.29246  -7780495.19346                  23316783.7464
        15.2504         15.0004
  20869156.6884   -6689868.03248  -5212873.87347                  20869165.0594
        29.7504         27.5004
  22516153.2974    8854076.42247   6899274.40146                  22516162.2894
        21.5004         18.0004
  20656046.1564   -8026684.48648  -6254557.37847                  20656054.2814
        31.7504         28.7504
 00  5  1 20 17 15.0000000  0  6G 5G 6G17G10G24G30
  21171298.3054    3454417.70747   2691743.00146                  21171308.1884
        26.0004         25.2504
  21964238.5634  -11615650.04947  -7298917.17546                  21964247.7424
        25.0004         22.7504
  23309145.8524  -10211074.21546  -7811705.14246                  23309161.3014
        14.7504         14.7504
  20869290.6334   -6689165.19948  -5212326.20347                  20869298.9924
        29.5004         27.7504
  22522265.7274    8886198.33147   6924304.44246                  22522275.0234
        21.2504         17.7504
  20654991.3134   -8032227.50748  -6258876.62747                  20654999.3674
        31.7504         28.5004
 00  5  1 20 17 30.0000000  0  6G 5G 6G17G10G24G30
  21176906.4534    3483887.81547   2714706.65446                  21176916.3714
        26.0004         25.0004
  21957362.4224  -11651784.09747  -7327073.54146                  21957371.5784
        25.0004         22.7504
  23301533.0084  -10251078.78746  -7842877.37546                  23301548.3984
        14.7504         14.7504
  20869452.8674   -6688311.96148  -5211661.33647                  20869461.1454
        29.5004         27.7504
  22528379.3204    8918325.28147   6949338.41946                  22528388.8054
        21.2504         17.5004
  20653964.3914   -8037623.80948  -6263081.55647                  20653972.1994
        31.7504         28.5004
 00  5  1 20 17 45.0000000  0  6G 5G 6G17G10G24G30
  21182536.0234    3513472.73247   2737759.76946                  21182545.9884
        26.0004         25.0004
  21950490.4454  -11687896.99747  -7355213.42346                  21950499.4144
        25.2504         22.7504
  23293931.0314  -10291027.93446  -7874006.46146                  23293946.4224
        14.7504         14.7504
  20869644.6024   -6687303.85848  -5210875.79547                  20869652.9844
        29.7504         27.7504
  22534494.1644    8950458.44247   6974377.22946                  22534503.8134
        21.2504         17.7504
  20652966.3674   -8042868.64748  -6267168.45347                  20652974.3054
        31.7504         28.5004
 00  5  1 20 18  0.0000000  0  6G 5G 6G17G10G24G30
  21188187.1954    3543168.15547   2760898.98446                  21188197.2304
        25.7504         25.0004
  21943622.0704  -11723988.76947  -7383336.83746                  21943630.9574
        25.2504         23.2504
  23286339.1254  -10330923.50446  -7905093.77546                  23286354.1414
        14.5004         14.5004
  20869865.2664   -6686145.07348  -5209972.83647                  20869873.7774
        29.7504         27.7504
  22540609.7274    8982596.34047   6999419.72546                  22540619.3054
        21.0004         17.7504
  20651996.2974   -8047965.87248  -6271140.33047                  20652004.2584
        31.7504         28.5004
 00  5  1 20 18 15.0000000  0  6G 5G 6G17G10G24G30
  21193858.6024    3572972.17347   2784122.83246                  21193868.7304
        26.0004         25.0004
  21936758.1644  -11760059.28847  -7411443.69746                  21936767.3914
        25.2504         23.0004
  23278756.7894  -10370767.44846  -7936140.86446                  23278772.6024
        14.2504         14.7504
  20870114.3524   -6684835.78948  -5208952.60747                  20870122.6174
        30.0004         27.7504
  22546726.5004    9014739.64147   7024466.43446                  22546736.0314
        21.0004         17.5004
  20651053.9384   -8052918.64548  -6274999.64947                  20651061.8524
        31.7504         28.7504
 00  5  1 20 18 30.0000000  0  6G 5G 6G17G10G24G30
  21199550.6484    3602883.71347   2807430.45646                  21199560.6254
        26.0004         25.0004
  21929898.9454  -11796105.53747  -7439531.64446                  21929908.0784
        25.5004         23.2504
  23271185.2894  -10410556.65846  -7967145.31246                  23271200.1884
        15.0004         14.5004
  20870392.4844   -6683373.93348  -5207813.49547                  20870400.7734
        30.0004         27.7504
  22552844.6334    9046890.65447   7049519.15846                  22552854.4694
        20.5004         17.5004
  20650139.1884   -8057725.16248  -6278745.00147                  20650147.1024
        31.7504         28.7504
 00  5  1 20 18 45.0000000  0  6G 5G 6G17G10G24G30
  21205262.3134    3632897.87547   2830818.04646                  21205272.3954
        25.7504         25.2504
  21923044.0554  -11832127.89247  -7467600.97046                  21923053.0824
        25.5004         23.2504
  23263623.6954  -10450291.79346  -7998107.61746                  23263638.4304
        14.7504         14.5004
  20870699.6254   -6681759.28748  -5206555.31847                  20870707.8794
        30.0004         27.7504
  22558963.6804    9079046.89147   7074575.95046                  22558973.3054
        20.7504         17.5004
  20649252.3834   -8062385.30348  -6282376.29347                  20649260.2384
        31.7504         28.5004
 00  5  1 20 19  0.0000000  0  6G 5G 6G17G10G24G30
  21210993.3754    3663014.30447   2854285.32346                  21211003.4574
        26.0004         25.0004
  21916193.5474  -11868126.95647  -7495652.15246                  21916202.4694
        25.7504         23.2504
  23256072.7734  -10489972.03046  -8029027.13846                  23256087.7424
        15.0004         14.5004
  20871036.5084   -6679990.34648  -5205176.91447                  20871044.7734
        29.7504         28.0004
  22565084.0164    9111209.14947   7099637.43146                  22565093.7234
        20.5004         17.2504
  20648393.6484   -8066897.67948  -6285892.44647                  20648401.5634
        32.0004         28.5004
 00  5  1 20 19 15.0000000  0  6G 5G 6G17G10G24G30
  21216744.4454    3693235.61947   2877834.32946                  21216754.5514
        25.7504         24.7504
  21909348.1954  -11904100.02747  -7523683.07846                  21909356.9774
        25.7504         23.2504
  23248533.0394  -10529592.62746  -8059900.18846                  23248547.9844
        15.0004         14.7504
  20871402.8834   -6678063.48048  -5203675.45247                  20871411.3014
        29.7504         27.7504
  22571206.4694    9143382.39247   7124707.48146                  22571216.3754
        20.5004         17.2504
  20647564.2974   -8071257.24448  -6289289.52447                  20647572.1174
        32.0004         28.2504
 00  5  1 20 19 30.0000000  0  6G 5G 6G17G10G24G30
  21222514.4534    3723557.31747   2901461.55246                  21222524.5474
        26.0004         25.0004
  21902507.3204  -11940048.50247  -7551694.83446                  21902515.9024
        26.0004         23.0004
  23241003.6804  -10569157.66846  -8090729.96346                  23241018.4264
        15.0004         14.7504
  20871799.3594   -6675980.67248  -5202052.47947                  20871807.7424
        30.0004         28.0004
  22577331.0554    9175567.65147   7149786.88346                  22577340.4344
        20.5004         17.2504
  20646763.5084   -8075466.31148  -6292569.33247                  20646771.3984
        31.7504         28.5004
 00  5  1 20 19 45.0000000  0  6G 5G 6G17G10G24G30
  21228304.0084    3753980.46647   2925167.83546                  21228313.9964
        26.0004         25.0004
  21895672.6414  -11975965.45747  -7579682.03846                  21895681.4694
        26.2504         23.2504
  23233485.8524  -10608665.62046  -8121515.23446                  23233501.0434
        15.2504         14.5004
  20872226.0164   -6673738.71648  -5200305.49247                  20872234.4694
        30.0004         28.0004
  22583458.4844    9207768.92847   7174878.77246                  22583468.2624
        20.5004         17.0004
  20645991.5234   -8079522.45548  -6295729.97947                  20645999.4494
        31.7504         28.5004
 00  5  1 20 20  0.0000000  0  6G 5G 6G17G10G24G30
  21234111.1644    3784498.05847   2948947.70246                  21234121.2814
        26.0004         25.0004
  21888843.1414  -12011854.58147  -7607647.55146                  21888851.9104
        26.2504         23.2504
  23225977.6644  -10648122.21246  -8152260.50346                  23225992.2114
        15.5004         14.7504
  20872682.0944   -6671342.75648  -5198438.50247                  20872690.5354
        30.0004         28.0004
  22589588.7734    9239982.40547   7199980.16146                  22589598.4104
        20.5004         17.2504
  20645247.3754   -8083432.98348  -6298777.16247                  20645255.2074
        31.7504         28.5004
 00  5  1 20 20 15.0000000  0  6G 5G 6G17G10G24G30
  21239936.1024    3815107.80647   2972799.38746                  21239946.3484
        26.0004         25.0004
  21882018.1724  -12047720.35147  -7635594.86346                  21882026.8484
        26.5004         23.5004
  23218477.7344  -10687531.37946  -8182968.81046                  23218492.4924
        15.7504         14.7504
  20873166.6414   -6668796.49648  -5196454.39547                  20873175.0004
        30.0004         28.0004
  22595720.6094    9272206.46647   7225089.81446                  22595730.4694
        20.5004         17.0004
  20644530.1644   -8087201.58648  -6301713.75047                  20644538.1024
        31.7504         28.7504
 00  5  1 20 20 30.0000000  0  6G 5G 6G17G10G24G30
  21245779.4454    3845814.17947   2996726.35946                  21245789.6564
        26.0004         24.7504
  21875198.0004  -12083559.50647  -7663521.44146                  21875206.6994
        26.5004         23.5004
  23210988.4304  -10726888.86046  -8213636.83346                  23211003.5394
        15.7504         15.0004
  20873680.7114   -6666094.95648  -5194349.28847                  20873688.9654
        30.2504         28.2504
  22601855.4224    9304443.34547   7250209.43946                  22601864.9534
        20.5004         16.7504
  20643841.5704   -8090821.77748  -6304534.69547                  20643849.6134
        31.7504         28.5004
 00  5  1 20 20 45.0000000  0  6G 5G 6G17G10G24G30
  21251639.7664    3876610.56647   3020723.47546                  21251649.8714
        26.0004         25.2504
  21868381.6024  -12119380.54147  -7691433.89646                  21868390.2424
        26.5004         23.7504
  23203507.5084  -10766201.25546  -8244269.74046                  23203521.8324
        16.0004         15.2504
  20874222.5164   -6663246.77148  -5192129.91147                  20874230.7584
        30.0004         28.0004
  22607990.8284    9336685.69347   7275333.34046                  22608000.1484
        20.5004         17.0004
  20643179.3914   -8094299.95448  -6307244.97947                  20643187.4694
        31.7504         28.7504
 00  5  1 20 21  0.0000000  0  6G 5G 6G17G10G24G30
  21257519.4774    3907507.77947   3044799.15546                  21257529.8984
        25.7504         25.0004
  21861570.0004  -12155175.86847  -7719326.32146                  21861578.7234
        26.5004         23.7504
  23196036.5084  -10805460.53746  -8274861.25346                  23196050.8794
        16.0004         15.0004
  20874793.6884   -6660245.43048  -5189791.19847                  20874802.1054
        30.0004         27.7504
  22614128.4304    9368939.23747   7300465.95646                  22614137.9024
        20.5004         16.5004
  20642546.5704   -8097626.06948  -6309836.77247                  20642554.6844
        31.7504         28.5004
 00  5  1 20 21 15.0000000  0  6G 5G 6G17G10G24G30
  21263417.6804    3938503.93747   3068951.93646                  21263428.0554
        25.5004         25.2504
  21854762.8054  -12190946.87247  -7747199.79146                  21854771.6454
        26.2504         23.7504
  23188575.0084  -10844671.72146  -8305415.29946                  23188589.2624
        16.7504         15.0004
  20875393.3984   -6657094.07448  -5187335.58547                  20875401.6644
        30.2504         28.0004
  22620267.5084    9401200.57947   7325604.64546                  22620276.9104
        20.2504         16.7504
  20641941.7814   -8100804.63148  -6312313.59247                  20641949.8134
        31.7504         28.5004
 00  5  1 20 21 30.0000000  0  6G 5G 6G17G10G24G30
  21269335.6644    3969601.96147   3093184.09546                  21269345.9344
        26.0004         25.2504
  21847961.2894  -12226688.21547  -7775050.14746                  21847969.8364
        26.5004         23.7504
  23181122.6724  -10883832.71346  -8335930.22446                  23181136.7504
        16.5004         15.0004
  20876022.0704   -6653790.31548  -5184761.21847                  20876030.2774
        30.0004         28.0004
  22626408.4774    9433471.05947   7350750.45846                  22626417.7974
        20.5004         16.7504
  20641365.1644   -8103834.84148  -6314674.81047                  20641373.1254
        31.7504         28.2504
 00  5  1 20 21 45.0000000  0  6G 5G 6G17G10G24G30
  21275272.5004    4000800.09347   3117494.26046                  21275282.7584
        26.0004         25.2504
  21841165.5004  -12262401.19347  -7802878.40846                  21841174.1764
        26.5004         23.7504
  23173679.3984  -10922947.37546  -8366409.04846                  23173693.6294
        17.0004         15.2504
  20876678.6954   -6650339.42748  -5182072.20847                  20876686.9384
        30.0004         28.0004
  22632549.9454    9465743.41647   7375897.72446                  22632559.5234
        20.5004         16.7504
  20640815.5004   -8106722.12748  -6316924.65847                  20640823.2974
        31.2504         28.0004
 00  5  1 20 22  0.0000000  0  6G 5G 6G17G10G24G30
  21281229.3674    4032101.79547   3141885.12846                  21281239.7424
        25.7504         25.5004
  21834375.1254  -12298084.93847  -7830683.88246                  21834383.9064
        26.5004         23.7504
  23166245.5634  -10962012.18546  -8396849.03446                  23166259.7464
        16.7504         15.2504
  20877363.1174   -6646742.34848  -5179269.27747                  20877371.5004
        30.0004         27.7504
  22638691.0704    9498016.43947   7401045.52446                  22638700.6604
        20.5004         16.5004
  20640293.6254   -8109464.54848  -6319061.62347                  20640301.6334
        31.5004         28.5004
 00  5  1 20 22 15.0000000  0  6G 5G 6G17G10G24G30
  21287205.7114    4063509.20247   3166358.36346                  21287215.8874
        26.0004         25.2504
  21827589.4774  -12333742.35747  -7858468.84146                  21827598.2584
        26.2504         24.0004
  23158821.3444  -11001026.82246  -8427249.91446                  23158835.3164
        17.0004         15.2504
  20878075.3054   -6643000.23648  -5176353.33547                  20878083.5234
        30.0004         28.0004
  22644832.5634    9530290.22647   7426193.91746                  22644841.9184
        20.2504         16.7504
  20639799.4924   -8112062.15348  -6321085.74547                  20639807.4774
        31.5004         28.5004
 00  5  1 20 22 30.0000000  0  6G 5G 6G17G10G24G30
  21293203.2424    4095025.91847   3190916.77446                  21293213.6174
        25.5004         25.5004
  21820809.3364  -12369372.41447  -7886232.48046                  21820818.2704
        26.7504         23.7504
  23151406.5704  -11039990.55846  -8457611.15446                  23151420.5664
        17.0004         15.7504
  20878815.4614   -6639109.48548  -5173321.57047                  20878823.6684
        30.0004         27.7504
  22650974.7814    9562567.88447   7451345.31146                  22650984.3134
        20.2504         16.5004
  20639333.4304   -8114510.19048  -6322993.32047                  20639341.3794
        31.7504         28.5004
 00  5  1 20 22 45.0000000  0  6G 5G 6G17G10G24G30
  21299221.1564    4126649.18947   3215558.21746                  21299231.5204
        25.7504         25.5004
  21814033.6724  -12404979.24247  -7913978.01846                  21814042.3484
        26.5004         23.7504
  23144001.0164  -11078906.49646  -8487935.12446                  23144014.9654
        17.0004         16.2504
  20879584.0394   -6635071.25548  -5170174.88947                  20879592.3754
        30.0004         28.0004
  22657117.7424    9594848.37247   7476498.93346                  22657127.6024
        20.2504         16.7504
  20638895.5084   -8116812.55448  -6324787.38247                  20638903.4804
        31.5004         28.2504
 00  5  1 20 23  0.0000000  0  6G 5G 6G17G10G24G30
  21305259.4064    4158380.78847   3240284.06846                  21305269.9694
        25.7504         25.2504
  21807262.3674  -12440561.50347  -7941704.41746                  21807271.0664
        26.5004         24.0004
  23136604.7814  -11117772.38946  -8518220.11446                  23136619.1764
        17.2504         16.0004
  20880380.9844   -6630883.22648  -5166911.47747                  20880389.3204
        30.0004         28.0004
  22663261.4304    9627134.64247   7501657.04846                  22663271.1724
        20.2504         16.7504
  20638485.3834   -8118968.55348  -6326467.39947                  20638493.3914
        31.7504         28.5004
 00  5  1 20 23 15.0000000  0  6G 5G 6G17G10G24G30
  21311318.0944    4190220.30647   3265094.01446                  21311328.6214
        25.5004         25.2504
  21800496.6024  -12476116.14547  -7969409.29646                  21800505.3014
        26.5004         23.7504
  23129218.4454  -11156587.85546  -8548465.80946                  23129232.7704
        17.5004         16.0004
  20881207.2814   -6626540.94948  -5163527.87847                  20881215.5704
        30.0004         28.0004
  22669406.8134    9659428.07947   7526820.74746                  22669416.7074
        20.2504         16.5004
  20638103.0004   -8120977.29948  -6328032.67247                  20638111.1484
        31.7504         28.2504
 00  5  1 20 23 30.0000000  0  6G 5G 6G17G10G24G30
  21317396.6484    4222163.04547   3289984.39146                  21317407.1994
        25.5004         25.5004
  21793735.0784  -12511646.80047  -7997095.48246                  21793743.7664
        26.5004         23.7504
  23121841.3364  -11195355.09746  -8578673.92846                  23121855.6954
        17.2504         16.0004
  20882062.8984   -6622045.00648  -5160024.53347                  20882071.3524
        30.2504         28.0004
  22675553.3054    9691727.83947   7551989.37846                  22675562.8134
        20.2504         16.5004
  20637748.1884   -8122842.20348  -6329485.85747                  20637756.3834
        31.5004         28.5004
 00  5  1 20 23 45.0000000  0  6G 5G 6G17G10G24G30
  21323494.1414    4254204.72647   3314951.86346                  21323504.8794
        25.5004         25.2504
  21786977.5704  -12547159.18647  -8024767.43046                  21786986.1994
        26.5004         24.0004
  23114472.8674  -11234075.97446  -8608845.90046                  23114487.0984
        17.7504         16.0004
  20882946.8594   -6617398.79848  -5156404.10147                  20882955.3244
        30.2504         28.0004
  22681700.4064    9724031.21847   7577160.83246                  22681710.1724
        20.2504         16.5004
  20637420.6334   -8124564.42348  -6330827.86147                  20637428.6174
        31.7504         28.7504
 00  5  1 20 24  0.0000000  0  6G 5G 6G17G10G24G30
  21329612.2194    4286355.07747   3340004.01646                  21329622.8054
        25.5004         25.2504
  21780224.2194  -12582646.90047  -8052420.15246                  21780232.7774
        26.7504         24.0004
  23107114.9224  -11272741.09846  -8638974.45746                  23107129.1884
        17.0004         16.0004
  20883861.9454   -6612590.46448  -5152657.33747                  20883870.4454
        30.0004         28.0004
  22687850.6094    9756351.40247   7602345.37346                  22687860.3054
        20.0004         16.5004
  20637122.6724   -8126129.87648  -6332047.71047                  20637130.5744
        31.7504         28.5004
 00  5  1 20 24 15.0000000  0  6G 5G 6G17G10G24G30
  21335748.8594    4318603.88847   3365132.89147                  21335759.5514
        25.2504         25.7504
  21773473.9614  -12618120.11747  -8080061.58546                  21773482.4844
        26.2504         23.7504
  23099767.0474  -11311355.64546  -8669063.58646                  23099781.3364
        17.2504         16.2504
  20884806.1724   -6607627.66548  -5148790.21347                  20884814.6374
        30.2504         28.0004
  22694003.5164    9788683.17546   7627538.94346                  22694012.9774
        19.7504         16.5004
  20636853.2734   -8127545.93848  -6333151.14747                  20636861.2814
        31.7504         28.7504
 00  5  1 20 24 30.0000000  0  6G 5G 6G17G10G24G30
  21341904.2114    4350949.53247   3390337.20846                  21341914.8204
        25.2504         25.2504
  21766726.2734  -12653578.35847  -8107691.34546                  21766734.6214
        26.2504         24.0004
  23092428.3834  -11349918.00746  -8699112.06446                  23092442.6844
        17.0004         16.2504
  20885780.6954   -6602508.60048  -5144801.32147                  20885789.0204
        30.2504         28.0004
  22700157.7344    9821026.62347
        20.0004
  20636612.3984   -8128811.15348  -6334137.04647                  20636620.5594
        31.7504         28.5004
 00  5  1 20 24 45.0000000  0  6G 5G 6G17G10G24G30
  21348079.0784    4383397.83047   3415621.53246                  21348089.8524
        25.0004         25.0004
  21759983.1174  -12689013.82847  -8135303.35946                  21759991.9104
        26.0004         24.0004
  23085101.6884  -11388418.89746  -8729112.63746                  23085115.7304
        17.2504         16.2504
  20886785.5864   -6597227.23248  -5140685.95847                  20886793.9574
        30.5004         28.2504
  22706315.9384    9853386.50847
        20.2504
  20636401.6414   -8129918.32648  -6334999.79447                  20636409.7774
        31.7504         28.5004
 00  5  1 20 25  0.0000000  0  6G 5G 6G17G10G24G30
  21354272.5634    4415944.70547   3440982.65646                  21354283.2664
        25.0004         25.0004
  21753244.2034  -12724427.15847  -8162898.12546                  21753252.6684
        25.7504         23.7504
  23077786.8674  -11426859.11546  -8759065.93046                  23077801.0044
        17.0004         16.0004
  20887820.2664   -6591790.27048  -5136449.35347                  20887828.5084
        30.5004         28.2504
  22712475.6564    9885756.01447      3361.06756                  22712485.3404
        20.0004         16.2504
  20636220.1484   -8130871.77648  -6335742.75547                  20636228.1684
        31.7504         28.5004
 00  5  1 20 25 15.0000000  0  6G 5G 6G17G10G24G30
  21360484.7344    4448590.25247   3466420.67346                  21360495.4844
        25.0004         25.0004
  21746510.3444  -12759813.14947  -8190471.58946                  21746519.1374
        26.0004         23.7504
  23070483.3834  -11465236.71646  -8788970.43246                  23070497.5204
        17.0004         16.5004
  20888884.0084   -6586200.32448  -5132093.54447                  20888892.0984
        30.7504         28.2504
  22718637.1024    9918134.95646     28591.40246                  22718646.9494
        19.7504         16.5004
  20636068.4454   -8131669.60948  -6336364.46047                  20636076.6174
        31.7504         28.5004
 00  5  1 20 25 30.0000000  0  6G 5G 6G17G10G24G30
  21366715.8054    4481333.70247   3491934.97346                  21366726.5554
        25.2504         25.0004
  21739781.6954  -12795172.41247  -8218024.22046                  21739790.5124
        26.0004         23.7504
  23063192.2274  -11503553.53146  -8818827.57046                  23063206.8094
        17.0004         16.5004
  20889976.2584   -6580460.28248  -5127620.77547                  20889984.4774
        30.7504         28.2504
  22724800.4694    9950522.41946     53828.36246                  22724810.0004
        19.7504         16.2504
  20635946.8364   -8132310.68348  -6336864.01047                  20635954.9844
        31.5004         28.5004
 00  5  1 20 25 45.0000000  0  6G 5G 6G17G10G24G30
  21372964.5944    4514171.96547   3517523.15746                  21372975.2854
        25.2504         24.7504
  21733057.5784  -12830508.56247  -8245558.84746                  21733066.1724
        26.0004         24.0004
  23055912.0004  -11541809.42246  -8848637.24546                  23055926.2774
        17.0004         16.5004
  20891095.9144   -6574576.90448  -5123036.31547                  20891104.1804
        30.7504         28.2504
  22730964.7274    9982917.26346     79071.08146                  22730974.5864
        19.7504         16.0004
  20635853.8524   -8132797.78848  -6337243.58847                  20635862.0354
        31.5004         28.5004
 00  5  1 20 26  0.0000000  0  6G 5G 6G17G10G24G30
  21379232.2894    4547108.15847   3543187.64646                  21379243.0044
        25.0004         25.0004
  21726338.3674  -12865817.94547  -8273072.60846                  21726347.1954
        26.2504         23.7504
  23048644.3984  -11580001.39146  -8878397.10146                  23048658.9344
        16.7504         16.5004
  20892243.0864   -6568547.93248  -5118338.40347                  20892251.1524
        31.0004         28.2504
  22737131.8204   10015323.59346    104322.74946                  22737141.3164
        19.7504         16.2504
  20635790.8364   -8133129.13948  -6337501.80147                  20635798.9024
        31.7504         28.5004
 00  5  1 20 26 15.0000000  0  6G 5G 6G17G10G24G30
  21385518.6954    4580143.21247   3568929.17146                  21385529.4924
        25.2504         25.0004
  21719624.6884  -12901098.62547  -8300564.00846                  21719633.3984
        26.2504         24.0004
  23041389.2894  -11618126.99146  -8908105.23846                  23041403.1454
        16.7504         16.5004
  20893417.7814   -6562374.99448  -5113528.31347                  20893425.6484
        31.2504         28.2504
  22743300.4144   10047740.78346    129582.86646                  22743309.9224
        19.5004         16.0004
  20635757.4614   -8133304.58848  -6337638.52847                  20635765.5274
        31.5004         28.7504
 00  5  1 20 26 30.0000000  0  6G 5G 6G17G10G24G30
  21391824.6564    4613280.53247   3594750.38346                  21391835.6174
        25.0004         25.0004
  21712917.4304  -12936345.69747  -8328029.22146                  21712926.1174
        26.2504         24.0004
  23034147.0784  -11656182.48846  -8937758.75646                  23034160.9694
        16.7504         16.7504
  20894619.8444   -6556057.40148  -5108605.50547                  20894627.9224
        31.0004         28.2504
  22749471.7344   10080170.22946    154852.54946                  22749481.1484
        19.2504         16.2504
  20635753.3054   -8133325.87248  -6337655.12747                  20635761.3134
        31.5004         28.5004
 00  5  1 20 26 45.0000000  0  6G 5G 6G17G10G24G30
  21398149.5784    4646517.73947   3620649.42246                  21398160.3054
        25.5004         25.0004
  21706215.7194  -12971563.13547  -8355471.34146                  21706224.4184
        26.2504         24.0004
  23026916.9614  -11694178.42746  -8967365.85546                  23026930.9924
        17.0004         16.7504
  20895848.7344   -6549600.13948  -5103573.86347                  20895857.0234
        30.7504         28.2504
  22755643.8444   10112606.34246    180127.42046                  22755653.6454
        19.2504         16.0004
  20635777.4454   -8133198.73548  -6337556.07347                  20635785.7114
        31.5004         28.7504
 00  5  1 20 27  0.0000000  0  6G 5G 6G17G10G24G30
  21404493.9224    4679856.81847   3646627.85246                  21404504.6024
        25.2504         24.7504
  21699520.5634  -13006744.84747  -8382885.62846                  21699529.2504
        26.5004         24.0004
  23019698.3364  -11732112.92746  -8996925.09146                  23019712.6024
        17.0004         16.7504
  20897105.1024   -6542998.02348  -5098429.35247                  20897113.3674
        31.0004         28.2504
  22761818.2664   10145052.91546    205410.43446                  22761827.7854
        19.5004         16.2504
  20635830.4144   -8132921.32348  -6337339.92447                  20635838.5514
        31.5004         28.5004
 00  5  1 20 27 15.0000000  0  6G 5G 6G17G10G24G30
  21410856.1884    4713290.14947   3672679.71946                  21410867.0554
        25.5004         24.7504
  21692831.7034  -13041895.34547  -8410275.58546                  21692840.3674
        26.5004         24.2504
  23012489.1254  -11769995.50446  -9026443.86246                  23012502.9804
        16.7504         17.0004
  20898388.5004   -6536253.49148  -5093173.86547                  20898396.8014
        31.2504         28.2504
  22767994.1094   10177507.55746    230699.74546                  22768003.3134
        19.5004         16.0004
  20635910.7034   -8132500.42848  -6337011.97047                  20635918.8054
        31.2504         28.5004
 00  5  1 20 27 30.0000000  0  6G 5G 6G17G10G24G30
  21417236.8914    4746820.56447   3698807.23446                  21417247.7234
        25.2504         24.7504
  21686148.6724  -13077014.95647  -8437641.47646                  21686157.3134
        26.5004         24.0004
  23005290.5394  -11807824.54146  -9055920.91746                  23005304.7114
        17.0004         16.7504
  20899700.2504   -6529359.98548  -5087802.29847                  20899708.3754
        31.2504         28.5004
  22774172.6174   10209973.39746    255997.78646                  22774181.9384
        19.2504         16.2504
  20636018.8754   -8131931.16748  -6336568.40447                  20636027.1524
        31.2504         28.7504
 00  5  1 20 27 45.0000000  0  6G 5G 6G17G10G24G30
  21423634.4224    4780440.15847   3725004.24446                  21423645.3014
        25.2504         24.7504
  21679469.6954  -13112113.29547  -8464990.79546                  21679478.2304
        26.7504         24.5004
  22998100.9614  -11845605.79146  -9085360.74246                  22998115.0634
        17.0004         17.0004
  20901039.2424   -6522323.46848  -5082319.29247                  20901047.4384
        31.0004         28.2504
  22780350.7664   10242441.42046    281297.51646                  22780360.4844
        19.2504         16.0004
  20636153.6804   -8131222.32748  -6336016.07947                  20636161.9454
        31.5004         28.5004
 00  5  1 20 28  0.0000000  0  6G 5G 6G17G10G24G30
  21430049.0394    4814148.93347   3751270.74146                  21430059.8134
        25.2504         24.5004
  21672794.9224  -13147190.31847  -8492323.50546                  21672803.4224
        27.0004         24.2504
  22990920.1334  -11883340.17646  -9114764.03946                  22990934.0944
        16.7504         16.7504
  20902405.7194   -6515142.73548  -5076723.91547                  20902413.9494
        31.0004         28.2504
  22786528.9384   10274908.37446    306596.41446                  22786538.6914
        19.2504         15.7504
  20636314.4614   -8130377.36548  -6335357.68347                  20636322.7154
        31.5004         28.2504
 00  5  1 20 28 15.0000000  0  6G 5G 6G17G10G24G30
  21436481.0004    4847948.90247   3777608.29846                  21436491.7034
        25.2504         24.5004
  21666124.4924  -13182242.92947  -8519637.18746                  21666133.1454
        27.0004         24.5004
  22983748.2194  -11921029.83846  -9144132.49246                  22983762.2274
        17.2504         16.7504
  20903799.9304   -6507816.01148  -5071014.77047                  20903808.0904
        30.7504         28.2504
  22792706.1884   10307369.91646    331891.09946                  22792716.1054
        19.2504         16.2504
  20636501.8054   -8129393.14948  -6334590.78047                  20636510.0124
        31.2504         28.5004
 00  5  1 20 28 30.0000000  0  6G 5G 6G17G10G24G30
  21442931.7114    4881846.34547   3804021.80946                  21442942.5554
        25.2504         24.5004
  21659460.5704  -13217261.51447  -8546924.36146                  21659469.0004
        27.0004         24.5004
  22976585.4064  -11958668.57946  -9173461.26346                  22976599.3204
        17.0004         16.7504
  20905223.3524   -6500336.42448  -5065186.51747                  20905231.6174
        31.0004         28.2504
  22798883.5084   10339832.03246    357186.22746                  22798893.0864
        19.2504         16.2504
  20636716.5784   -8128264.33048  -6333711.19647                  20636724.8324
        31.0004         28.5004
 00  5  1 20 28 45.0000000  0  6G 5G 6G17G10G24G30
  21449399.1174    4915832.32947   3830504.31146                  21449410.1954
        25.2504         24.5004
  21652801.9304  -13252252.14947  -8574189.75746                  21652810.5594
        27.0004         24.5004
  22969430.8754  -11996267.14646  -9202758.73646                  22969444.7074
        17.0004         16.7504
  20906674.5944   -6492708.80848  -5059242.91447                  20906682.8134
        31.0004         28.2504
  22805059.2194   10372285.35346    382474.49746                  22805068.7734
        19.5004         16.0004
  20636958.0554   -8126996.41448  -6332723.22947                  20636966.2384
        31.2504         28.5004
 00  5  1 20 29  0.0000000  0  6G 5G 6G17G10G24G30
  21455882.1564    4949900.67347   3857050.98846                  21455893.3404
        25.0004         24.5004
  21646148.8054  -13287216.22547  -8601434.45646                  21646157.2464
        27.2504         24.7504
  22962283.5164  -12033825.96146  -9232025.23646                  22962297.3134
        17.2504         16.7504
  20908154.2814   -6484934.08748  -5053184.68747                  20908162.4654
        31.0004         28.2504
  22811232.8054   10404727.31546    407753.93546                  22811242.6994
        19.5004         16.2504
  20637226.0474   -8125587.12048  -6331625.09847                  20637234.1954
        31.2504         28.5004
 00  5  1 20 29 15.0000000  0  6G 5G 6G17G10G24G30
  21462381.5394    4984055.54747   3883665.09846                  21462392.4184
        25.0004         24.5004
  21639501.4064  -13322146.84347  -8628653.08346                  21639509.8244
        27.7504         24.7504
  22955145.6414  -12071335.36246  -9261253.22846                  22955159.2624
        17.0004         16.7504
  20909662.6724   -6477006.71948  -5047007.51147                  20909670.9614
        31.2504         28.2504
  22817405.8674   10437166.39646    433031.10446                  22817415.1644
        19.5004         16.0004
  20637522.3444   -8124030.90848  -6330412.48247                  20637530.5044
        31.2504         28.2504
 00  5  1 20 29 30.0000000  0  6G 5G 6G17G10G24G30
  21468898.9144    5018304.83647   3910352.76146                  21468909.7814
        25.0004         24.5004
  21632861.6564  -13357040.35748  -8655842.80546                  21632870.0744
        28.0004         24.7504
  22948018.5164  -12108787.21146  -9290436.38046                  22948032.5824
        17.0004         17.0004
  20911200.8524   -6468923.12748  -5040708.60447                  20911209.1414
        31.0004         28.2504
  22823579.0394   10469606.09346    458308.76946                  22823588.9104
        19.5004         16.0004
  20637847.8284   -8122321.11148  -6329080.19447                  20637855.9304
        31.2504         28.5004
 00  5  1 20 29 45.0000000  0  6G 5G 6G17G10G24G30
  21475434.0164    5052645.80847   3937111.87846                  21475444.8954
        25.0004         24.2504
  21626227.8054  -13391900.26848  -8683006.33146                  21626236.1764
        28.0004         25.0004
  22940902.3984  -12146182.66346  -9319575.58446                  22940916.2074
        17.0004         16.7504
  20912767.8524   -6460689.19148  -5034292.54347                  20912776.1414
        30.7504         28.2504
  22829751.5944   10502043.18546    483584.39946                  22829761.3244
        19.5004         15.7504
  20638201.5394   -8120461.56748  -6327631.21547                  20638209.6414
        31.0004         28.5004
 00  5  1 20 30  0.0000000  0  6G 5G 6G17G10G24G30
  21481987.0784    5087082.57947   3963945.64246                  21481997.9454
        25.0004         24.0004
  21619601.5704  -13426721.98148  -8710140.09646                  21619610.0594
        28.0004         25.0004
  22933796.5474  -12183521.90046  -9348670.97246                  22933810.2624
        17.2504         17.2504
  20914363.1804   -6452305.05048  -5027759.43847                  20914371.4574
        30.7504         27.7504
  22835924.9614   10534483.32846    508862.40646                  22835934.2584
        19.7504         16.0004
  20638583.6174   -8118453.17348  -6326066.25447                  20638591.8484
        31.0004         28.5004
 00  5  1 20 30 15.0000000  0  6G 5G 6G17G10G24G30
  21488558.0864    5121613.54547   3990852.80046                  21488569.1414
        24.7504         24.0004
  21612982.3204  -13461506.68148  -8737245.02246                  21612990.9264
        28.0004         25.0004
  22926701.1414  -12220809.36546  -9377726.03246                  22926715.3484
        17.2504         16.7504
  20915986.8204   -6443772.42748  -5021110.63147                  20915995.0634
        30.7504         28.0004
  22842098.5944   10566927.07346    534143.21346                  22842107.6094
        19.2504         15.7504
  20638993.8984   -8116297.34448  -6324386.40547                  20639002.0124
        30.7504         28.2504
 00  5  1 20 30 30.0000000  0  6G 5G 6G17G10G24G30
  21495146.7114    5156235.10847   4017830.55946                  21495157.5904
        25.0004         24.0004
  21606369.7664  -13496254.98747  -8764321.58846                  21606378.2894
        27.7504         25.2504
  22919615.6804  -12258044.14846  -9406740.04446                  22919629.3834
        17.5004         17.0004
  20917638.6334   -6435092.63348  -5014347.14947                  20917646.7814
        30.5004         28.0004
  22848273.6484   10599378.17646    559429.76046                  22848282.9454
        19.0004         15.5004
  20639432.0004   -8113995.69548  -6322592.93247                  20639440.2774
        30.7504         28.2504
 00  5  1 20 30 45.0000000  0  6G 5G 6G17G10G24G30
  21501751.5704    5190943.93647   4044876.31446                  21501762.5434
        25.0004         24.0004
  21599763.1484  -13530972.59548  -8791374.23646                  21599771.6724
        28.2504         25.2504
  22912539.5634  -12295228.31946  -9435714.61246                  22912552.9494
        17.5004         17.0004
  20919317.9844   -6426267.67748  -5007470.55247                  20919326.0864
        30.5004         28.0004
  22854450.8444   10631838.07546    584723.16346                  22854460.2584
        19.2504         15.7504
  20639897.0164   -8111552.10248  -6320688.85447                  20639905.3054
        31.0004         28.5004
 00  5  1 20 31  0.0000000  0  6G 5G 6G17G10G24G30
  21508374.0634    5225744.66247   4071993.67146                  21508385.2234
        25.0004         23.7504
  21593162.9064  -13565657.19148  -8818401.16146                  21593171.4184
        28.2504         25.2504
  22905474.2504  -12332356.75046  -9464645.75446                  22905488.0234
        17.5004         17.0004
  20921025.5234   -6417294.00748  -5000478.07747                  20921033.7544
        30.5004         27.7504
  22860630.2274   10664310.63246    610026.42746                  22860639.3954
        19.2504         15.2504
  20640390.2114   -8108960.47348  -6318669.42447                  20640398.6884
        30.7504         28.5004
 00  5  1 20 31 15.0000000  0  6G 5G 6G17G10G24G30
  21515014.2734    5260639.38747   4099184.27446                  21515025.3754
        24.7504         24.0004
  21586568.9224  -13600308.50748  -8845402.15546                  21586577.3524
        28.2504         25.2504
  22898419.5394  -12369428.12446  -9493532.43346                  22898433.1724
        17.5004         17.0004
  20922761.5474   -6408171.53148  -4993369.64747                  20922769.8484
        30.2504         28.0004
  22866812.4694   10696798.32846    635341.48546                  22866821.9184
        19.2504         15.7504
  20640910.6954   -8106224.40948  -6316537.44647                  20640919.1134
        31.2504         28.5004
